Wetterdaten: Dienstag, 16.01.2018
Datum Zeit Temp. A. Feuchte A. Luftdruck Regen Wind Richtung Richtung Sonnenschein ET UV Solar Taupunkt Windchill Windböen
16.01.2018 00:00 1,5 °C 70 % 1007,3 hPa 0,0 mm 0,6 km/h (0 Bft) SO 126 ° 0 min 0,000 mm 0,0 UV-I 0 W/m² -3,4 °C 1,5 °C 1,6 km/h (1 Bft)
16.01.2018 00:01 1,5 °C 70 % 1007,3 hPa 0,0 mm 1,6 km/h (1 Bft) SO 126 ° 0 min 0,000 mm 0,0 UV-I 0 W/m² -3,4 °C 1,5 °C 3,2 km/h (1 Bft)
16.01.2018 00:02 1,5 °C 71 % 1007,3 hPa 0,0 mm 1,8 km/h (1 Bft) SO 126 ° 0 min 0,000 mm 0,0 UV-I 0 W/m² -3,2 °C 1,5 °C 3,2 km/h (1 Bft)
16.01.2018 00:03 1,5 °C 71 % 1007,3 hPa 0,0 mm 3,1 km/h (1 Bft) SO 126 ° 0 min 0,000 mm 0,0 UV-I 0 W/m² -3,2 °C 1,5 °C 4,8 km/h (1 Bft)
16.01.2018 00:04 1,4 °C 70 % 1007,3 hPa 0,0 mm 2,8 km/h (1 Bft) SO 126 ° 0 min 0,000 mm 0,0 UV-I 0 W/m² -3,5 °C 1,4 °C 3,2 km/h (1 Bft)
16.01.2018 00:05 1,5 °C 70 % 1007,3 hPa 0,0 mm 2,1 km/h (1 Bft) SO 126 ° 0 min 0,000 mm 0,0 UV-I 0 W/m² -3,4 °C 1,5 °C 3,2 km/h (1 Bft)
16.01.2018 00:06 1,4 °C 71 % 1007,3 hPa 0,0 mm 2,2 km/h (1 Bft) SO 126 ° 0 min 0,000 mm 0,0 UV-I 0 W/m² -3,3 °C 1,4 °C 3,2 km/h (1 Bft)
16.01.2018 00:07 1,4 °C 71 % 1007,3 hPa 0,0 mm 1,7 km/h (1 Bft) SO 126 ° 0 min 0,000 mm 0,0 UV-I 0 W/m² -3,3 °C 1,4 °C 3,2 km/h (1 Bft)
16.01.2018 00:08 1,4 °C 70 % 1007,3 hPa 0,0 mm 2,3 km/h (1 Bft) SO 126 ° 0 min 0,000 mm 0,0 UV-I 0 W/m² -3,5 °C 1,4 °C 4,8 km/h (1 Bft)
16.01.2018 00:09 1,4 °C 70 % 1007,3 hPa 0,0 mm 0,1 km/h (0 Bft) SO 126 ° 0 min 0,000 mm 0,0 UV-I 0 W/m² -3,5 °C 1,4 °C 1,6 km/h (1 Bft)
16.01.2018 00:10 1,4 °C 70 % 1007,3 hPa 0,0 mm 0,9 km/h (0 Bft) SO 126 ° 0 min 0,000 mm 0,0 UV-I 0 W/m² -3,5 °C 1,4 °C 3,2 km/h (1 Bft)
16.01.2018 00:11 1,4 °C 70 % 1007,3 hPa 0,0 mm 0,2 km/h (0 Bft) SO 126 ° 0 min 0,000 mm 0,0 UV-I 0 W/m² -3,5 °C 1,4 °C 1,6 km/h (1 Bft)
16.01.2018 00:12 1,4 °C 69 % 1007,3 hPa 0,0 mm 0,0 km/h (0 Bft) SO 126 ° 0 min 0,000 mm 0,0 UV-I 0 W/m² -3,7 °C 1,4 °C 0,0 km/h (0 Bft)
16.01.2018 00:13 1,4 °C 69 % 1007,3 hPa 0,0 mm 0,0 km/h (0 Bft) SO 126 ° 0 min 0,000 mm 0,0 UV-I 0 W/m² -3,7 °C 1,4 °C 0,0 km/h (0 Bft)
16.01.2018 00:14 1,4 °C 69 % 1007,3 hPa 0,0 mm 0,0 km/h (0 Bft) SO 126 ° 0 min 0,000 mm 0,0 UV-I 0 W/m² -3,7 °C 1,4 °C 0,0 km/h (0 Bft)
16.01.2018 00:15 1,4 °C 69 % 1007,3 hPa 0,0 mm 0,0 km/h (0 Bft) SO 126 ° 0 min 0,000 mm 0,0 UV-I 0 W/m² -3,7 °C 1,4 °C 0,0 km/h (0 Bft)
16.01.2018 00:16 1,4 °C 70 % 1007,3 hPa 0,0 mm 1,5 km/h (1 Bft) SO 140 ° 0 min 0,000 mm 0,0 UV-I 0 W/m² -3,5 °C 1,4 °C 3,2 km/h (1 Bft)
16.01.2018 00:17 1,4 °C 70 % 1007,3 hPa 0,0 mm 3,4 km/h (1 Bft) W 261 ° 0 min 0,000 mm 0,0 UV-I 0 W/m² -3,5 °C 1,4 °C 4,8 km/h (1 Bft)
16.01.2018 00:18 1,4 °C 70 % 1007,3 hPa 0,0 mm 1,7 km/h (1 Bft) SW 222 ° 0 min 0,000 mm 0,0 UV-I 0 W/m² -3,5 °C 1,4 °C 3,2 km/h (1 Bft)
16.01.2018 00:19 1,4 °C 70 % 1007,3 hPa 0,0 mm 1,8 km/h (1 Bft) S-SW 209 ° 0 min 0,000 mm 0,0 UV-I 0 W/m² -3,5 °C 1,4 °C 3,2 km/h (1 Bft)
16.01.2018 00:20 1,4 °C 71 % 1007,2 hPa 0,0 mm 0,1 km/h (0 Bft) S-SW 209 ° 0 min 0,000 mm 0,0 UV-I 0 W/m² -3,3 °C 1,4 °C 1,6 km/h (1 Bft)
16.01.2018 00:21 1,4 °C 71 % 1007,2 hPa 0,0 mm 0,3 km/h (0 Bft) SW 219 ° 0 min 0,000 mm 0,0 UV-I 0 W/m² -3,3 °C 1,4 °C 1,6 km/h (1 Bft)
16.01.2018 00:22 1,4 °C 71 % 1007,2 hPa 0,0 mm 0,1 km/h (0 Bft) SW 219 ° 0 min 0,000 mm 0,0 UV-I 0 W/m² -3,3 °C 1,4 °C 1,6 km/h (1 Bft)
16.01.2018 00:23 1,4 °C 70 % 1007,2 hPa 0,0 mm 0,6 km/h (0 Bft) SW 219 ° 0 min 0,000 mm 0,0 UV-I 0 W/m² -3,5 °C 1,4 °C 3,2 km/h (1 Bft)
16.01.2018 00:24 1,4 °C 70 % 1007,1 hPa 0,0 mm 2,3 km/h (1 Bft) SW 219 ° 0 min 0,000 mm 0,0 UV-I 0 W/m² -3,5 °C 1,4 °C 4,8 km/h (1 Bft)
16.01.2018 00:25 1,4 °C 70 % 1007,0 hPa 0,0 mm 1,2 km/h (1 Bft) SW 219 ° 0 min 0,000 mm 0,0 UV-I 0 W/m² -3,5 °C 1,4 °C 1,6 km/h (1 Bft)
16.01.2018 00:26 1,4 °C 70 % 1007,0 hPa 0,0 mm 1,3 km/h (1 Bft) SW 219 ° 0 min 0,000 mm 0,0 UV-I 0 W/m² -3,5 °C 1,4 °C 1,6 km/h (1 Bft)
16.01.2018 00:27 1,4 °C 70 % 1007,0 hPa 0,0 mm 2,1 km/h (1 Bft) S-SW 209 ° 0 min 0,000 mm 0,0 UV-I 0 W/m² -3,5 °C 1,4 °C 3,2 km/h (1 Bft)
16.01.2018 00:28 1,4 °C 70 % 1007,0 hPa 0,0 mm 2,8 km/h (1 Bft) S-SW 209 ° 0 min 0,000 mm 0,0 UV-I 0 W/m² -3,5 °C 1,4 °C 3,2 km/h (1 Bft)
16.01.2018 00:29 1,4 °C 70 % 1007,0 hPa 0,0 mm 1,5 km/h (1 Bft) S-SW 209 ° 0 min 0,000 mm 0,0 UV-I 0 W/m² -3,5 °C 1,4 °C 3,2 km/h (1 Bft)
16.01.2018 00:30 1,4 °C 70 % 1007,0 hPa 0,0 mm 0,5 km/h (0 Bft) S-SW 209 ° 0 min 0,000 mm 0,0 UV-I 0 W/m² -3,5 °C 1,4 °C 1,6 km/h (1 Bft)
16.01.2018 00:31 1,4 °C 71 % 1006,9 hPa 0,0 mm 0,8 km/h (0 Bft) S-SW 209 ° 0 min 0,000 mm 0,0 UV-I 0 W/m² -3,3 °C 1,4 °C 1,6 km/h (1 Bft)
16.01.2018 00:32 1,4 °C 71 % 1006,9 hPa 0,0 mm 0,1 km/h (0 Bft) S-SW 209 ° 0 min 0,000 mm 0,0 UV-I 0 W/m² -3,3 °C 1,4 °C 1,6 km/h (1 Bft)
16.01.2018 00:33 1,4 °C 71 % 1006,8 hPa 0,0 mm 0,0 km/h (0 Bft) S-SW 209 ° 0 min 0,000 mm 0,0 UV-I 0 W/m² -3,3 °C 1,4 °C 0,0 km/h (0 Bft)
16.01.2018 00:34 1,4 °C 71 % 1006,8 hPa 0,0 mm 0,0 km/h (0 Bft) S-SW 209 ° 0 min 0,000 mm 0,0 UV-I 0 W/m² -3,3 °C 1,4 °C 0,0 km/h (0 Bft)
16.01.2018 00:35 1,4 °C 71 % 1006,8 hPa 0,0 mm 0,0 km/h (0 Bft) S-SW 209 ° 0 min 0,000 mm 0,0 UV-I 0 W/m² -3,3 °C 1,4 °C 0,0 km/h (0 Bft)
16.01.2018 00:36 1,4 °C 71 % 1006,8 hPa 0,0 mm 0,0 km/h (0 Bft) S-SW 209 ° 0 min 0,000 mm 0,0 UV-I 0 W/m² -3,3 °C 1,4 °C 0,0 km/h (0 Bft)
16.01.2018 00:37 1,4 °C 72 % 1006,8 hPa 0,0 mm 0,0 km/h (0 Bft) S-SW 209 ° 0 min 0,000 mm 0,0 UV-I 0 W/m² -3,1 °C 1,4 °C 0,0 km/h (0 Bft)
16.01.2018 00:38 1,4 °C 73 % 1006,8 hPa 0,0 mm 0,0 km/h (0 Bft) S-SW 209 ° 0 min 0,000 mm 0,0 UV-I 0 W/m² -2,9 °C 1,4 °C 0,0 km/h (0 Bft)
16.01.2018 00:39 1,4 °C 72 % 1006,7 hPa 0,0 mm 0,0 km/h (0 Bft) S-SW 209 ° 0 min 0,000 mm 0,0 UV-I 0 W/m² -3,1 °C 1,4 °C 0,0 km/h (0 Bft)
16.01.2018 00:40 1,4 °C 73 % 1006,7 hPa 0,0 mm 0,0 km/h (0 Bft) S-SW 209 ° 0 min 0,000 mm 0,0 UV-I 0 W/m² -2,9 °C 1,4 °C 0,0 km/h (0 Bft)
16.01.2018 00:41 1,4 °C 72 % 1006,7 hPa 0,0 mm 0,0 km/h (0 Bft) S-SW 209 ° 0 min 0,000 mm 0,0 UV-I 0 W/m² -3,1 °C 1,4 °C 0,0 km/h (0 Bft)
16.01.2018 00:42 1,4 °C 72 % 1006,7 hPa 0,0 mm 0,0 km/h (0 Bft) S-SW 209 ° 0 min 0,000 mm 0,0 UV-I 0 W/m² -3,1 °C 1,4 °C 0,0 km/h (0 Bft)
16.01.2018 00:43 1,3 °C 72 % 1006,6 hPa 0,0 mm 0,0 km/h (0 Bft) S-SW 209 ° 0 min 0,000 mm 0,0 UV-I 0 W/m² -3,2 °C 1,3 °C 0,0 km/h (0 Bft)
16.01.2018 00:44 1,3 °C 72 % 1006,6 hPa 0,0 mm 2,3 km/h (1 Bft) S-SW 208 ° 0 min 0,000 mm 0,0 UV-I 0 W/m² -3,2 °C 1,3 °C 4,8 km/h (1 Bft)
16.01.2018 00:45 1,3 °C 72 % 1006,5 hPa 0,0 mm 2,1 km/h (1 Bft) S-SW 208 ° 0 min 0,000 mm 0,0 UV-I 0 W/m² -3,2 °C 1,3 °C 3,2 km/h (1 Bft)
16.01.2018 00:46 1,3 °C 71 % 1006,4 hPa 0,0 mm 0,0 km/h (0 Bft) S-SW 208 ° 0 min 0,000 mm 0,0 UV-I 0 W/m² -3,4 °C 1,3 °C 0,0 km/h (0 Bft)
16.01.2018 00:47 1,3 °C 71 % 1006,4 hPa 0,0 mm 0,0 km/h (0 Bft) S-SW 208 ° 0 min 0,000 mm 0,0 UV-I 0 W/m² -3,4 °C 1,3 °C 0,0 km/h (0 Bft)
16.01.2018 00:48 1,3 °C 72 % 1006,4 hPa 0,0 mm 0,0 km/h (0 Bft) S-SW 208 ° 0 min 0,000 mm 0,0 UV-I 0 W/m² -3,2 °C 1,3 °C 0,0 km/h (0 Bft)
16.01.2018 00:49 1,3 °C 72 % 1006,4 hPa 0,0 mm 1,0 km/h (0 Bft) S-SW 208 ° 0 min 0,000 mm 0,0 UV-I 0 W/m² -3,2 °C 1,3 °C 3,2 km/h (1 Bft)
16.01.2018 00:50 1,3 °C 73 % 1006,4 hPa 0,0 mm 3,2 km/h (1 Bft) W 268 ° 0 min 0,000 mm 0,0 UV-I 0 W/m² -3,0 °C 1,3 °C 6,4 km/h (2 Bft)
16.01.2018 00:51 1,3 °C 73 % 1006,4 hPa 0,0 mm 1,2 km/h (1 Bft) W 268 ° 0 min 0,000 mm 0,0 UV-I 0 W/m² -3,0 °C 1,3 °C 3,2 km/h (1 Bft)
16.01.2018 00:52 1,3 °C 73 % 1006,3 hPa 0,0 mm 1,5 km/h (1 Bft) W 259 ° 0 min 0,000 mm 0,0 UV-I 0 W/m² -3,0 °C 1,3 °C 3,2 km/h (1 Bft)
16.01.2018 00:53 1,3 °C 73 % 1006,2 hPa 0,0 mm 2,6 km/h (1 Bft) SW 221 ° 0 min 0,000 mm 0,0 UV-I 0 W/m² -3,0 °C 1,3 °C 3,2 km/h (1 Bft)
16.01.2018 00:54 1,3 °C 72 % 1006,1 hPa 0,0 mm 2,6 km/h (1 Bft) SW 221 ° 0 min 0,000 mm 0,0 UV-I 0 W/m² -3,2 °C 1,3 °C 3,2 km/h (1 Bft)
16.01.2018 00:55 1,2 °C 72 % 1006,1 hPa 0,0 mm 3,1 km/h (1 Bft) S 180 ° 0 min 0,000 mm 0,0 UV-I 0 W/m² -3,3 °C 1,2 °C 4,8 km/h (1 Bft)
16.01.2018 00:56 1,2 °C 72 % 1006,1 hPa 0,0 mm 4,0 km/h (1 Bft) S 178 ° 0 min 0,000 mm 0,0 UV-I 0 W/m² -3,3 °C 1,2 °C 4,8 km/h (1 Bft)
16.01.2018 00:57 1,2 °C 73 % 1006,0 hPa 0,0 mm 3,3 km/h (1 Bft) S 178 ° 0 min 0,000 mm 0,0 UV-I 0 W/m² -3,1 °C 1,2 °C 4,8 km/h (1 Bft)
16.01.2018 00:58 1,2 °C 72 % 1006,0 hPa 0,0 mm 1,9 km/h (1 Bft) S 178 ° 0 min 0,000 mm 0,0 UV-I 0 W/m² -3,3 °C 1,2 °C 3,2 km/h (1 Bft)
16.01.2018 00:59 1,2 °C 72 % 1006,0 hPa 0,0 mm 0,0 km/h (0 Bft) S 178 ° 0 min 0,000 mm 0,0 UV-I 0 W/m² -3,3 °C 1,2 °C 0,0 km/h (0 Bft)
16.01.2018 01:00 1,2 °C 72 % 1006,0 hPa 0,0 mm 0,0 km/h (0 Bft) S 178 ° 0 min 0,000 mm 0,0 UV-I 0 W/m² -3,3 °C 1,2 °C 0,0 km/h (0 Bft)
16.01.2018 01:01 1,2 °C 72 % 1005,9 hPa 0,0 mm 0,0 km/h (0 Bft) S 178 ° 0 min 0,025 mm 0,0 UV-I 0 W/m² -3,3 °C 1,2 °C 0,0 km/h (0 Bft)
16.01.2018 01:02 1,2 °C 72 % 1006,0 hPa 0,0 mm 3,6 km/h (1 Bft) W 281 ° 0 min 0,000 mm 0,0 UV-I 0 W/m² -3,3 °C 1,2 °C 4,8 km/h (1 Bft)
16.01.2018 01:03 1,2 °C 72 % 1006,1 hPa 0,0 mm 3,0 km/h (1 Bft) W 281 ° 0 min 0,000 mm 0,0 UV-I 0 W/m² -3,3 °C 1,2 °C 4,8 km/h (1 Bft)
16.01.2018 01:04 1,2 °C 73 % 1006,0 hPa 0,0 mm 0,5 km/h (0 Bft) W 281 ° 0 min 0,000 mm 0,0 UV-I 0 W/m² -3,1 °C 1,2 °C 3,2 km/h (1 Bft)
16.01.2018 01:05 1,2 °C 73 % 1006,0 hPa 0,0 mm 0,3 km/h (0 Bft) W 281 ° 0 min 0,000 mm 0,0 UV-I 0 W/m² -3,1 °C 1,2 °C 3,2 km/h (1 Bft)
16.01.2018 01:06 1,2 °C 73 % 1006,0 hPa 0,0 mm 0,0 km/h (0 Bft) W 281 ° 0 min 0,000 mm 0,0 UV-I 0 W/m² -3,1 °C 1,2 °C 0,0 km/h (0 Bft)
16.01.2018 01:07 1,2 °C 73 % 1006,0 hPa 0,0 mm 0,0 km/h (0 Bft) W 281 ° 0 min 0,000 mm 0,0 UV-I 0 W/m² -3,1 °C 1,2 °C 0,0 km/h (0 Bft)
16.01.2018 01:08 1,2 °C 73 % 1006,0 hPa 0,0 mm 0,0 km/h (0 Bft) W 281 ° 0 min 0,000 mm 0,0 UV-I 0 W/m² -3,1 °C 1,2 °C 0,0 km/h (0 Bft)
16.01.2018 01:09 1,1 °C 73 % 1006,0 hPa 0,0 mm 0,0 km/h (0 Bft) W 281 ° 0 min 0,000 mm 0,0 UV-I 0 W/m² -3,2 °C 1,1 °C 0,0 km/h (0 Bft)
16.01.2018 01:10 1,2 °C 73 % 1006,0 hPa 0,0 mm 0,0 km/h (0 Bft) W 281 ° 0 min 0,000 mm 0,0 UV-I 0 W/m² -3,1 °C 1,2 °C 0,0 km/h (0 Bft)
16.01.2018 01:11 1,2 °C 73 % 1006,0 hPa 0,0 mm 0,0 km/h (0 Bft) W 281 ° 0 min 0,000 mm 0,0 UV-I 0 W/m² -3,1 °C 1,2 °C 0,0 km/h (0 Bft)
16.01.2018 01:12 1,1 °C 73 % 1005,8 hPa 0,0 mm 0,0 km/h (0 Bft) W 281 ° 0 min 0,000 mm 0,0 UV-I 0 W/m² -3,2 °C 1,1 °C 0,0 km/h (0 Bft)
16.01.2018 01:13 1,1 °C 73 % 1005,8 hPa 0,0 mm 0,0 km/h (0 Bft) W 281 ° 0 min 0,000 mm 0,0 UV-I 0 W/m² -3,2 °C 1,1 °C 0,0 km/h (0 Bft)
16.01.2018 01:14 1,1 °C 73 % 1005,9 hPa 0,0 mm 0,0 km/h (0 Bft) W 281 ° 0 min 0,000 mm 0,0 UV-I 0 W/m² -3,2 °C 1,1 °C 0,0 km/h (0 Bft)
16.01.2018 01:15 1,1 °C 74 % 1005,8 hPa 0,0 mm 0,0 km/h (0 Bft) W 281 ° 0 min 0,000 mm 0,0 UV-I 0 W/m² -3,0 °C 1,1 °C 0,0 km/h (0 Bft)
16.01.2018 01:16 1,1 °C 74 % 1005,8 hPa 0,0 mm 0,0 km/h (0 Bft) W 281 ° 0 min 0,000 mm 0,0 UV-I 0 W/m² -3,0 °C 1,1 °C 0,0 km/h (0 Bft)
16.01.2018 01:17 1,1 °C 74 % 1005,7 hPa 0,0 mm 0,0 km/h (0 Bft) W 281 ° 0 min 0,000 mm 0,0 UV-I 0 W/m² -3,0 °C 1,1 °C 0,0 km/h (0 Bft)
16.01.2018 01:18 1,1 °C 75 % 1005,7 hPa 0,0 mm 0,0 km/h (0 Bft) W 281 ° 0 min 0,000 mm 0,0 UV-I 0 W/m² -2,8 °C 1,1 °C 0,0 km/h (0 Bft)
16.01.2018 01:19 1,1 °C 74 % 1005,8 hPa 0,0 mm 0,0 km/h (0 Bft) W 281 ° 0 min 0,000 mm 0,0 UV-I 0 W/m² -3,0 °C 1,1 °C 0,0 km/h (0 Bft)
16.01.2018 01:20 1,1 °C 75 % 1005,8 hPa 0,0 mm 0,9 km/h (0 Bft) W 277 ° 0 min 0,000 mm 0,0 UV-I 0 W/m² -2,8 °C 1,1 °C 3,2 km/h (1 Bft)
16.01.2018 01:21 1,1 °C 75 % 1005,6 hPa 0,0 mm 1,2 km/h (1 Bft) W 277 ° 0 min 0,000 mm 0,0 UV-I 0 W/m² -2,8 °C 1,1 °C 3,2 km/h (1 Bft)
16.01.2018 01:22 1,1 °C 75 % 1005,7 hPa 0,0 mm 0,6 km/h (0 Bft) W 277 ° 0 min 0,000 mm 0,0 UV-I 0 W/m² -2,8 °C 1,1 °C 3,2 km/h (1 Bft)
16.01.2018 01:23 1,1 °C 75 % 1005,6 hPa 0,0 mm 0,0 km/h (0 Bft) W 277 ° 0 min 0,000 mm 0,0 UV-I 0 W/m² -2,8 °C 1,1 °C 0,0 km/h (0 Bft)
16.01.2018 01:24 1,1 °C 75 % 1005,6 hPa 0,0 mm 0,7 km/h (0 Bft) W 277 ° 0 min 0,000 mm 0,0 UV-I 0 W/m² -2,8 °C 1,1 °C 1,6 km/h (1 Bft)
16.01.2018 01:25 1,1 °C 75 % 1005,5 hPa 0,0 mm 0,0 km/h (0 Bft) W 277 ° 0 min 0,000 mm 0,0 UV-I 0 W/m² -2,8 °C 1,1 °C 0,0 km/h (0 Bft)
16.01.2018 01:26 1,1 °C 75 % 1005,5 hPa 0,0 mm 0,0 km/h (0 Bft) W 277 ° 0 min 0,000 mm 0,0 UV-I 0 W/m² -2,8 °C 1,1 °C 0,0 km/h (0 Bft)
16.01.2018 01:27 1,1 °C 75 % 1005,5 hPa 0,0 mm 0,0 km/h (0 Bft) W 277 ° 0 min 0,000 mm 0,0 UV-I 0 W/m² -2,8 °C 1,1 °C 0,0 km/h (0 Bft)
16.01.2018 01:28 1,1 °C 75 % 1005,5 hPa 0,0 mm 0,0 km/h (0 Bft) W 277 ° 0 min 0,000 mm 0,0 UV-I 0 W/m² -2,8 °C 1,1 °C 0,0 km/h (0 Bft)
16.01.2018 01:29 1,1 °C 75 % 1005,5 hPa 0,0 mm 0,0 km/h (0 Bft) W 277 ° 0 min 0,000 mm 0,0 UV-I 0 W/m² -2,8 °C 1,1 °C 0,0 km/h (0 Bft)
16.01.2018 01:30 1,1 °C 76 % 1005,5 hPa 0,0 mm 0,0 km/h (0 Bft) W 277 ° 0 min 0,000 mm 0,0 UV-I 0 W/m² -2,6 °C 1,1 °C 0,0 km/h (0 Bft)
16.01.2018 01:31 1,1 °C 76 % 1005,5 hPa 0,0 mm 0,7 km/h (0 Bft) W 271 ° 0 min 0,000 mm 0,0 UV-I 0 W/m² -2,6 °C 1,1 °C 4,8 km/h (1 Bft)
16.01.2018 01:32 1,1 °C 76 % 1005,6 hPa 0,0 mm 1,4 km/h (1 Bft) W 271 ° 0 min 0,000 mm 0,0 UV-I 0 W/m² -2,6 °C 1,1 °C 3,2 km/h (1 Bft)
16.01.2018 01:33 1,1 °C 75 % 1005,6 hPa 0,0 mm 2,4 km/h (1 Bft) S-SW 209 ° 0 min 0,000 mm 0,0 UV-I 0 W/m² -2,8 °C 1,1 °C 6,4 km/h (2 Bft)
16.01.2018 01:34 1,1 °C 75 % 1005,6 hPa 0,0 mm 2,5 km/h (1 Bft) S-SW 208 ° 0 min 0,000 mm 0,0 UV-I 0 W/m² -2,8 °C 1,1 °C 4,8 km/h (1 Bft)
16.01.2018 01:35 1,1 °C 75 % 1005,6 hPa 0,0 mm 1,8 km/h (1 Bft) S-SW 208 ° 0 min 0,000 mm 0,0 UV-I 0 W/m² -2,8 °C 1,1 °C 3,2 km/h (1 Bft)
16.01.2018 01:36 1,2 °C 75 % 1005,6 hPa 0,0 mm 5,8 km/h (2 Bft) S-SW 195 ° 0 min 0,000 mm 0,0 UV-I 0 W/m² -2,7 °C -0,6 °C 9,7 km/h (2 Bft)
16.01.2018 01:37 1,2 °C 75 % 1005,6 hPa 0,0 mm 2,7 km/h (1 Bft) S-SW 195 ° 0 min 0,000 mm 0,0 UV-I 0 W/m² -2,7 °C 1,2 °C 4,8 km/h (1 Bft)
16.01.2018 01:38 1,3 °C 75 % 1005,6 hPa 0,0 mm 2,4 km/h (1 Bft) S-SW 195 ° 0 min 0,000 mm 0,0 UV-I 0 W/m² -2,6 °C 1,3 °C 4,8 km/h (1 Bft)
16.01.2018 01:39 1,3 °C 75 % 1005,6 hPa 0,0 mm 1,7 km/h (1 Bft) S-SW 195 ° 0 min 0,000 mm 0,0 UV-I 0 W/m² -2,6 °C 1,3 °C 3,2 km/h (1 Bft)
16.01.2018 01:40 1,3 °C 75 % 1005,5 hPa 0,0 mm 0,8 km/h (0 Bft) S-SW 195 ° 0 min 0,000 mm 0,0 UV-I 0 W/m² -2,6 °C 1,3 °C 3,2 km/h (1 Bft)
16.01.2018 01:41 1,3 °C 75 % 1005,5 hPa 0,0 mm 1,5 km/h (1 Bft) S-SW 195 ° 0 min 0,000 mm 0,0 UV-I 0 W/m² -2,6 °C 1,3 °C 3,2 km/h (1 Bft)
16.01.2018 01:42 1,4 °C 75 % 1005,6 hPa 0,0 mm 0,1 km/h (0 Bft) S-SW 195 ° 0 min 0,000 mm 0,0 UV-I 0 W/m² -2,5 °C 1,4 °C 1,6 km/h (1 Bft)
16.01.2018 01:43 1,4 °C 75 % 1005,6 hPa 0,0 mm 2,8 km/h (1 Bft) S-SW 195 ° 0 min 0,000 mm 0,0 UV-I 0 W/m² -2,5 °C 1,4 °C 4,8 km/h (1 Bft)
16.01.2018 01:44 1,4 °C 75 % 1005,6 hPa 0,0 mm 0,9 km/h (0 Bft) S-SW 195 ° 0 min 0,000 mm 0,0 UV-I 0 W/m² -2,5 °C 1,4 °C 3,2 km/h (1 Bft)
16.01.2018 01:45 1,4 °C 75 % 1005,5 hPa 0,0 mm 1,5 km/h (1 Bft) S-SW 195 ° 0 min 0,000 mm 0,0 UV-I 0 W/m² -2,5 °C 1,4 °C 3,2 km/h (1 Bft)
16.01.2018 01:46 1,4 °C 75 % 1005,5 hPa 0,0 mm 4,3 km/h (1 Bft) S-SW 194 ° 0 min 0,000 mm 0,0 UV-I 0 W/m² -2,5 °C 1,4 °C 4,8 km/h (1 Bft)
16.01.2018 01:47 1,4 °C 76 % 1005,5 hPa 0,0 mm 2,6 km/h (1 Bft) S-SW 194 ° 0 min 0,000 mm 0,0 UV-I 0 W/m² -2,4 °C 1,4 °C 4,8 km/h (1 Bft)
16.01.2018 01:48 1,4 °C 76 % 1005,4 hPa 0,0 mm 2,6 km/h (1 Bft) S-SW 194 ° 0 min 0,000 mm 0,0 UV-I 0 W/m² -2,4 °C 1,4 °C 4,8 km/h (1 Bft)
16.01.2018 01:49 1,4 °C 76 % 1005,3 hPa 0,0 mm 2,3 km/h (1 Bft) S-SW 194 ° 0 min 0,000 mm 0,0 UV-I 0 W/m² -2,4 °C 1,4 °C 3,2 km/h (1 Bft)
16.01.2018 01:50 1,4 °C 76 % 1005,3 hPa 0,0 mm 1,3 km/h (1 Bft) S-SW 194 ° 0 min 0,000 mm 0,0 UV-I 0 W/m² -2,4 °C 1,4 °C 3,2 km/h (1 Bft)
16.01.2018 01:51 1,4 °C 76 % 1005,3 hPa 0,0 mm 0,2 km/h (0 Bft) S-SW 194 ° 0 min 0,000 mm 0,0 UV-I 0 W/m² -2,4 °C 1,4 °C 1,6 km/h (1 Bft)
16.01.2018 01:52 1,4 °C 76 % 1005,2 hPa 0,0 mm 0,0 km/h (0 Bft) S-SW 194 ° 0 min 0,000 mm 0,0 UV-I 0 W/m² -2,4 °C 1,4 °C 0,0 km/h (0 Bft)
16.01.2018 01:53 1,4 °C 77 % 1005,2 hPa 0,0 mm 0,0 km/h (0 Bft) S-SW 194 ° 0 min 0,000 mm 0,0 UV-I 0 W/m² -2,2 °C 1,4 °C 0,0 km/h (0 Bft)
16.01.2018 01:54 1,4 °C 77 % 1005,2 hPa 0,0 mm 1,5 km/h (1 Bft) S-SW 194 ° 0 min 0,000 mm 0,0 UV-I 0 W/m² -2,2 °C 1,4 °C 3,2 km/h (1 Bft)
16.01.2018 01:55 1,4 °C 77 % 1005,3 hPa 0,0 mm 0,0 km/h (0 Bft) S-SW 194 ° 0 min 0,000 mm 0,0 UV-I 0 W/m² -2,2 °C 1,4 °C 0,0 km/h (0 Bft)
16.01.2018 01:56 1,4 °C 77 % 1005,4 hPa 0,0 mm 0,0 km/h (0 Bft) S-SW 194 ° 0 min 0,000 mm 0,0 UV-I 0 W/m² -2,2 °C 1,4 °C 0,0 km/h (0 Bft)
16.01.2018 01:57 1,4 °C 77 % 1005,4 hPa 0,0 mm 0,0 km/h (0 Bft) S-SW 194 ° 0 min 0,000 mm 0,0 UV-I 0 W/m² -2,2 °C 1,4 °C 0,0 km/h (0 Bft)
16.01.2018 01:58 1,4 °C 77 % 1005,3 hPa 0,0 mm 0,0 km/h (0 Bft) S-SW 194 ° 0 min 0,000 mm 0,0 UV-I 0 W/m² -2,2 °C 1,4 °C 0,0 km/h (0 Bft)
16.01.2018 01:59 1,4 °C 77 % 1005,3 hPa 0,0 mm 0,9 km/h (0 Bft) S-SW 194 ° 0 min 0,000 mm 0,0 UV-I 0 W/m² -2,2 °C 1,4 °C 1,6 km/h (1 Bft)
16.01.2018 02:00 1,4 °C 77 % 1005,2 hPa 0,0 mm 0,0 km/h (0 Bft) S-SW 194 ° 0 min 0,026 mm 0,0 UV-I 0 W/m² -2,2 °C 1,4 °C 0,0 km/h (0 Bft)
16.01.2018 02:01 1,4 °C 77 % 1005,2 hPa 0,0 mm 0,0 km/h (0 Bft) S-SW 194 ° 0 min 0,000 mm 0,0 UV-I 0 W/m² -2,2 °C 1,4 °C 0,0 km/h (0 Bft)
16.01.2018 02:02 1,4 °C 78 % 1005,1 hPa 0,0 mm 0,0 km/h (0 Bft) S-SW 194 ° 0 min 0,000 mm 0,0 UV-I 0 W/m² -2,0 °C 1,4 °C 0,0 km/h (0 Bft)
16.01.2018 02:03 1,4 °C 78 % 1005,2 hPa 0,0 mm 0,0 km/h (0 Bft) S-SW 194 ° 0 min 0,000 mm 0,0 UV-I 0 W/m² -2,0 °C 1,4 °C 0,0 km/h (0 Bft)
16.01.2018 02:04 1,4 °C 78 % 1005,2 hPa 0,0 mm 0,0 km/h (0 Bft) S-SW 194 ° 0 min 0,000 mm 0,0 UV-I 0 W/m² -2,0 °C 1,4 °C 0,0 km/h (0 Bft)
16.01.2018 02:05 1,4 °C 78 % 1005,0 hPa 0,0 mm 0,0 km/h (0 Bft) S-SW 194 ° 0 min 0,000 mm 0,0 UV-I 0 W/m² -2,0 °C 1,4 °C 0,0 km/h (0 Bft)
16.01.2018 02:06 1,4 °C 78 % 1005,0 hPa 0,0 mm 0,0 km/h (0 Bft) S-SW 194 ° 0 min 0,000 mm 0,0 UV-I 0 W/m² -2,0 °C 1,4 °C 0,0 km/h (0 Bft)
16.01.2018 02:07 1,4 °C 78 % 1005,0 hPa 0,0 mm 0,0 km/h (0 Bft) S-SW 194 ° 0 min 0,000 mm 0,0 UV-I 0 W/m² -2,0 °C 1,4 °C 0,0 km/h (0 Bft)
16.01.2018 02:08 1,4 °C 78 % 1005,0 hPa 0,0 mm 0,0 km/h (0 Bft) S-SW 194 ° 0 min 0,000 mm 0,0 UV-I 0 W/m² -2,0 °C 1,4 °C 0,0 km/h (0 Bft)
16.01.2018 02:09 1,3 °C 78 % 1004,9 hPa 0,0 mm 0,0 km/h (0 Bft) S-SW 194 ° 0 min 0,000 mm 0,0 UV-I 0 W/m² -2,1 °C 1,3 °C 0,0 km/h (0 Bft)
16.01.2018 02:10 1,3 °C 78 % 1004,9 hPa 0,0 mm 0,0 km/h (0 Bft) S-SW 194 ° 0 min 0,000 mm 0,0 UV-I 0 W/m² -2,1 °C 1,3 °C 0,0 km/h (0 Bft)
16.01.2018 02:11 1,3 °C 78 % 1004,9 hPa 0,0 mm 0,0 km/h (0 Bft) S-SW 194 ° 0 min 0,000 mm 0,0 UV-I 0 W/m² -2,1 °C 1,3 °C 0,0 km/h (0 Bft)
16.01.2018 02:12 1,3 °C 78 % 1004,9 hPa 0,0 mm 0,0 km/h (0 Bft) S-SW 194 ° 0 min 0,000 mm 0,0 UV-I 0 W/m² -2,1 °C 1,3 °C 0,0 km/h (0 Bft)
16.01.2018 02:13 1,3 °C 78 % 1004,9 hPa 0,0 mm 0,0 km/h (0 Bft) S-SW 194 ° 0 min 0,000 mm 0,0 UV-I 0 W/m² -2,1 °C 1,3 °C 0,0 km/h (0 Bft)
16.01.2018 02:14 1,3 °C 78 % 1004,8 hPa 0,0 mm 0,0 km/h (0 Bft) S-SW 194 ° 0 min 0,000 mm 0,0 UV-I 0 W/m² -2,1 °C 1,3 °C 0,0 km/h (0 Bft)
16.01.2018 02:15 1,3 °C 78 % 1004,8 hPa 0,0 mm 0,0 km/h (0 Bft) S-SW 194 ° 0 min 0,000 mm 0,0 UV-I 0 W/m² -2,1 °C 1,3 °C 0,0 km/h (0 Bft)
16.01.2018 02:16 1,3 °C 78 % 1004,8 hPa 0,0 mm 0,0 km/h (0 Bft) S-SW 194 ° 0 min 0,000 mm 0,0 UV-I 0 W/m² -2,1 °C 1,3 °C 0,0 km/h (0 Bft)
16.01.2018 02:17 1,3 °C 78 % 1004,8 hPa 0,0 mm 0,0 km/h (0 Bft) S-SW 194 ° 0 min 0,000 mm 0,0 UV-I 0 W/m² -2,1 °C 1,3 °C 0,0 km/h (0 Bft)
16.01.2018 02:18 1,3 °C 78 % 1004,8 hPa 0,0 mm 0,0 km/h (0 Bft) S-SW 194 ° 0 min 0,000 mm 0,0 UV-I 0 W/m² -2,1 °C 1,3 °C 0,0 km/h (0 Bft)
16.01.2018 02:19 1,3 °C 78 % 1004,7 hPa 0,0 mm 0,0 km/h (0 Bft) S-SW 194 ° 0 min 0,000 mm 0,0 UV-I 0 W/m² -2,1 °C 1,3 °C 0,0 km/h (0 Bft)
16.01.2018 02:20 1,3 °C 78 % 1004,7 hPa 0,0 mm 0,0 km/h (0 Bft) S-SW 194 ° 0 min 0,000 mm 0,0 UV-I 0 W/m² -2,1 °C 1,3 °C 0,0 km/h (0 Bft)
16.01.2018 02:21 1,2 °C 78 % 1004,8 hPa 0,0 mm 0,0 km/h (0 Bft) S-SW 194 ° 0 min 0,000 mm 0,0 UV-I 0 W/m² -2,2 °C 1,2 °C 0,0 km/h (0 Bft)
16.01.2018 02:22 1,2 °C 78 % 1004,8 hPa 0,0 mm 0,0 km/h (0 Bft) S-SW 194 ° 0 min 0,000 mm 0,0 UV-I 0 W/m² -2,2 °C 1,2 °C 0,0 km/h (0 Bft)
16.01.2018 02:23 1,2 °C 78 % 1004,9 hPa 0,0 mm 0,0 km/h (0 Bft) S-SW 194 ° 0 min 0,000 mm 0,0 UV-I 0 W/m² -2,2 °C 1,2 °C 0,0 km/h (0 Bft)
16.01.2018 02:24 1,2 °C 78 % 1004,9 hPa 0,0 mm 0,0 km/h (0 Bft) S-SW 194 ° 0 min 0,000 mm 0,0 UV-I 0 W/m² -2,2 °C 1,2 °C 0,0 km/h (0 Bft)
16.01.2018 02:25 1,2 °C 78 % 1004,9 hPa 0,0 mm 0,7 km/h (0 Bft) W 274 ° 0 min 0,000 mm 0,0 UV-I 0 W/m² -2,2 °C 1,2 °C 6,4 km/h (2 Bft)
16.01.2018 02:26 1,2 °C 78 % 1004,9 hPa 0,0 mm 3,9 km/h (1 Bft) W 274 ° 0 min 0,000 mm 0,0 UV-I 0 W/m² -2,2 °C 1,2 °C 4,8 km/h (1 Bft)
16.01.2018 02:27 1,2 °C 78 % 1004,9 hPa 0,0 mm 4,0 km/h (1 Bft) S-SW 197 ° 0 min 0,000 mm 0,0 UV-I 0 W/m² -2,2 °C 1,2 °C 6,4 km/h (2 Bft)
16.01.2018 02:28 1,2 °C 78 % 1004,9 hPa 0,0 mm 4,7 km/h (1 Bft) S 183 ° 0 min 0,000 mm 0,0 UV-I 0 W/m² -2,2 °C -0,1 °C 6,4 km/h (2 Bft)
16.01.2018 02:29 1,2 °C 78 % 1004,9 hPa 0,0 mm 3,3 km/h (1 Bft) S 183 ° 0 min 0,000 mm 0,0 UV-I 0 W/m² -2,2 °C 1,2 °C 4,8 km/h (1 Bft)
16.01.2018 02:30 1,2 °C 78 % 1004,8 hPa 0,0 mm 0,1 km/h (0 Bft) S 183 ° 0 min 0,000 mm 0,0 UV-I 0 W/m² -2,2 °C 1,2 °C 1,6 km/h (1 Bft)
16.01.2018 02:31 1,2 °C 78 % 1004,8 hPa 0,0 mm 0,0 km/h (0 Bft) S 183 ° 0 min 0,000 mm 0,0 UV-I 0 W/m² -2,2 °C 1,2 °C 0,0 km/h (0 Bft)
16.01.2018 02:32 1,2 °C 79 % 1004,8 hPa 0,0 mm 1,0 km/h (0 Bft) S 183 ° 0 min 0,000 mm 0,0 UV-I 0 W/m² -2,0 °C 1,2 °C 3,2 km/h (1 Bft)
16.01.2018 02:33 1,2 °C 79 % 1004,7 hPa 0,0 mm 1,6 km/h (1 Bft) S 183 ° 0 min 0,000 mm 0,0 UV-I 0 W/m² -2,0 °C 1,2 °C 3,2 km/h (1 Bft)
16.01.2018 02:34 1,2 °C 80 % 1004,7 hPa 0,0 mm 0,1 km/h (0 Bft) S 183 ° 0 min 0,000 mm 0,0 UV-I 0 W/m² -1,9 °C 1,2 °C 1,6 km/h (1 Bft)
16.01.2018 02:35 1,2 °C 80 % 1004,8 hPa 0,0 mm 0,0 km/h (0 Bft) S 183 ° 0 min 0,000 mm 0,0 UV-I 0 W/m² -1,9 °C 1,2 °C 0,0 km/h (0 Bft)
16.01.2018 02:36 1,2 °C 80 % 1004,8 hPa 0,0 mm 0,0 km/h (0 Bft) S 183 ° 0 min 0,000 mm 0,0 UV-I 0 W/m² -1,9 °C 1,2 °C 0,0 km/h (0 Bft)
16.01.2018 02:37 1,2 °C 80 % 1004,7 hPa 0,0 mm 0,0 km/h (0 Bft) S 183 ° 0 min 0,000 mm 0,0 UV-I 0 W/m² -1,9 °C 1,2 °C 0,0 km/h (0 Bft)
16.01.2018 02:38 1,2 °C 81 % 1004,7 hPa 0,0 mm 0,0 km/h (0 Bft) S 183 ° 0 min 0,000 mm 0,0 UV-I 0 W/m² -1,7 °C 1,2 °C 0,0 km/h (0 Bft)
16.01.2018 02:39 1,2 °C 81 % 1004,7 hPa 0,0 mm 0,0 km/h (0 Bft) S 183 ° 0 min 0,000 mm 0,0 UV-I 0 W/m² -1,7 °C 1,2 °C 0,0 km/h (0 Bft)
16.01.2018 02:40 1,2 °C 81 % 1004,7 hPa 0,0 mm 0,0 km/h (0 Bft) S 183 ° 0 min 0,000 mm 0,0 UV-I 0 W/m² -1,7 °C 1,2 °C 0,0 km/h (0 Bft)
16.01.2018 02:41 1,3 °C 81 % 1004,8 hPa 0,0 mm 0,0 km/h (0 Bft) S 183 ° 0 min 0,000 mm 0,0 UV-I 0 W/m² -1,6 °C 1,3 °C 0,0 km/h (0 Bft)
16.01.2018 02:42 1,3 °C 81 % 1004,8 hPa 0,0 mm 0,0 km/h (0 Bft) S 183 ° 0 min 0,000 mm 0,0 UV-I 0 W/m² -1,6 °C 1,3 °C 0,0 km/h (0 Bft)
16.01.2018 02:43 1,3 °C 82 % 1004,8 hPa 0,0 mm 0,1 km/h (0 Bft) S 183 ° 0 min 0,000 mm 0,0 UV-I 0 W/m² -1,4 °C 1,3 °C 1,6 km/h (1 Bft)
16.01.2018 02:44 1,3 °C 82 % 1004,8 hPa 0,0 mm 0,0 km/h (0 Bft) S 183 ° 0 min 0,000 mm 0,0 UV-I 0 W/m² -1,4 °C 1,3 °C 0,0 km/h (0 Bft)
16.01.2018 02:45 1,3 °C 82 % 1004,8 hPa 0,0 mm 0,0 km/h (0 Bft) S 183 ° 0 min 0,000 mm 0,0 UV-I 0 W/m² -1,4 °C 1,3 °C 0,0 km/h (0 Bft)
16.01.2018 02:46 1,3 °C 82 % 1004,8 hPa 0,0 mm 0,0 km/h (0 Bft) S 183 ° 0 min 0,000 mm 0,0 UV-I 0 W/m² -1,4 °C 1,3 °C 0,0 km/h (0 Bft)
16.01.2018 02:47 1,3 °C 82 % 1004,8 hPa 0,0 mm 0,0 km/h (0 Bft) S 183 ° 0 min 0,000 mm 0,0 UV-I 0 W/m² -1,4 °C 1,3 °C 0,0 km/h (0 Bft)
16.01.2018 02:48 1,3 °C 82 % 1004,7 hPa 0,0 mm 0,0 km/h (0 Bft) S 183 ° 0 min 0,000 mm 0,0 UV-I 0 W/m² -1,4 °C 1,3 °C 0,0 km/h (0 Bft)
16.01.2018 02:49 1,3 °C 81 % 1004,7 hPa 0,0 mm 0,0 km/h (0 Bft) S 183 ° 0 min 0,000 mm 0,0 UV-I 0 W/m² -1,6 °C 1,3 °C 0,0 km/h (0 Bft)
16.01.2018 02:50 1,3 °C 81 % 1004,8 hPa 0,0 mm 0,0 km/h (0 Bft) S 183 ° 0 min 0,000 mm 0,0 UV-I 0 W/m² -1,6 °C 1,3 °C 0,0 km/h (0 Bft)
16.01.2018 02:51 1,3 °C 81 % 1004,8 hPa 0,0 mm 0,0 km/h (0 Bft) S 183 ° 0 min 0,000 mm 0,0 UV-I 0 W/m² -1,6 °C 1,3 °C 0,0 km/h (0 Bft)
16.01.2018 02:52 1,3 °C 82 % 1004,8 hPa 0,0 mm 0,0 km/h (0 Bft) S 183 ° 0 min 0,000 mm 0,0 UV-I 0 W/m² -1,4 °C 1,3 °C 0,0 km/h (0 Bft)
16.01.2018 02:53 1,3 °C 82 % 1004,8 hPa 0,0 mm 0,0 km/h (0 Bft) S 183 ° 0 min 0,000 mm 0,0 UV-I 0 W/m² -1,4 °C 1,3 °C 0,0 km/h (0 Bft)
16.01.2018 02:54 1,4 °C 82 % 1004,8 hPa 0,0 mm 0,0 km/h (0 Bft) S 183 ° 0 min 0,000 mm 0,0 UV-I 0 W/m² -1,3 °C 1,4 °C 0,0 km/h (0 Bft)
16.01.2018 02:55 1,4 °C 83 % 1004,8 hPa 0,0 mm 0,0 km/h (0 Bft) S 183 ° 0 min 0,000 mm 0,0 UV-I 0 W/m² -1,2 °C 1,4 °C 0,0 km/h (0 Bft)
16.01.2018 02:56 1,4 °C 83 % 1004,8 hPa 0,0 mm 0,0 km/h (0 Bft) S 183 ° 0 min 0,000 mm 0,0 UV-I 0 W/m² -1,2 °C 1,4 °C 0,0 km/h (0 Bft)
16.01.2018 02:57 1,4 °C 83 % 1004,8 hPa 0,0 mm 0,0 km/h (0 Bft) S 183 ° 0 min 0,000 mm 0,0 UV-I 0 W/m² -1,2 °C 1,4 °C 0,0 km/h (0 Bft)
16.01.2018 02:58 1,4 °C 83 % 1004,8 hPa 0,0 mm 0,0 km/h (0 Bft) S 183 ° 0 min 0,000 mm 0,0 UV-I 0 W/m² -1,2 °C 1,4 °C 0,0 km/h (0 Bft)
16.01.2018 02:59 1,4 °C 83 % 1004,8 hPa 0,0 mm 0,0 km/h (0 Bft) S 183 ° 0 min 0,000 mm 0,0 UV-I 0 W/m² -1,2 °C 1,4 °C 0,0 km/h (0 Bft)
16.01.2018 03:00 1,4 °C 82 % 1004,8 hPa 0,0 mm 0,0 km/h (0 Bft) S 183 ° 0 min 0,000 mm 0,0 UV-I 0 W/m² -1,3 °C 1,4 °C 0,0 km/h (0 Bft)
16.01.2018 03:01 1,4 °C 83 % 1004,8 hPa 0,0 mm 0,0 km/h (0 Bft) S 183 ° 0 min 0,000 mm 0,0 UV-I 0 W/m² -1,2 °C 1,4 °C 0,0 km/h (0 Bft)
16.01.2018 03:02 1,4 °C 83 % 1004,8 hPa 0,0 mm 0,0 km/h (0 Bft) S 183 ° 0 min 0,000 mm 0,0 UV-I 0 W/m² -1,2 °C 1,4 °C 0,0 km/h (0 Bft)
16.01.2018 03:03 1,4 °C 83 % 1004,8 hPa 0,0 mm 0,0 km/h (0 Bft) S 183 ° 0 min 0,000 mm 0,0 UV-I 0 W/m² -1,2 °C 1,4 °C 0,0 km/h (0 Bft)
16.01.2018 03:04 1,4 °C 83 % 1004,7 hPa 0,0 mm 0,0 km/h (0 Bft) S 183 ° 0 min 0,000 mm 0,0 UV-I 0 W/m² -1,2 °C 1,4 °C 0,0 km/h (0 Bft)
16.01.2018 03:05 1,4 °C 83 % 1004,7 hPa 0,0 mm 0,0 km/h (0 Bft) S 183 ° 0 min 0,000 mm 0,0 UV-I 0 W/m² -1,2 °C 1,4 °C 0,0 km/h (0 Bft)
16.01.2018 03:06 1,4 °C 84 % 1004,8 hPa 0,0 mm 0,0 km/h (0 Bft) S 183 ° 0 min 0,000 mm 0,0 UV-I 0 W/m² -1,0 °C 1,4 °C 0,0 km/h (0 Bft)
16.01.2018 03:07 1,4 °C 84 % 1004,8 hPa 0,0 mm 0,0 km/h (0 Bft) S 183 ° 0 min 0,000 mm 0,0 UV-I 0 W/m² -1,0 °C 1,4 °C 0,0 km/h (0 Bft)
16.01.2018 03:08 1,4 °C 84 % 1004,8 hPa 0,0 mm 0,0 km/h (0 Bft) S 183 ° 0 min 0,000 mm 0,0 UV-I 0 W/m² -1,0 °C 1,4 °C 0,0 km/h (0 Bft)
16.01.2018 03:09 1,4 °C 84 % 1004,8 hPa 0,0 mm 0,0 km/h (0 Bft) S 183 ° 0 min 0,000 mm 0,0 UV-I 0 W/m² -1,0 °C 1,4 °C 0,0 km/h (0 Bft)
16.01.2018 03:10 1,4 °C 84 % 1004,7 hPa 0,0 mm 0,0 km/h (0 Bft) S 183 ° 0 min 0,000 mm 0,0 UV-I 0 W/m² -1,0 °C 1,4 °C 0,0 km/h (0 Bft)
16.01.2018 03:11 1,4 °C 84 % 1004,6 hPa 0,0 mm 0,0 km/h (0 Bft) S 183 ° 0 min 0,000 mm 0,0 UV-I 0 W/m² -1,0 °C 1,4 °C 0,0 km/h (0 Bft)
16.01.2018 03:12 1,5 °C 85 % 1004,7 hPa 0,0 mm 0,0 km/h (0 Bft) S 183 ° 0 min 0,000 mm 0,0 UV-I 0 W/m² -0,7 °C 1,5 °C 0,0 km/h (0 Bft)
16.01.2018 03:13 1,5 °C 85 % 1004,7 hPa 0,0 mm 0,0 km/h (0 Bft) S 183 ° 0 min 0,000 mm 0,0 UV-I 0 W/m² -0,7 °C 1,5 °C 0,0 km/h (0 Bft)
16.01.2018 03:14 1,5 °C 85 % 1004,6 hPa 0,0 mm 0,0 km/h (0 Bft) S 183 ° 0 min 0,000 mm 0,0 UV-I 0 W/m² -0,7 °C 1,5 °C 0,0 km/h (0 Bft)
16.01.2018 03:15 1,5 °C 85 % 1004,6 hPa 0,0 mm 0,0 km/h (0 Bft) S 183 ° 0 min 0,000 mm 0,0 UV-I 0 W/m² -0,7 °C 1,5 °C 0,0 km/h (0 Bft)
16.01.2018 03:16 1,5 °C 85 % 1004,6 hPa 0,0 mm 0,0 km/h (0 Bft) S 183 ° 0 min 0,000 mm 0,0 UV-I 0 W/m² -0,7 °C 1,5 °C 0,0 km/h (0 Bft)
16.01.2018 03:17 1,5 °C 85 % 1004,6 hPa 0,0 mm 0,0 km/h (0 Bft) S 183 ° 0 min 0,000 mm 0,0 UV-I 0 W/m² -0,7 °C 1,5 °C 0,0 km/h (0 Bft)
16.01.2018 03:18 1,6 °C 86 % 1004,6 hPa 0,0 mm 0,0 km/h (0 Bft) S 183 ° 0 min 0,000 mm 0,0 UV-I 0 W/m² -0,5 °C 1,6 °C 0,0 km/h (0 Bft)
16.01.2018 03:19 1,6 °C 86 % 1004,5 hPa 0,0 mm 0,0 km/h (0 Bft) S 183 ° 0 min 0,000 mm 0,0 UV-I 0 W/m² -0,5 °C 1,6 °C 0,0 km/h (0 Bft)
16.01.2018 03:20 1,6 °C 86 % 1004,5 hPa 0,0 mm 0,0 km/h (0 Bft) S 183 ° 0 min 0,000 mm 0,0 UV-I 0 W/m² -0,5 °C 1,6 °C 0,0 km/h (0 Bft)
16.01.2018 03:21 1,6 °C 86 % 1004,5 hPa 0,0 mm 0,0 km/h (0 Bft) S 183 ° 0 min 0,000 mm 0,0 UV-I 0 W/m² -0,5 °C 1,6 °C 0,0 km/h (0 Bft)
16.01.2018 03:22 1,6 °C 86 % 1004,5 hPa 0,0 mm 0,0 km/h (0 Bft) S 183 ° 0 min 0,000 mm 0,0 UV-I 0 W/m² -0,5 °C 1,6 °C 0,0 km/h (0 Bft)
16.01.2018 03:23 1,6 °C 86 % 1004,4 hPa 0,0 mm 0,0 km/h (0 Bft) S 183 ° 0 min 0,000 mm 0,0 UV-I 0 W/m² -0,5 °C 1,6 °C 0,0 km/h (0 Bft)
16.01.2018 03:24 1,6 °C 86 % 1004,4 hPa 0,0 mm 0,0 km/h (0 Bft) S 183 ° 0 min 0,000 mm 0,0 UV-I 0 W/m² -0,5 °C 1,6 °C 0,0 km/h (0 Bft)
16.01.2018 03:25 1,6 °C 86 % 1004,4 hPa 0,0 mm 0,0 km/h (0 Bft) S 183 ° 0 min 0,000 mm 0,0 UV-I 0 W/m² -0,5 °C 1,6 °C 0,0 km/h (0 Bft)
16.01.2018 03:26 1,6 °C 86 % 1004,4 hPa 0,0 mm 0,0 km/h (0 Bft) S 183 ° 0 min 0,000 mm 0,0 UV-I 0 W/m² -0,5 °C 1,6 °C 0,0 km/h (0 Bft)
16.01.2018 03:27 1,6 °C 86 % 1004,4 hPa 0,0 mm 0,0 km/h (0 Bft) S 183 ° 0 min 0,000 mm 0,0 UV-I 0 W/m² -0,5 °C 1,6 °C 0,0 km/h (0 Bft)
16.01.2018 03:28 1,6 °C 86 % 1004,4 hPa 0,0 mm 0,0 km/h (0 Bft) S 183 ° 0 min 0,000 mm 0,0 UV-I 0 W/m² -0,5 °C 1,6 °C 0,0 km/h (0 Bft)
16.01.2018 03:29 1,6 °C 86 % 1004,3 hPa 0,0 mm 0,0 km/h (0 Bft) S 183 ° 0 min 0,000 mm 0,0 UV-I 0 W/m² -0,5 °C 1,6 °C 0,0 km/h (0 Bft)
16.01.2018 03:30 1,6 °C 86 % 1004,3 hPa 0,0 mm 0,0 km/h (0 Bft) S 183 ° 0 min 0,000 mm 0,0 UV-I 0 W/m² -0,5 °C 1,6 °C 0,0 km/h (0 Bft)
16.01.2018 03:31 1,6 °C 86 % 1004,3 hPa 0,0 mm 0,0 km/h (0 Bft) S 183 ° 0 min 0,000 mm 0,0 UV-I 0 W/m² -0,5 °C 1,6 °C 0,0 km/h (0 Bft)
16.01.2018 03:32 1,6 °C 86 % 1004,3 hPa 0,0 mm 0,0 km/h (0 Bft) S 183 ° 0 min 0,000 mm 0,0 UV-I 0 W/m² -0,5 °C 1,6 °C 0,0 km/h (0 Bft)
16.01.2018 03:33 1,6 °C 86 % 1004,3 hPa 0,0 mm 0,0 km/h (0 Bft) S 183 ° 0 min 0,000 mm 0,0 UV-I 0 W/m² -0,5 °C 1,6 °C 0,0 km/h (0 Bft)
16.01.2018 03:34 1,6 °C 87 % 1004,3 hPa 0,0 mm 0,0 km/h (0 Bft) S 183 ° 0 min 0,000 mm 0,0 UV-I 0 W/m² -0,3 °C 1,6 °C 0,0 km/h (0 Bft)
16.01.2018 03:35 1,6 °C 87 % 1004,3 hPa 0,0 mm 0,0 km/h (0 Bft) S 190 ° 0 min 0,000 mm 0,0 UV-I 0 W/m² -0,3 °C 1,6 °C 0,0 km/h (0 Bft)
16.01.2018 03:36 1,6 °C 86 % 1004,4 hPa 0,0 mm 0,0 km/h (0 Bft) S 190 ° 0 min 0,000 mm 0,0 UV-I 0 W/m² -0,5 °C 1,6 °C 0,0 km/h (0 Bft)
16.01.2018 03:37 1,5 °C 86 % 1004,5 hPa 0,0 mm 0,0 km/h (0 Bft) S 190 ° 0 min 0,000 mm 0,0 UV-I 0 W/m² -0,6 °C 1,5 °C 0,0 km/h (0 Bft)
16.01.2018 03:38 1,5 °C 86 % 1004,5 hPa 0,0 mm 0,0 km/h (0 Bft) S 190 ° 0 min 0,000 mm 0,0 UV-I 0 W/m² -0,6 °C 1,5 °C 0,0 km/h (0 Bft)
16.01.2018 03:39 1,4 °C 85 % 1004,5 hPa 0,0 mm 0,0 km/h (0 Bft) S 190 ° 0 min 0,000 mm 0,0 UV-I 0 W/m² -0,8 °C 1,4 °C 0,0 km/h (0 Bft)
16.01.2018 03:40 1,4 °C 86 % 1004,5 hPa 0,0 mm 0,0 km/h (0 Bft) S 190 ° 0 min 0,000 mm 0,0 UV-I 0 W/m² -0,7 °C 1,4 °C 0,0 km/h (0 Bft)
16.01.2018 03:41 1,4 °C 85 % 1004,4 hPa 0,0 mm 0,0 km/h (0 Bft) S 190 ° 0 min 0,000 mm 0,0 UV-I 0 W/m² -0,8 °C 1,4 °C 0,0 km/h (0 Bft)
16.01.2018 03:42 1,4 °C 86 % 1004,5 hPa 0,0 mm 0,0 km/h (0 Bft) S 190 ° 0 min 0,000 mm 0,0 UV-I 0 W/m² -0,7 °C 1,4 °C 0,0 km/h (0 Bft)
16.01.2018 03:43 1,4 °C 86 % 1004,5 hPa 0,0 mm 0,0 km/h (0 Bft) S 190 ° 0 min 0,000 mm 0,0 UV-I 0 W/m² -0,7 °C 1,4 °C 0,0 km/h (0 Bft)
16.01.2018 03:44 1,4 °C 86 % 1004,3 hPa 0,0 mm 0,0 km/h (0 Bft) S 190 ° 0 min 0,000 mm 0,0 UV-I 0 W/m² -0,7 °C 1,4 °C 0,0 km/h (0 Bft)
16.01.2018 03:45 1,4 °C 86 % 1004,4 hPa 0,0 mm 0,0 km/h (0 Bft) S 190 ° 0 min 0,000 mm 0,0 UV-I 0 W/m² -0,7 °C 1,4 °C 0,0 km/h (0 Bft)
16.01.2018 03:46 1,4 °C 86 % 1004,3 hPa 0,0 mm 0,0 km/h (0 Bft) S 190 ° 0 min 0,000 mm 0,0 UV-I 0 W/m² -0,7 °C 1,4 °C 0,0 km/h (0 Bft)
16.01.2018 03:47 1,4 °C 87 % 1004,4 hPa 0,0 mm 0,0 km/h (0 Bft) S 190 ° 0 min 0,000 mm 0,0 UV-I 0 W/m² -0,5 °C 1,4 °C 0,0 km/h (0 Bft)
16.01.2018 03:48 1,4 °C 87 % 1004,3 hPa 0,0 mm 0,0 km/h (0 Bft) S 190 ° 0 min 0,000 mm 0,0 UV-I 0 W/m² -0,5 °C 1,4 °C 0,0 km/h (0 Bft)
16.01.2018 03:49 1,4 °C 87 % 1004,3 hPa 0,0 mm 0,0 km/h (0 Bft) S 190 ° 0 min 0,000 mm 0,0 UV-I 0 W/m² -0,5 °C 1,4 °C 0,0 km/h (0 Bft)
16.01.2018 03:50 1,4 °C 88 % 1004,2 hPa 0,0 mm 0,0 km/h (0 Bft) S 190 ° 0 min 0,000 mm 0,0 UV-I 0 W/m² -0,4 °C 1,4 °C 0,0 km/h (0 Bft)
16.01.2018 03:51 1,4 °C 88 % 1004,2 hPa 0,0 mm 0,0 km/h (0 Bft) S 190 ° 0 min 0,000 mm 0,0 UV-I 0 W/m² -0,4 °C 1,4 °C 0,0 km/h (0 Bft)
16.01.2018 03:52 1,4 °C 88 % 1004,2 hPa 0,0 mm 2,3 km/h (1 Bft) NW 322 ° 0 min 0,000 mm 0,0 UV-I 0 W/m² -0,4 °C 1,4 °C 6,4 km/h (2 Bft)
16.01.2018 03:53 1,4 °C 88 % 1004,2 hPa 0,0 mm 3,8 km/h (1 Bft) NW 321 ° 0 min 0,000 mm 0,0 UV-I 0 W/m² -0,4 °C 1,4 °C 6,4 km/h (2 Bft)
16.01.2018 03:54 1,4 °C 88 % 1004,2 hPa 0,0 mm 0,9 km/h (0 Bft) W-NW 290 ° 0 min 0,000 mm 0,0 UV-I 0 W/m² -0,4 °C 1,4 °C 3,2 km/h (1 Bft)
16.01.2018 03:55 1,4 °C 88 % 1004,3 hPa 0,0 mm 3,9 km/h (1 Bft) SW 217 ° 0 min 0,000 mm 0,0 UV-I 0 W/m² -0,4 °C 1,4 °C 4,8 km/h (1 Bft)
16.01.2018 03:56 1,4 °C 88 % 1004,3 hPa 0,0 mm 2,5 km/h (1 Bft) SW 217 ° 0 min 0,000 mm 0,0 UV-I 0 W/m² -0,4 °C 1,4 °C 4,8 km/h (1 Bft)
16.01.2018 03:57 1,4 °C 88 % 1004,3 hPa 0,0 mm 0,0 km/h (0 Bft) SW 217 ° 0 min 0,000 mm 0,0 UV-I 0 W/m² -0,4 °C 1,4 °C 0,0 km/h (0 Bft)
16.01.2018 03:58 1,4 °C 88 % 1004,2 hPa 0,0 mm 0,0 km/h (0 Bft) SW 217 ° 0 min 0,000 mm 0,0 UV-I 0 W/m² -0,4 °C 1,4 °C 0,0 km/h (0 Bft)
16.01.2018 03:59 1,3 °C 88 % 1004,1 hPa 0,0 mm 0,0 km/h (0 Bft) SW 217 ° 0 min 0,000 mm 0,0 UV-I 0 W/m² -0,5 °C 1,3 °C 0,0 km/h (0 Bft)
16.01.2018 04:00 1,4 °C 88 % 1004,1 hPa 0,0 mm 0,0 km/h (0 Bft) SW 217 ° 0 min 0,000 mm 0,0 UV-I 0 W/m² -0,4 °C 1,4 °C 0,0 km/h (0 Bft)
16.01.2018 04:01 1,4 °C 88 % 1004,1 hPa 0,0 mm 0,0 km/h (0 Bft) SW 217 ° 0 min 0,000 mm 0,0 UV-I 0 W/m² -0,4 °C 1,4 °C 0,0 km/h (0 Bft)
16.01.2018 04:02 1,3 °C 88 % 1004,2 hPa 0,0 mm 0,0 km/h (0 Bft) SW 217 ° 0 min 0,000 mm 0,0 UV-I 0 W/m² -0,5 °C 1,3 °C 0,0 km/h (0 Bft)
16.01.2018 04:03 1,3 °C 88 % 1004,3 hPa 0,0 mm 3,3 km/h (1 Bft) W 267 ° 0 min 0,000 mm 0,0 UV-I 0 W/m² -0,5 °C 1,3 °C 4,8 km/h (1 Bft)
16.01.2018 04:04 1,3 °C 88 % 1004,3 hPa 0,0 mm 0,4 km/h (0 Bft) W 267 ° 0 min 0,000 mm 0,0 UV-I 0 W/m² -0,5 °C 1,3 °C 1,6 km/h (1 Bft)
16.01.2018 04:05 1,3 °C 88 % 1004,2 hPa 0,0 mm 0,6 km/h (0 Bft) W-SW 254 ° 0 min 0,000 mm 0,0 UV-I 0 W/m² -0,5 °C 1,3 °C 3,2 km/h (1 Bft)
16.01.2018 04:06 1,3 °C 88 % 1004,2 hPa 0,0 mm 1,7 km/h (1 Bft) W-SW 252 ° 0 min 0,000 mm 0,0 UV-I 0 W/m² -0,5 °C 1,3 °C 3,2 km/h (1 Bft)
16.01.2018 04:07 1,3 °C 88 % 1004,1 hPa 0,0 mm 0,6 km/h (0 Bft) W-SW 252 ° 0 min 0,000 mm 0,0 UV-I 0 W/m² -0,5 °C 1,3 °C 1,6 km/h (1 Bft)
16.01.2018 04:08 1,3 °C 88 % 1004,2 hPa 0,0 mm 0,0 km/h (0 Bft) W-SW 252 ° 0 min 0,000 mm 0,0 UV-I 0 W/m² -0,5 °C 1,3 °C 0,0 km/h (0 Bft)
16.01.2018 04:09 1,3 °C 88 % 1004,3 hPa 0,0 mm 0,0 km/h (0 Bft) W-SW 252 ° 0 min 0,000 mm 0,0 UV-I 0 W/m² -0,5 °C 1,3 °C 0,0 km/h (0 Bft)
16.01.2018 04:10 1,3 °C 89 % 1004,2 hPa 0,0 mm 0,0 km/h (0 Bft) W-SW 252 ° 0 min 0,000 mm 0,0 UV-I 0 W/m² -0,3 °C 1,3 °C 0,0 km/h (0 Bft)
16.01.2018 04:11 1,3 °C 89 % 1004,1 hPa 0,0 mm 0,0 km/h (0 Bft) W-SW 252 ° 0 min 0,000 mm 0,0 UV-I 0 W/m² -0,3 °C 1,3 °C 0,0 km/h (0 Bft)
16.01.2018 04:12 1,3 °C 89 % 1004,1 hPa 0,0 mm 0,0 km/h (0 Bft) W-SW 252 ° 0 min 0,000 mm 0,0 UV-I 0 W/m² -0,3 °C 1,3 °C 0,0 km/h (0 Bft)
16.01.2018 04:13 1,3 °C 89 % 1004,1 hPa 0,0 mm 0,0 km/h (0 Bft) W-SW 252 ° 0 min 0,000 mm 0,0 UV-I 0 W/m² -0,3 °C 1,3 °C 0,0 km/h (0 Bft)
16.01.2018 04:14 1,3 °C 89 % 1004,2 hPa 0,0 mm 1,7 km/h (1 Bft) S 180 ° 0 min 0,000 mm 0,0 UV-I 0 W/m² -0,3 °C 1,3 °C 4,8 km/h (1 Bft)
16.01.2018 04:15 1,3 °C 89 % 1004,1 hPa 0,0 mm 3,4 km/h (1 Bft) S 173 ° 0 min 0,000 mm 0,0 UV-I 0 W/m² -0,3 °C 1,3 °C 8,0 km/h (2 Bft)
16.01.2018 04:16 1,4 °C 89 % 1004,2 hPa 0,0 mm 0,7 km/h (0 Bft) S 173 ° 0 min 0,000 mm 0,0 UV-I 0 W/m² -0,2 °C 1,4 °C 1,6 km/h (1 Bft)
16.01.2018 04:17 1,4 °C 89 % 1004,2 hPa 0,0 mm 0,3 km/h (0 Bft) S 173 ° 0 min 0,000 mm 0,0 UV-I 0 W/m² -0,2 °C 1,4 °C 3,2 km/h (1 Bft)
16.01.2018 04:18 1,4 °C 89 % 1004,3 hPa 0,0 mm 2,7 km/h (1 Bft) S 173 ° 0 min 0,000 mm 0,0 UV-I 0 W/m² -0,2 °C 1,4 °C 4,8 km/h (1 Bft)
16.01.2018 04:19 1,4 °C 90 % 1004,1 hPa 0,0 mm 2,5 km/h (1 Bft) S 171 ° 0 min 0,000 mm 0,0 UV-I 0 W/m² -0,1 °C 1,4 °C 8,0 km/h (2 Bft)
16.01.2018 04:20 1,4 °C 90 % 1004,2 hPa 0,0 mm 1,3 km/h (1 Bft) S 171 ° 0 min 0,000 mm 0,0 UV-I 0 W/m² -0,1 °C 1,4 °C 3,2 km/h (1 Bft)
16.01.2018 04:21 1,5 °C 90 % 1004,2 hPa 0,0 mm 1,9 km/h (1 Bft) S 171 ° 0 min 0,000 mm 0,0 UV-I 0 W/m² 0,0 °C 1,5 °C 3,2 km/h (1 Bft)
16.01.2018 04:22 1,5 °C 90 % 1004,1 hPa 0,0 mm 0,0 km/h (0 Bft) S 171 ° 0 min 0,000 mm 0,0 UV-I 0 W/m² 0,0 °C 1,5 °C 0,0 km/h (0 Bft)
16.01.2018 04:23 1,5 °C 90 % 1004,1 hPa 0,0 mm 0,0 km/h (0 Bft) S 171 ° 0 min 0,000 mm 0,0 UV-I 0 W/m² 0,0 °C 1,5 °C 0,0 km/h (0 Bft)
16.01.2018 04:24 1,6 °C 90 % 1004,1 hPa 0,0 mm 0,0 km/h (0 Bft) S 171 ° 0 min 0,000 mm 0,0 UV-I 0 W/m² 0,1 °C 1,6 °C 0,0 km/h (0 Bft)
16.01.2018 04:25 1,6 °C 90 % 1004,1 hPa 0,0 mm 0,0 km/h (0 Bft) S 171 ° 0 min 0,000 mm 0,0 UV-I 0 W/m² 0,1 °C 1,6 °C 0,0 km/h (0 Bft)
16.01.2018 04:26 1,6 °C 90 % 1004,0 hPa 0,0 mm 0,2 km/h (0 Bft) S 171 ° 0 min 0,000 mm 0,0 UV-I 0 W/m² 0,1 °C 1,6 °C 1,6 km/h (1 Bft)
16.01.2018 04:27 1,5 °C 90 % 1004,1 hPa 0,0 mm 2,1 km/h (1 Bft) SW 218 ° 0 min 0,000 mm 0,0 UV-I 0 W/m² 0,0 °C 1,5 °C 3,2 km/h (1 Bft)
16.01.2018 04:28 1,6 °C 90 % 1004,1 hPa 0,0 mm 0,3 km/h (0 Bft) SW 218 ° 0 min 0,000 mm 0,0 UV-I 0 W/m² 0,1 °C 1,6 °C 1,6 km/h (1 Bft)
16.01.2018 04:29 1,6 °C 90 % 1004,0 hPa 0,0 mm 0,0 km/h (0 Bft) SW 218 ° 0 min 0,000 mm 0,0 UV-I 0 W/m² 0,1 °C 1,6 °C 0,0 km/h (0 Bft)
16.01.2018 04:30 1,6 °C 90 % 1004,1 hPa 0,0 mm 0,0 km/h (0 Bft) SW 218 ° 0 min 0,000 mm 0,0 UV-I 0 W/m² 0,1 °C 1,6 °C 0,0 km/h (0 Bft)
16.01.2018 04:31 1,6 °C 89 % 1004,0 hPa 0,0 mm 0,0 km/h (0 Bft) SW 218 ° 0 min 0,000 mm 0,0 UV-I 0 W/m² -0,0 °C 1,6 °C 0,0 km/h (0 Bft)
16.01.2018 04:32 1,6 °C 89 % 1004,0 hPa 0,0 mm 0,3 km/h (0 Bft) SW 218 ° 0 min 0,000 mm 0,0 UV-I 0 W/m² -0,0 °C 1,6 °C 1,6 km/h (1 Bft)
16.01.2018 04:33 1,6 °C 89 % 1004,1 hPa 0,0 mm 1,3 km/h (1 Bft) SW 218 ° 0 min 0,000 mm 0,0 UV-I 0 W/m² -0,0 °C 1,6 °C 1,6 km/h (1 Bft)
16.01.2018 04:34 1,6 °C 89 % 1004,1 hPa 0,0 mm 0,3 km/h (0 Bft) SW 218 ° 0 min 0,000 mm 0,0 UV-I 0 W/m² -0,0 °C 1,6 °C 1,6 km/h (1 Bft)
16.01.2018 04:35 1,6 °C 89 % 1004,1 hPa 0,0 mm 0,0 km/h (0 Bft) SW 218 ° 0 min 0,000 mm 0,0 UV-I 0 W/m² -0,0 °C 1,6 °C 0,0 km/h (0 Bft)
16.01.2018 04:36 1,5 °C 89 % 1004,1 hPa 0,0 mm 0,0 km/h (0 Bft) SW 218 ° 0 min 0,000 mm 0,0 UV-I 0 W/m² -0,1 °C 1,5 °C 0,0 km/h (0 Bft)
16.01.2018 04:37 1,5 °C 89 % 1004,2 hPa 0,0 mm 0,7 km/h (0 Bft) SW 218 ° 0 min 0,000 mm 0,0 UV-I 0 W/m² -0,1 °C 1,5 °C 1,6 km/h (1 Bft)
16.01.2018 04:38 1,5 °C 89 % 1004,1 hPa 0,0 mm 0,0 km/h (0 Bft) SW 218 ° 0 min 0,000 mm 0,0 UV-I 0 W/m² -0,1 °C 1,5 °C 0,0 km/h (0 Bft)
16.01.2018 04:39 1,5 °C 89 % 1004,1 hPa 0,2 mm 0,1 km/h (0 Bft) SW 218 ° 0 min 0,000 mm 0,0 UV-I 0 W/m² -0,1 °C 1,5 °C 1,6 km/h (1 Bft)
16.01.2018 04:40 1,6 °C 90 % 1003,9 hPa 0,0 mm 1,8 km/h (1 Bft) S 175 ° 0 min 0,000 mm 0,0 UV-I 0 W/m² 0,1 °C 1,6 °C 3,2 km/h (1 Bft)
16.01.2018 04:41 1,6 °C 90 % 1003,9 hPa 0,0 mm 4,1 km/h (1 Bft) O-SO 116 ° 0 min 0,000 mm 0,0 UV-I 0 W/m² 0,1 °C 1,6 °C 9,7 km/h (2 Bft)
16.01.2018 04:42 1,6 °C 90 % 1003,9 hPa 0,0 mm 1,0 km/h (0 Bft) S-SO 158 ° 0 min 0,000 mm 0,0 UV-I 0 W/m² 0,1 °C 1,6 °C 3,2 km/h (1 Bft)
16.01.2018 04:43 1,6 °C 90 % 1004,0 hPa 0,0 mm 4,2 km/h (1 Bft) S-SO 163 ° 0 min 0,000 mm 0,0 UV-I 0 W/m² 0,1 °C 1,6 °C 6,4 km/h (2 Bft)
16.01.2018 04:44 1,6 °C 90 % 1004,1 hPa 0,0 mm 3,5 km/h (1 Bft) S-SO 163 ° 0 min 0,000 mm 0,0 UV-I 0 W/m² 0,1 °C 1,6 °C 6,4 km/h (2 Bft)
16.01.2018 04:45 1,6 °C 90 % 1004,1 hPa 0,0 mm 1,0 km/h (0 Bft) S-SO 163 ° 0 min 0,000 mm 0,0 UV-I 0 W/m² 0,1 °C 1,6 °C 1,6 km/h (1 Bft)
16.01.2018 04:46 1,6 °C 90 % 1004,1 hPa 0,0 mm 0,8 km/h (0 Bft) S-SO 163 ° 0 min 0,000 mm 0,0 UV-I 0 W/m² 0,1 °C 1,6 °C 1,6 km/h (1 Bft)
16.01.2018 04:47 1,6 °C 90 % 1004,3 hPa 0,0 mm 0,8 km/h (0 Bft) S-SO 163 ° 0 min 0,000 mm 0,0 UV-I 0 W/m² 0,1 °C 1,6 °C 1,6 km/h (1 Bft)
16.01.2018 04:48 1,6 °C 90 % 1004,2 hPa 0,0 mm 0,9 km/h (0 Bft) S-SO 163 ° 0 min 0,000 mm 0,0 UV-I 0 W/m² 0,1 °C 1,6 °C 1,6 km/h (1 Bft)
16.01.2018 04:49 1,6 °C 90 % 1004,2 hPa 0,0 mm 0,0 km/h (0 Bft) S-SO 163 ° 0 min 0,000 mm 0,0 UV-I 0 W/m² 0,1 °C 1,6 °C 0,0 km/h (0 Bft)
16.01.2018 04:50 1,6 °C 90 % 1004,2 hPa 0,0 mm 0,4 km/h (0 Bft) S-SO 163 ° 0 min 0,000 mm 0,0 UV-I 0 W/m² 0,1 °C 1,6 °C 1,6 km/h (1 Bft)
16.01.2018 04:51 1,6 °C 90 % 1004,0 hPa 0,0 mm 0,0 km/h (0 Bft) S-SO 163 ° 0 min 0,000 mm 0,0 UV-I 0 W/m² 0,1 °C 1,6 °C 0,0 km/h (0 Bft)
16.01.2018 04:52 1,6 °C 90 % 1004,1 hPa 0,0 mm 0,0 km/h (0 Bft) S-SO 163 ° 0 min 0,000 mm 0,0 UV-I 0 W/m² 0,1 °C 1,6 °C 0,0 km/h (0 Bft)
16.01.2018 04:53 1,6 °C 90 % 1004,1 hPa 0,0 mm 0,0 km/h (0 Bft) S-SO 163 ° 0 min 0,000 mm 0,0 UV-I 0 W/m² 0,1 °C 1,6 °C 0,0 km/h (0 Bft)
16.01.2018 04:54 1,6 °C 90 % 1004,1 hPa 0,0 mm 0,0 km/h (0 Bft) S-SO 163 ° 0 min 0,000 mm 0,0 UV-I 0 W/m² 0,1 °C 1,6 °C 0,0 km/h (0 Bft)
16.01.2018 04:55 1,6 °C 90 % 1004,0 hPa 0,0 mm 0,0 km/h (0 Bft) S-SO 163 ° 0 min 0,000 mm 0,0 UV-I 0 W/m² 0,1 °C 1,6 °C 0,0 km/h (0 Bft)
16.01.2018 04:56 1,6 °C 90 % 1003,9 hPa 0,0 mm 0,0 km/h (0 Bft) S-SO 163 ° 0 min 0,000 mm 0,0 UV-I 0 W/m² 0,1 °C 1,6 °C 0,0 km/h (0 Bft)
16.01.2018 04:57 1,6 °C 90 % 1004,0 hPa 0,0 mm 0,0 km/h (0 Bft) S-SO 163 ° 0 min 0,000 mm 0,0 UV-I 0 W/m² 0,1 °C 1,6 °C 0,0 km/h (0 Bft)
16.01.2018 04:58 1,6 °C 90 % 1003,9 hPa 0,0 mm 0,0 km/h (0 Bft) S-SO 163 ° 0 min 0,000 mm 0,0 UV-I 0 W/m² 0,1 °C 1,6 °C 0,0 km/h (0 Bft)
16.01.2018 04:59 1,6 °C 90 % 1003,9 hPa 0,0 mm 0,0 km/h (0 Bft) S-SO 163 ° 0 min 0,000 mm 0,0 UV-I 0 W/m² 0,1 °C 1,6 °C 0,0 km/h (0 Bft)
16.01.2018 05:00 1,6 °C 90 % 1003,9 hPa 0,0 mm 0,0 km/h (0 Bft) S-SO 163 ° 0 min 0,000 mm 0,0 UV-I 0 W/m² 0,1 °C 1,6 °C 0,0 km/h (0 Bft)
16.01.2018 05:01 1,6 °C 90 % 1003,9 hPa 0,0 mm 0,0 km/h (0 Bft) S-SO 163 ° 0 min 0,000 mm 0,0 UV-I 0 W/m² 0,1 °C 1,6 °C 0,0 km/h (0 Bft)
16.01.2018 05:02 1,6 °C 90 % 1003,8 hPa 0,0 mm 0,0 km/h (0 Bft) S-SO 163 ° 0 min 0,000 mm 0,0 UV-I 0 W/m² 0,1 °C 1,6 °C 0,0 km/h (0 Bft)
16.01.2018 05:03 1,6 °C 90 % 1003,7 hPa 0,0 mm 0,0 km/h (0 Bft) S-SO 163 ° 0 min 0,000 mm 0,0 UV-I 0 W/m² 0,1 °C 1,6 °C 0,0 km/h (0 Bft)
16.01.2018 05:04 1,6 °C 90 % 1003,7 hPa 0,0 mm 0,0 km/h (0 Bft) S-SO 163 ° 0 min 0,000 mm 0,0 UV-I 0 W/m² 0,1 °C 1,6 °C 0,0 km/h (0 Bft)
16.01.2018 05:05 1,6 °C 90 % 1003,7 hPa 0,0 mm 0,0 km/h (0 Bft) S-SO 163 ° 0 min 0,000 mm 0,0 UV-I 0 W/m² 0,1 °C 1,6 °C 0,0 km/h (0 Bft)
16.01.2018 05:06 1,6 °C 90 % 1003,7 hPa 0,0 mm 0,0 km/h (0 Bft) S-SO 163 ° 0 min 0,000 mm 0,0 UV-I 0 W/m² 0,1 °C 1,6 °C 0,0 km/h (0 Bft)
16.01.2018 05:07 1,6 °C 90 % 1003,7 hPa 0,0 mm 0,0 km/h (0 Bft) S-SO 163 ° 0 min 0,000 mm 0,0 UV-I 0 W/m² 0,1 °C 1,6 °C 0,0 km/h (0 Bft)
16.01.2018 05:08 1,6 °C 90 % 1003,7 hPa 0,0 mm 0,0 km/h (0 Bft) S-SO 163 ° 0 min 0,000 mm 0,0 UV-I 0 W/m² 0,1 °C 1,6 °C 0,0 km/h (0 Bft)
16.01.2018 05:09 1,6 °C 90 % 1003,8 hPa 0,0 mm 0,0 km/h (0 Bft) S-SO 163 ° 0 min 0,000 mm 0,0 UV-I 0 W/m² 0,1 °C 1,6 °C 0,0 km/h (0 Bft)
16.01.2018 05:10 1,6 °C 90 % 1003,8 hPa 0,0 mm 0,0 km/h (0 Bft) S-SO 163 ° 0 min 0,000 mm 0,0 UV-I 0 W/m² 0,1 °C 1,6 °C 0,0 km/h (0 Bft)
16.01.2018 05:11 1,6 °C 90 % 1003,8 hPa 0,0 mm 0,0 km/h (0 Bft) S-SO 163 ° 0 min 0,000 mm 0,0 UV-I 0 W/m² 0,1 °C 1,6 °C 0,0 km/h (0 Bft)
16.01.2018 05:12 1,6 °C 90 % 1003,9 hPa 0,0 mm 0,0 km/h (0 Bft) S-SO 163 ° 0 min 0,000 mm 0,0 UV-I 0 W/m² 0,1 °C 1,6 °C 0,0 km/h (0 Bft)
16.01.2018 05:13 1,6 °C 90 % 1003,8 hPa 0,0 mm 0,0 km/h (0 Bft) S-SO 163 ° 0 min 0,000 mm 0,0 UV-I 0 W/m² 0,1 °C 1,6 °C 0,0 km/h (0 Bft)
16.01.2018 05:14 1,5 °C 90 % 1003,8 hPa 0,0 mm 0,0 km/h (0 Bft) S-SO 163 ° 0 min 0,000 mm 0,0 UV-I 0 W/m² 0,0 °C 1,5 °C 0,0 km/h (0 Bft)
16.01.2018 05:15 1,6 °C 90 % 1003,7 hPa 0,0 mm 0,0 km/h (0 Bft) S-SO 163 ° 0 min 0,000 mm 0,0 UV-I 0 W/m² 0,1 °C 1,6 °C 0,0 km/h (0 Bft)
16.01.2018 05:16 1,6 °C 90 % 1003,7 hPa 0,0 mm 0,0 km/h (0 Bft) S-SO 163 ° 0 min 0,000 mm 0,0 UV-I 0 W/m² 0,1 °C 1,6 °C 0,0 km/h (0 Bft)
16.01.2018 05:17 1,5 °C 90 % 1003,7 hPa 0,0 mm 0,0 km/h (0 Bft) S-SO 163 ° 0 min 0,000 mm 0,0 UV-I 0 W/m² 0,0 °C 1,5 °C 0,0 km/h (0 Bft)
16.01.2018 05:18 1,4 °C 90 % 1003,6 hPa 0,0 mm 0,5 km/h (0 Bft) S-SO 163 ° 0 min 0,000 mm 0,0 UV-I 0 W/m² -0,1 °C 1,4 °C 3,2 km/h (1 Bft)
16.01.2018 05:19 1,4 °C 90 % 1003,6 hPa 0,0 mm 4,1 km/h (1 Bft) W-SW 250 ° 0 min 0,000 mm 0,0 UV-I 0 W/m² -0,1 °C 1,4 °C 6,4 km/h (2 Bft)
16.01.2018 05:20 1,4 °C 90 % 1003,6 hPa 0,0 mm 2,1 km/h (1 Bft) W-SW 250 ° 0 min 0,000 mm 0,0 UV-I 0 W/m² -0,1 °C 1,4 °C 3,2 km/h (1 Bft)
16.01.2018 05:21 1,4 °C 90 % 1003,6 hPa 0,0 mm 2,6 km/h (1 Bft) W-SW 250 ° 0 min 0,000 mm 0,0 UV-I 0 W/m² -0,1 °C 1,4 °C 4,8 km/h (1 Bft)
16.01.2018 05:22 1,5 °C 90 % 1003,5 hPa 0,0 mm 2,4 km/h (1 Bft) W-SW 250 ° 0 min 0,000 mm 0,0 UV-I 0 W/m² 0,0 °C 1,5 °C 3,2 km/h (1 Bft)
16.01.2018 05:23 1,5 °C 90 % 1003,5 hPa 0,0 mm 2,3 km/h (1 Bft) W-SW 250 ° 0 min 0,000 mm 0,0 UV-I 0 W/m² 0,0 °C 1,5 °C 4,8 km/h (1 Bft)
16.01.2018 05:24 1,6 °C 90 % 1003,6 hPa 0,0 mm 4,2 km/h (1 Bft) W-SW 257 ° 0 min 0,000 mm 0,0 UV-I 0 W/m² 0,1 °C 1,6 °C 4,8 km/h (1 Bft)
16.01.2018 05:25 1,6 °C 90 % 1003,7 hPa 0,0 mm 6,8 km/h (2 Bft) W 267 ° 0 min 0,000 mm 0,0 UV-I 0 W/m² 0,1 °C -0,5 °C 9,7 km/h (2 Bft)
16.01.2018 05:26 1,6 °C 90 % 1003,6 hPa 0,0 mm 6,8 km/h (2 Bft) W-SW 251 ° 0 min 0,000 mm 0,0 UV-I 0 W/m² 0,1 °C -0,5 °C 9,7 km/h (2 Bft)
16.01.2018 05:27 1,7 °C 91 % 1003,7 hPa 0,0 mm 6,4 km/h (2 Bft) W 264 ° 0 min 0,000 mm 0,0 UV-I 0 W/m² 0,4 °C -0,2 °C 12,9 km/h (3 Bft)
16.01.2018 05:28 1,7 °C 91 % 1003,6 hPa 0,0 mm 7,0 km/h (2 Bft) SW 223 ° 0 min 0,000 mm 0,0 UV-I 0 W/m² 0,4 °C -0,4 °C 12,9 km/h (3 Bft)
16.01.2018 05:29 1,8 °C 91 % 1003,5 hPa 0,0 mm 5,4 km/h (1 Bft) SW 227 ° 0 min 0,000 mm 0,0 UV-I 0 W/m² 0,5 °C 0,3 °C 11,3 km/h (2 Bft)
16.01.2018 05:30 1,8 °C 91 % 1003,5 hPa 0,0 mm 4,0 km/h (1 Bft) W 259 ° 0 min 0,000 mm 0,0 UV-I 0 W/m² 0,5 °C 1,8 °C 4,8 km/h (1 Bft)
16.01.2018 05:31 1,9 °C 91 % 1003,5 hPa 0,0 mm 6,8 km/h (2 Bft) W-SW 257 ° 0 min 0,000 mm 0,0 UV-I 0 W/m² 0,6 °C -0,1 °C 12,9 km/h (3 Bft)
16.01.2018 05:32 2,0 °C 91 % 1003,5 hPa 0,0 mm 8,0 km/h (2 Bft) W-SW 257 ° 0 min 0,000 mm 0,0 UV-I 0 W/m² 0,7 °C -0,4 °C 12,9 km/h (3 Bft)
16.01.2018 05:33 2,1 °C 91 % 1003,5 hPa 0,0 mm 5,0 km/h (1 Bft) SW 230 ° 0 min 0,000 mm 0,0 UV-I 0 W/m² 0,8 °C 0,8 °C 11,3 km/h (2 Bft)
16.01.2018 05:34 2,2 °C 91 % 1003,6 hPa 0,0 mm 5,8 km/h (2 Bft) W 260 ° 0 min 0,000 mm 0,0 UV-I 0 W/m² 0,9 °C 0,6 °C 9,7 km/h (2 Bft)
16.01.2018 05:35 2,2 °C 91 % 1003,6 hPa 0,0 mm 13,1 km/h (3 Bft) W 267 ° 0 min 0,000 mm 0,0 UV-I 0 W/m² 0,9 °C -1,4 °C 16,1 km/h (3 Bft)
16.01.2018 05:36 2,3 °C 91 % 1003,5 hPa 0,0 mm 7,6 km/h (2 Bft) W 265 ° 0 min 0,000 mm 0,0 UV-I 0 W/m² 1,0 °C 0,1 °C 11,3 km/h (2 Bft)
16.01.2018 05:37 2,3 °C 90 % 1003,4 hPa 0,0 mm 8,7 km/h (2 Bft) W 263 ° 0 min 0,000 mm 0,0 UV-I 0 W/m² 0,8 °C -0,2 °C 12,9 km/h (3 Bft)
16.01.2018 05:38 2,4 °C 90 % 1003,5 hPa 0,0 mm 9,5 km/h (2 Bft) W 266 ° 0 min 0,000 mm 0,0 UV-I 0 W/m² 0,9 °C -0,3 °C 16,1 km/h (3 Bft)
16.01.2018 05:39 2,5 °C 90 % 1003,3 hPa 0,0 mm 6,1 km/h (2 Bft) W-SW 257 ° 0 min 0,000 mm 0,0 UV-I 0 W/m² 1,0 °C 0,8 °C 11,3 km/h (2 Bft)
16.01.2018 05:40 2,6 °C 90 % 1003,4 hPa 0,0 mm 5,0 km/h (1 Bft) SW 226 ° 0 min 0,000 mm 0,0 UV-I 0 W/m² 1,1 °C 1,4 °C 8,0 km/h (2 Bft)
16.01.2018 05:41 2,7 °C 90 % 1003,3 hPa 0,0 mm 5,6 km/h (1 Bft) W-SW 248 ° 0 min 0,000 mm 0,0 UV-I 0 W/m² 1,2 °C 1,2 °C 11,3 km/h (2 Bft)
16.01.2018 05:42 2,7 °C 89 % 1003,2 hPa 0,0 mm 7,9 km/h (2 Bft) S-SW 202 ° 0 min 0,000 mm 0,0 UV-I 0 W/m² 1,1 °C 0,5 °C 14,5 km/h (3 Bft)
16.01.2018 05:43 2,8 °C 89 % 1003,2 hPa 0,0 mm 7,9 km/h (2 Bft) W 271 ° 0 min 0,000 mm 0,0 UV-I 0 W/m² 1,2 °C 0,6 °C 12,9 km/h (3 Bft)
16.01.2018 05:44 2,8 °C 89 % 1003,2 hPa 0,0 mm 9,1 km/h (2 Bft) NW 316 ° 0 min 0,000 mm 0,0 UV-I 0 W/m² 1,2 °C 0,3 °C 14,5 km/h (3 Bft)
16.01.2018 05:45 2,9 °C 89 % 1003,1 hPa 0,0 mm 16,2 km/h (3 Bft) W 278 ° 0 min 0,000 mm 0,0 UV-I 0 W/m² 1,3 °C -1,0 °C 25,7 km/h (4 Bft)
16.01.2018 05:46 3,0 °C 89 % 1003,1 hPa 0,0 mm 11,7 km/h (2 Bft) W-SW 247 ° 0 min 0,000 mm 0,0 UV-I 0 W/m² 1,4 °C -0,1 °C 20,9 km/h (4 Bft)
16.01.2018 05:47 3,1 °C 88 % 1003,1 hPa 0,0 mm 15,5 km/h (3 Bft) W-SW 252 ° 0 min 0,000 mm 0,0 UV-I 0 W/m² 1,3 °C -0,7 °C 22,5 km/h (4 Bft)
16.01.2018 05:48 3,1 °C 88 % 1003,1 hPa 0,0 mm 9,5 km/h (2 Bft) W 262 ° 0 min 0,000 mm 0,0 UV-I 0 W/m² 1,3 °C 0,5 °C 14,5 km/h (3 Bft)
16.01.2018 05:49 3,2 °C 88 % 1003,0 hPa 0,0 mm 11,9 km/h (2 Bft) W 278 ° 0 min 0,000 mm 0,0 UV-I 0 W/m² 1,4 °C 0,1 °C 17,7 km/h (3 Bft)
16.01.2018 05:50 3,2 °C 88 % 1003,0 hPa 0,0 mm 13,9 km/h (3 Bft) W 269 ° 0 min 0,000 mm 0,0 UV-I 0 W/m² 1,4 °C -0,3 °C 19,3 km/h (3 Bft)
16.01.2018 05:51 3,3 °C 87 % 1003,0 hPa 0,0 mm 12,1 km/h (2 Bft) W-SW 254 ° 0 min 0,000 mm 0,0 UV-I 0 W/m² 1,3 °C 0,2 °C 17,7 km/h (3 Bft)
16.01.2018 05:52 3,3 °C 87 % 1003,0 hPa 0,0 mm 11,0 km/h (2 Bft) W 274 ° 0 min 0,000 mm 0,0 UV-I 0 W/m² 1,3 °C 0,4 °C 12,9 km/h (3 Bft)
16.01.2018 05:53 3,3 °C 87 % 1003,1 hPa 0,0 mm 11,2 km/h (2 Bft) W 281 ° 0 min 0,000 mm 0,0 UV-I 0 W/m² 1,3 °C 0,4 °C 17,7 km/h (3 Bft)
16.01.2018 05:54 3,4 °C 87 % 1003,2 hPa 0,0 mm 8,0 km/h (2 Bft) W 261 ° 0 min 0,000 mm 0,0 UV-I 0 W/m² 1,4 °C 1,3 °C 11,3 km/h (2 Bft)
16.01.2018 05:55 3,4 °C 87 % 1003,0 hPa 0,0 mm 9,0 km/h (2 Bft) W 270 ° 0 min 0,000 mm 0,0 UV-I 0 W/m² 1,4 °C 1,0 °C 11,3 km/h (2 Bft)
16.01.2018 05:56 3,4 °C 87 % 1003,1 hPa 0,0 mm 7,8 km/h (2 Bft) W-SW 242 ° 0 min 0,000 mm 0,0 UV-I 0 W/m² 1,4 °C 1,3 °C 12,9 km/h (3 Bft)
16.01.2018 05:57 3,4 °C 87 % 1003,1 hPa 0,0 mm 5,8 km/h (2 Bft) W-SW 240 ° 0 min 0,000 mm 0,0 UV-I 0 W/m² 1,4 °C 2,0 °C 11,3 km/h (2 Bft)
16.01.2018 05:58 3,5 °C 86 % 1003,1 hPa 0,0 mm 6,6 km/h (2 Bft) W 268 ° 0 min 0,000 mm 0,0 UV-I 0 W/m² 1,4 °C 1,8 °C 9,7 km/h (2 Bft)
16.01.2018 05:59 3,5 °C 86 % 1003,1 hPa 0,0 mm 8,9 km/h (2 Bft) S-SW 200 ° 0 min 0,000 mm 0,0 UV-I 0 W/m² 1,4 °C 1,1 °C 12,9 km/h (3 Bft)
16.01.2018 06:00 3,5 °C 86 % 1003,1 hPa 0,0 mm 10,2 km/h (2 Bft) SW 236 ° 0 min 0,000 mm 0,0 UV-I 0 W/m² 1,4 °C 0,8 °C 16,1 km/h (3 Bft)
16.01.2018 06:01 3,6 °C 86 % 1003,0 hPa 0,0 mm 8,7 km/h (2 Bft) W 264 ° 0 min 0,000 mm 0,0 UV-I 0 W/m² 1,5 °C 1,3 °C 12,9 km/h (3 Bft)
16.01.2018 06:02 3,6 °C 86 % 1002,9 hPa 0,0 mm 7,6 km/h (2 Bft) W 265 ° 0 min 0,000 mm 0,0 UV-I 0 W/m² 1,5 °C 1,6 °C 14,5 km/h (3 Bft)
16.01.2018 06:03 3,6 °C 86 % 1002,8 hPa 0,0 mm 8,0 km/h (2 Bft) W 263 ° 0 min 0,000 mm 0,0 UV-I 0 W/m² 1,5 °C 1,5 °C 12,9 km/h (3 Bft)
16.01.2018 06:04 3,6 °C 85 % 1002,8 hPa 0,0 mm 8,4 km/h (2 Bft) W 279 ° 0 min 0,000 mm 0,0 UV-I 0 W/m² 1,3 °C 1,4 °C 17,7 km/h (3 Bft)
16.01.2018 06:05 3,7 °C 85 % 1002,8 hPa 0,0 mm 11,5 km/h (2 Bft) W-SW 241 ° 0 min 0,000 mm 0,0 UV-I 0 W/m² 1,4 °C 0,8 °C 17,7 km/h (3 Bft)
16.01.2018 06:06 3,7 °C 85 % 1002,8 hPa 0,0 mm 8,0 km/h (2 Bft) W 262 ° 0 min 0,000 mm 0,0 UV-I 0 W/m² 1,4 °C 1,6 °C 12,9 km/h (3 Bft)
16.01.2018 06:07 3,7 °C 84 % 1002,8 hPa 0,0 mm 8,0 km/h (2 Bft) W-SW 258 ° 0 min 0,000 mm 0,0 UV-I 0 W/m² 1,3 °C 1,6 °C 16,1 km/h (3 Bft)
16.01.2018 06:08 3,8 °C 84 % 1002,7 hPa 0,0 mm 10,4 km/h (2 Bft) W 269 ° 0 min 0,000 mm 0,0 UV-I 0 W/m² 1,4 °C 1,1 °C 19,3 km/h (3 Bft)
16.01.2018 06:09 3,8 °C 84 % 1002,7 hPa 0,0 mm 5,9 km/h (2 Bft) W-SW 251 ° 0 min 0,000 mm 0,0 UV-I 0 W/m² 1,4 °C 2,4 °C 11,3 km/h (2 Bft)
16.01.2018 06:10 3,9 °C 83 % 1002,6 hPa 0,0 mm 7,1 km/h (2 Bft) W-NW 282 ° 0 min 0,000 mm 0,0 UV-I 0 W/m² 1,3 °C 2,1 °C 12,9 km/h (3 Bft)
16.01.2018 06:11 3,9 °C 83 % 1002,6 hPa 0,0 mm 11,2 km/h (2 Bft) W-SW 238 ° 0 min 0,000 mm 0,0 UV-I 0 W/m² 1,3 °C 1,1 °C 14,5 km/h (3 Bft)
16.01.2018 06:12 4,1 °C 83 % 1002,6 hPa 0,0 mm 10,4 km/h (2 Bft) W 259 ° 0 min 0,000 mm 0,0 UV-I 0 W/m² 1,5 °C 1,5 °C 17,7 km/h (3 Bft)
16.01.2018 06:13 4,1 °C 83 % 1002,6 hPa 0,0 mm 12,6 km/h (3 Bft) W 267 ° 0 min 0,000 mm 0,0 UV-I 0 W/m² 1,5 °C 1,1 °C 16,1 km/h (3 Bft)
16.01.2018 06:14 4,1 °C 83 % 1002,7 hPa 0,0 mm 11,4 km/h (2 Bft) W 277 ° 0 min 0,000 mm 0,0 UV-I 0 W/m² 1,5 °C 1,3 °C 20,9 km/h (4 Bft)
16.01.2018 06:15 4,2 °C 82 % 1002,5 hPa 0,0 mm 14,9 km/h (3 Bft) W-NW 284 ° 0 min 0,000 mm 0,0 UV-I 0 W/m² 1,4 °C 0,8 °C 22,5 km/h (4 Bft)
16.01.2018 06:16 4,2 °C 82 % 1002,5 hPa 0,0 mm 9,4 km/h (2 Bft) SW 232 ° 0 min 0,000 mm 0,0 UV-I 0 W/m² 1,4 °C 1,8 °C 16,1 km/h (3 Bft)
16.01.2018 06:17 4,2 °C 82 % 1002,5 hPa 0,0 mm 9,9 km/h (2 Bft) W 259 ° 0 min 0,000 mm 0,0 UV-I 0 W/m² 1,4 °C 1,7 °C 16,1 km/h (3 Bft)
16.01.2018 06:18 4,3 °C 82 % 1002,4 hPa 0,0 mm 11,1 km/h (2 Bft) S 184 ° 0 min 0,000 mm 0,0 UV-I 0 W/m² 1,5 °C 1,6 °C 17,7 km/h (3 Bft)
16.01.2018 06:19 4,3 °C 82 % 1002,3 hPa 0,0 mm 9,7 km/h (2 Bft) W 273 ° 0 min 0,000 mm 0,0 UV-I 0 W/m² 1,5 °C 1,9 °C 14,5 km/h (3 Bft)
16.01.2018 06:20 4,3 °C 81 % 1002,4 hPa 0,0 mm 9,5 km/h (2 Bft) W 269 ° 0 min 0,000 mm 0,0 UV-I 0 W/m² 1,3 °C 1,9 °C 14,5 km/h (3 Bft)
16.01.2018 06:21 4,3 °C 81 % 1002,4 hPa 0,0 mm 15,5 km/h (3 Bft) W 259 ° 0 min 0,000 mm 0,0 UV-I 0 W/m² 1,3 °C 0,8 °C 17,7 km/h (3 Bft)
16.01.2018 06:22 4,4 °C 81 % 1002,4 hPa 0,0 mm 4,6 km/h (1 Bft) W-SW 255 ° 0 min 0,000 mm 0,0 UV-I 0 W/m² 1,4 °C 3,6 °C 12,9 km/h (3 Bft)
16.01.2018 06:23 4,4 °C 81 % 1002,4 hPa 0,0 mm 11,9 km/h (2 Bft) W-SW 250 ° 0 min 0,000 mm 0,0 UV-I 0 W/m² 1,4 °C 1,5 °C 20,9 km/h (4 Bft)
16.01.2018 06:24 4,5 °C 81 % 1002,4 hPa 0,0 mm 11,9 km/h (2 Bft) W 270 ° 0 min 0,000 mm 0,0 UV-I 0 W/m² 1,5 °C 1,7 °C 17,7 km/h (3 Bft)
16.01.2018 06:25 4,6 °C 80 % 1002,3 hPa 0,0 mm 16,4 km/h (3 Bft) W 275 ° 0 min 0,000 mm 0,0 UV-I 0 W/m² 1,5 °C 1,0 °C 27,4 km/h (4 Bft)
16.01.2018 06:26 4,6 °C 80 % 1002,3 hPa 0,0 mm 22,9 km/h (4 Bft) W 275 ° 0 min 0,000 mm 0,0 UV-I 0 W/m² 1,5 °C 0,2 °C 32,2 km/h (5 Bft)
16.01.2018 06:27 4,6 °C 80 % 1002,3 hPa 0,0 mm 12,5 km/h (3 Bft) W-NW 300 ° 0 min 0,000 mm 0,0 UV-I 0 W/m² 1,5 °C 1,7 °C 17,7 km/h (3 Bft)
16.01.2018 06:28 4,7 °C 80 % 1002,2 hPa 0,0 mm 6,6 km/h (2 Bft) W 268 ° 0 min 0,000 mm 0,0 UV-I 0 W/m² 1,6 °C 3,2 °C 11,3 km/h (2 Bft)
16.01.2018 06:29 4,7 °C 80 % 1002,2 hPa 0,0 mm 13,0 km/h (3 Bft) W-SW 254 ° 0 min 0,000 mm 0,0 UV-I 0 W/m² 1,6 °C 1,7 °C 22,5 km/h (4 Bft)
16.01.2018 06:30 4,7 °C 80 % 1002,2 hPa 0,0 mm 15,6 km/h (3 Bft) W-NW 301 ° 0 min 0,000 mm 0,0 UV-I 0 W/m² 1,6 °C 1,3 °C 20,9 km/h (4 Bft)
16.01.2018 06:31 4,7 °C 80 % 1002,2 hPa 0,0 mm 11,5 km/h (2 Bft) W-NW 284 ° 0 min 0,000 mm 0,0 UV-I 0 W/m² 1,6 °C 2,0 °C 20,9 km/h (4 Bft)
16.01.2018 06:32 4,8 °C 80 % 1002,2 hPa 0,0 mm 10,3 km/h (2 Bft) NW 310 ° 0 min 0,000 mm 0,0 UV-I 0 W/m² 1,6 °C 2,4 °C 19,3 km/h (3 Bft)
16.01.2018 06:33 4,8 °C 80 % 1002,3 hPa 0,0 mm 20,8 km/h (4 Bft) W 268 ° 0 min 0,000 mm 0,0 UV-I 0 W/m² 1,6 °C 0,7 °C 29,0 km/h (5 Bft)
16.01.2018 06:34 4,8 °C 80 % 1002,3 hPa 0,0 mm 14,3 km/h (3 Bft) W 267 ° 0 min 0,000 mm 0,0 UV-I 0 W/m² 1,6 °C 1,6 °C 19,3 km/h (3 Bft)
16.01.2018 06:35 4,8 °C 81 % 1002,3 hPa 0,0 mm 15,8 km/h (3 Bft) W-SW 254 ° 0 min 0,000 mm 0,0 UV-I 0 W/m² 1,8 °C 1,4 °C 20,9 km/h (4 Bft)
16.01.2018 06:36 4,8 °C 81 % 1002,3 hPa 0,0 mm 10,4 km/h (2 Bft) W-SW 257 ° 0 min 0,000 mm 0,0 UV-I 0 W/m² 1,8 °C 2,3 °C 14,5 km/h (3 Bft)
16.01.2018 06:37 4,8 °C 81 % 1002,3 hPa 0,0 mm 14,6 km/h (3 Bft) W-SW 256 ° 0 min 0,000 mm 0,0 UV-I 0 W/m² 1,8 °C 1,6 °C 20,9 km/h (4 Bft)
16.01.2018 06:38 4,8 °C 81 % 1002,3 hPa 0,0 mm 12,5 km/h (3 Bft) W 265 ° 0 min 0,000 mm 0,0 UV-I 0 W/m² 1,8 °C 1,9 °C 17,7 km/h (3 Bft)
16.01.2018 06:39 4,8 °C 81 % 1002,4 hPa 0,2 mm 13,7 km/h (3 Bft) W 259 ° 0 min 0,000 mm 0,0 UV-I 0 W/m² 1,8 °C 1,7 °C 17,7 km/h (3 Bft)
16.01.2018 06:40 4,9 °C 81 % 1002,4 hPa 0,0 mm 9,0 km/h (2 Bft) SW 236 ° 0 min 0,000 mm 0,0 UV-I 0 W/m² 1,9 °C 2,8 °C 16,1 km/h (3 Bft)
16.01.2018 06:41 4,8 °C 81 % 1002,2 hPa 0,0 mm 14,8 km/h (3 Bft) W-SW 254 ° 0 min 0,000 mm 0,0 UV-I 0 W/m² 1,8 °C 1,5 °C 22,5 km/h (4 Bft)
16.01.2018 06:42 4,8 °C 81 % 1002,4 hPa 0,0 mm 15,0 km/h (3 Bft) W 263 ° 0 min 0,000 mm 0,0 UV-I 0 W/m² 1,8 °C 1,5 °C 19,3 km/h (3 Bft)
16.01.2018 06:43 4,8 °C 82 % 1002,3 hPa 0,0 mm 13,8 km/h (3 Bft) W 260 ° 0 min 0,000 mm 0,0 UV-I 0 W/m² 2,0 °C 1,7 °C 22,5 km/h (4 Bft)
16.01.2018 06:44 4,8 °C 82 % 1002,3 hPa 0,0 mm 15,2 km/h (3 Bft) W 261 ° 0 min 0,000 mm 0,0 UV-I 0 W/m² 2,0 °C 1,5 °C 20,9 km/h (4 Bft)
16.01.2018 06:45 4,8 °C 82 % 1002,2 hPa 0,0 mm 12,5 km/h (3 Bft) W 260 ° 0 min 0,000 mm 0,0 UV-I 0 W/m² 2,0 °C 1,9 °C 17,7 km/h (3 Bft)
16.01.2018 06:46 4,8 °C 82 % 1002,1 hPa 0,0 mm 7,2 km/h (2 Bft) S-SW 202 ° 0 min 0,000 mm 0,0 UV-I 0 W/m² 2,0 °C 3,1 °C 11,3 km/h (2 Bft)
16.01.2018 06:47 4,8 °C 82 % 1002,1 hPa 0,0 mm 6,0 km/h (2 Bft) W-SW 252 ° 0 min 0,000 mm 0,0 UV-I 0 W/m² 2,0 °C 3,5 °C 11,3 km/h (2 Bft)
16.01.2018 06:48 4,8 °C 82 % 1002,1 hPa 0,0 mm 15,0 km/h (3 Bft) W-SW 253 ° 0 min 0,000 mm 0,0 UV-I 0 W/m² 2,0 °C 1,5 °C 27,4 km/h (4 Bft)
16.01.2018 06:49 4,8 °C 81 % 1002,1 hPa 0,0 mm 14,1 km/h (3 Bft) W-SW 250 ° 0 min 0,000 mm 0,0 UV-I 0 W/m² 1,8 °C 1,6 °C 19,3 km/h (3 Bft)
16.01.2018 06:50 4,8 °C 81 % 1002,1 hPa 0,0 mm 11,6 km/h (2 Bft) SW 234 ° 0 min 0,000 mm 0,0 UV-I 0 W/m² 1,8 °C 2,1 °C 17,7 km/h (3 Bft)
16.01.2018 06:51 4,8 °C 81 % 1002,0 hPa 0,0 mm 10,7 km/h (2 Bft) W 273 ° 0 min 0,000 mm 0,0 UV-I 0 W/m² 1,8 °C 2,3 °C 16,1 km/h (3 Bft)
16.01.2018 06:52 4,8 °C 81 % 1002,1 hPa 0,0 mm 9,1 km/h (2 Bft) W 269 ° 0 min 0,000 mm 0,0 UV-I 0 W/m² 1,8 °C 2,6 °C 12,9 km/h (3 Bft)
16.01.2018 06:53 4,8 °C 81 % 1002,1 hPa 0,0 mm 4,4 km/h (1 Bft) SW 228 ° 0 min 0,000 mm 0,0 UV-I 0 W/m² 1,8 °C 4,8 °C 6,4 km/h (2 Bft)
16.01.2018 06:54 4,8 °C 81 % 1001,9 hPa 0,0 mm 9,1 km/h (2 Bft) S-SW 200 ° 0 min 0,000 mm 0,0 UV-I 0 W/m² 1,8 °C 2,6 °C 16,1 km/h (3 Bft)
16.01.2018 06:55 4,8 °C 81 % 1001,9 hPa 0,0 mm 7,5 km/h (2 Bft) W-SW 244 ° 0 min 0,000 mm 0,0 UV-I 0 W/m² 1,8 °C 3,0 °C 12,9 km/h (3 Bft)
16.01.2018 06:56 4,7 °C 81 % 1001,9 hPa 0,0 mm 12,0 km/h (2 Bft) W-SW 255 ° 0 min 0,000 mm 0,0 UV-I 0 W/m² 1,7 °C 1,9 °C 19,3 km/h (3 Bft)
16.01.2018 06:57 4,7 °C 81 % 1001,9 hPa 0,0 mm 9,3 km/h (2 Bft) W 264 ° 0 min 0,000 mm 0,0 UV-I 0 W/m² 1,7 °C 2,5 °C 12,9 km/h (3 Bft)
16.01.2018 06:58 4,8 °C 81 % 1001,9 hPa 0,0 mm 9,3 km/h (2 Bft) N-NW 328 ° 0 min 0,000 mm 0,0 UV-I 0 W/m² 1,8 °C 2,6 °C 16,1 km/h (3 Bft)
16.01.2018 06:59 4,7 °C 81 % 1001,8 hPa 0,0 mm 9,3 km/h (2 Bft) W 278 ° 0 min 0,000 mm 0,0 UV-I 0 W/m² 1,7 °C 2,5 °C 16,1 km/h (3 Bft)
16.01.2018 07:00 4,7 °C 81 % 1001,9 hPa 0,0 mm 7,9 km/h (2 Bft) W 268 ° 0 min 0,025 mm 0,0 UV-I 0 W/m² 1,7 °C 2,8 °C 14,5 km/h (3 Bft)
16.01.2018 07:01 4,7 °C 81 % 1001,9 hPa 0,0 mm 5,0 km/h (1 Bft) SW 223 ° 0 min 0,000 mm 0,0 UV-I 0 W/m² 1,7 °C 3,7 °C 9,7 km/h (2 Bft)
16.01.2018 07:02 4,7 °C 81 % 1001,9 hPa 0,0 mm 7,7 km/h (2 Bft) SW 217 ° 0 min 0,000 mm 0,0 UV-I 0 W/m² 1,7 °C 2,9 °C 12,9 km/h (3 Bft)
16.01.2018 07:03 4,7 °C 81 % 1001,9 hPa 0,0 mm 10,4 km/h (2 Bft) W 259 ° 0 min 0,000 mm 0,0 UV-I 0 W/m² 1,7 °C 2,2 °C 16,1 km/h (3 Bft)
16.01.2018 07:04 4,7 °C 81 % 1001,9 hPa 0,0 mm 11,2 km/h (2 Bft) W-NW 282 ° 0 min 0,000 mm 0,0 UV-I 0 W/m² 1,7 °C 2,0 °C 17,7 km/h (3 Bft)
16.01.2018 07:05 4,7 °C 81 % 1001,8 hPa 0,0 mm 6,6 km/h (2 Bft) W-SW 248 ° 0 min 0,000 mm 0,0 UV-I 0 W/m² 1,7 °C 3,2 °C 11,3 km/h (2 Bft)
16.01.2018 07:06 4,7 °C 80 % 1001,8 hPa 0,0 mm 5,0 km/h (1 Bft) W-SW 246 ° 0 min 0,000 mm 0,0 UV-I 0 W/m² 1,6 °C 3,7 °C 8,0 km/h (2 Bft)
16.01.2018 07:07 4,7 °C 81 % 1001,9 hPa 0,0 mm 7,3 km/h (2 Bft) W-SW 247 ° 0 min 0,000 mm 0,0 UV-I 0 W/m² 1,7 °C 3,0 °C 12,9 km/h (3 Bft)
16.01.2018 07:08 4,7 °C 81 % 1001,8 hPa 0,0 mm 8,9 km/h (2 Bft) W 263 ° 0 min 0,000 mm 0,0 UV-I 0 W/m² 1,7 °C 2,6 °C 14,5 km/h (3 Bft)
16.01.2018 07:09 4,7 °C 80 % 1001,8 hPa 0,0 mm 6,4 km/h (2 Bft) S-SW 212 ° 0 min 0,000 mm 0,0 UV-I 0 W/m² 1,6 °C 3,2 °C 11,3 km/h (2 Bft)
16.01.2018 07:10 4,7 °C 80 % 1001,8 hPa 0,0 mm 7,2 km/h (2 Bft) W 264 ° 0 min 0,000 mm 0,0 UV-I 0 W/m² 1,6 °C 3,0 °C 11,3 km/h (2 Bft)
16.01.2018 07:11 4,7 °C 80 % 1001,8 hPa 0,0 mm 8,2 km/h (2 Bft) SW 218 ° 0 min 0,000 mm 0,0 UV-I 0 W/m² 1,6 °C 2,7 °C 14,5 km/h (3 Bft)
16.01.2018 07:12 4,7 °C 80 % 1001,7 hPa 0,0 mm 2,8 km/h (1 Bft) W 279 ° 0 min 0,000 mm 0,0 UV-I 0 W/m² 1,6 °C 4,7 °C 4,8 km/h (1 Bft)
16.01.2018 07:13 4,7 °C 80 % 1001,8 hPa 0,0 mm 9,2 km/h (2 Bft) W-SW 246 ° 0 min 0,000 mm 0,0 UV-I 0 W/m² 1,6 °C 2,5 °C 14,5 km/h (3 Bft)
16.01.2018 07:14 4,7 °C 80 % 1001,8 hPa 0,0 mm 8,4 km/h (2 Bft) W 281 ° 0 min 0,000 mm 0,0 UV-I 0 W/m² 1,6 °C 2,7 °C 11,3 km/h (2 Bft)
16.01.2018 07:15 4,7 °C 80 % 1001,8 hPa 0,0 mm 5,8 km/h (2 Bft) W 263 ° 0 min 0,000 mm 0,0 UV-I 0 W/m² 1,6 °C 3,4 °C 9,7 km/h (2 Bft)
16.01.2018 07:16 4,7 °C 80 % 1001,7 hPa 0,0 mm 10,9 km/h (2 Bft) W-SW 255 ° 0 min 0,000 mm 0,0 UV-I 0 W/m² 1,6 °C 2,1 °C 16,1 km/h (3 Bft)
16.01.2018 07:17 4,7 °C 80 % 1001,7 hPa 0,0 mm 6,3 km/h (2 Bft) S-SW 209 ° 0 min 0,000 mm 0,0 UV-I 0 W/m² 1,6 °C 3,3 °C 11,3 km/h (2 Bft)
16.01.2018 07:18 4,7 °C 80 % 1001,8 hPa 0,0 mm 7,0 km/h (2 Bft) S-SW 201 ° 0 min 0,000 mm 0,0 UV-I 0 W/m² 1,6 °C 3,1 °C 12,9 km/h (3 Bft)
16.01.2018 07:19 4,8 °C 79 % 1001,7 hPa 0,0 mm 5,9 km/h (2 Bft) S-SW 207 ° 0 min 0,000 mm 0,0 UV-I 0 W/m² 1,5 °C 3,5 °C 11,3 km/h (2 Bft)
16.01.2018 07:20 4,8 °C 79 % 1001,7 hPa 0,0 mm 8,8 km/h (2 Bft) SW 228 ° 0 min 0,000 mm 0,0 UV-I 0 W/m² 1,5 °C 2,7 °C 16,1 km/h (3 Bft)
16.01.2018 07:21 4,9 °C 79 % 1001,6 hPa 0,0 mm 11,0 km/h (2 Bft) W 264 ° 0 min 0,000 mm 0,0 UV-I 0 W/m² 1,6 °C 2,3 °C 17,7 km/h (3 Bft)
16.01.2018 07:22 4,9 °C 79 % 1001,5 hPa 0,0 mm 11,2 km/h (2 Bft) SW 218 ° 0 min 0,000 mm 0,0 UV-I 0 W/m² 1,6 °C 2,3 °C 16,1 km/h (3 Bft)
16.01.2018 07:23 4,9 °C 78 % 1001,4 hPa 0,0 mm 8,5 km/h (2 Bft) SW 216 ° 0 min 0,000 mm 0,0 UV-I 0 W/m² 1,4 °C 2,9 °C 12,9 km/h (3 Bft)
16.01.2018 07:24 4,9 °C 78 % 1001,4 hPa 0,0 mm 6,5 km/h (2 Bft) SW 217 ° 0 min 0,000 mm 0,0 UV-I 0 W/m² 1,4 °C 3,4 °C 16,1 km/h (3 Bft)
16.01.2018 07:25 5,0 °C 78 % 1001,4 hPa 0,0 mm 3,4 km/h (1 Bft) SW 214 ° 0 min 0,000 mm 0,0 UV-I 0 W/m² 1,5 °C 5,0 °C 4,8 km/h (1 Bft)
16.01.2018 07:26 5,1 °C 78 % 1001,4 hPa 0,0 mm 4,0 km/h (1 Bft) S-SW 209 ° 0 min 0,000 mm 0,0 UV-I 0 W/m² 1,6 °C 5,1 °C 8,0 km/h (2 Bft)
16.01.2018 07:27 5,1 °C 77 % 1001,3 hPa 0,0 mm 8,0 km/h (2 Bft) S-SW 209 ° 0 min 0,000 mm 0,0 UV-I 0 W/m² 1,4 °C 3,3 °C 11,3 km/h (2 Bft)
16.01.2018 07:28 5,1 °C 77 % 1001,4 hPa 0,0 mm 6,1 km/h (2 Bft) S-SW 213 ° 0 min 0,000 mm 0,0 UV-I 0 W/m² 1,4 °C 3,8 °C 9,7 km/h (2 Bft)
16.01.2018 07:29 5,2 °C 76 % 1001,4 hPa 0,0 mm 10,3 km/h (2 Bft) W 265 ° 0 min 0,000 mm 0,0 UV-I 0 W/m² 1,3 °C 2,8 °C 17,7 km/h (3 Bft)
16.01.2018 07:30 5,2 °C 76 % 1001,5 hPa 0,0 mm 9,1 km/h (2 Bft) S-SW 202 ° 0 min 0,000 mm 0,0 UV-I 0 W/m² 1,3 °C 3,1 °C 14,5 km/h (3 Bft)
16.01.2018 07:31 5,2 °C 76 % 1001,4 hPa 0,0 mm 5,2 km/h (1 Bft) W-SW 238 ° 0 min 0,000 mm 0,0 UV-I 0 W/m² 1,3 °C 4,2 °C 8,0 km/h (2 Bft)
16.01.2018 07:32 5,2 °C 76 % 1001,4 hPa 0,0 mm 5,2 km/h (1 Bft) W-SW 240 ° 0 min 0,000 mm 0,0 UV-I 0 W/m² 1,3 °C 4,2 °C 9,7 km/h (2 Bft)
16.01.2018 07:33 5,2 °C 76 % 1001,4 hPa 0,0 mm 7,4 km/h (2 Bft) S-SW 203 ° 0 min 0,000 mm 0,0 UV-I 0 W/m² 1,3 °C 3,5 °C 16,1 km/h (3 Bft)
16.01.2018 07:34 5,2 °C 76 % 1001,3 hPa 0,0 mm 11,5 km/h (2 Bft) S 174 ° 0 min 0,000 mm 0,0 UV-I 0 W/m² 1,3 °C 2,6 °C 14,5 km/h (3 Bft)
16.01.2018 07:35 5,3 °C 75 % 1001,3 hPa 0,0 mm 9,4 km/h (2 Bft) W-SW 256 ° 0 min 0,000 mm 0,0 UV-I 0 W/m² 1,2 °C 3,1 °C 14,5 km/h (3 Bft)
16.01.2018 07:36 5,3 °C 75 % 1001,2 hPa 0,0 mm 10,3 km/h (2 Bft) W 275 ° 0 min 0,000 mm 0,0 UV-I 0 W/m² 1,2 °C 3,0 °C 14,5 km/h (3 Bft)
16.01.2018 07:37 5,3 °C 75 % 1001,2 hPa 0,0 mm 5,5 km/h (1 Bft) SW 217 ° 0 min 0,000 mm 0,0 UV-I 0 W/m² 1,2 °C 4,2 °C 11,3 km/h (2 Bft)
16.01.2018 07:38 5,3 °C 75 % 1001,3 hPa 0,0 mm 8,5 km/h (2 Bft) S-SW 196 ° 0 min 0,000 mm 0,0 UV-I 0 W/m² 1,2 °C 3,4 °C 12,9 km/h (3 Bft)
16.01.2018 07:39 5,3 °C 75 % 1001,1 hPa 0,0 mm 6,0 km/h (2 Bft) S-SW 212 ° 0 min 0,000 mm 0,0 UV-I 0 W/m² 1,2 °C 4,1 °C 8,0 km/h (2 Bft)
16.01.2018 07:40 5,4 °C 75 % 1001,0 hPa 0,0 mm 13,1 km/h (3 Bft) W-SW 244 ° 0 min 0,000 mm 0,0 UV-I 0 W/m² 1,3 °C 2,5 °C 20,9 km/h (4 Bft)
16.01.2018 07:41 5,4 °C 75 % 1000,9 hPa 0,0 mm 9,0 km/h (2 Bft) SW 231 ° 0 min 0,000 mm 0,0 UV-I 0 W/m² 1,3 °C 3,4 °C 12,9 km/h (3 Bft)
16.01.2018 07:42 5,4 °C 74 % 1000,9 hPa 0,0 mm 6,9 km/h (2 Bft) SW 236 ° 0 min 0,000 mm 0,0 UV-I 0 W/m² 1,1 °C 3,9 °C 11,3 km/h (2 Bft)
16.01.2018 07:43 5,4 °C 74 % 1001,0 hPa 0,0 mm 5,2 km/h (1 Bft) W 269 ° 0 min 0,000 mm 0,0 UV-I 0 W/m² 1,1 °C 4,5 °C 11,3 km/h (2 Bft)
16.01.2018 07:44 5,4 °C 74 % 1001,0 hPa 0,0 mm 4,7 km/h (1 Bft) SW 234 ° 0 min 0,000 mm 0,0 UV-I 0 W/m² 1,1 °C 4,7 °C 12,9 km/h (3 Bft)
16.01.2018 07:45 5,5 °C 74 % 1000,9 hPa 0,0 mm 3,0 km/h (1 Bft) W 272 ° 0 min 0,000 mm 0,0 UV-I 0 W/m² 1,2 °C 5,5 °C 4,8 km/h (1 Bft)
16.01.2018 07:46 5,5 °C 74 % 1000,9 hPa 0,0 mm 6,0 km/h (2 Bft) W 262 ° 0 min 0,000 mm 0,0 UV-I 0 W/m² 1,2 °C 4,3 °C 11,3 km/h (2 Bft)
16.01.2018 07:47 5,5 °C 74 % 1000,9 hPa 0,0 mm 3,6 km/h (1 Bft) S-SW 207 ° 0 min 0,000 mm 0,0 UV-I 0 W/m² 1,2 °C 5,5 °C 6,4 km/h (2 Bft)
16.01.2018 07:48 5,5 °C 74 % 1000,9 hPa 0,0 mm 6,5 km/h (2 Bft) W 260 ° 0 min 0,000 mm 0,0 UV-I 0 W/m² 1,2 °C 4,1 °C 9,7 km/h (2 Bft)
16.01.2018 07:49 5,5 °C 74 % 1000,9 hPa 0,0 mm 4,3 km/h (1 Bft) W-SW 243 ° 0 min 0,000 mm 0,0 UV-I 0 W/m² 1,2 °C 5,5 °C 6,4 km/h (2 Bft)
16.01.2018 07:50 5,5 °C 74 % 1000,9 hPa 0,0 mm 0,9 km/h (0 Bft) SW 229 ° 0 min 0,000 mm 0,0 UV-I 0 W/m² 1,2 °C 5,5 °C 3,2 km/h (1 Bft)
16.01.2018 07:51 5,5 °C 74 % 1000,9 hPa 0,0 mm 3,4 km/h (1 Bft) W-SW 246 ° 0 min 0,000 mm 0,0 UV-I 0 W/m² 1,2 °C 5,5 °C 6,4 km/h (2 Bft)
16.01.2018 07:52 5,6 °C 74 % 1000,9 hPa 0,0 mm 5,7 km/h (1 Bft) W 263 ° 0 min 0,000 mm 0,0 UV-I 0 W/m² 1,3 °C 4,5 °C 8,0 km/h (2 Bft)
16.01.2018 07:53 5,6 °C 74 % 1000,8 hPa 0,0 mm 7,2 km/h (2 Bft) W-SW 243 ° 0 min 0,000 mm 0,0 UV-I 0 W/m² 1,3 °C 4,1 °C 14,5 km/h (3 Bft)
16.01.2018 07:54 5,6 °C 73 % 1000,8 hPa 0,0 mm 12,1 km/h (2 Bft) SW 229 ° 0 min 0,000 mm 0,0 UV-I 0 W/m² 1,2 °C 3,0 °C 20,9 km/h (4 Bft)
16.01.2018 07:55 5,6 °C 73 % 1000,7 hPa 0,0 mm 4,0 km/h (1 Bft) SW 234 ° 0 min 0,000 mm 0,0 UV-I 0 W/m² 1,2 °C 5,6 °C 6,4 km/h (2 Bft)
16.01.2018 07:56 5,6 °C 73 % 1000,7 hPa 0,0 mm 2,5 km/h (1 Bft) SW 232 ° 0 min 0,000 mm 0,0 UV-I 0 W/m² 1,2 °C 5,6 °C 4,8 km/h (1 Bft)
16.01.2018 07:57 5,6 °C 73 % 1000,7 hPa 0,0 mm 3,9 km/h (1 Bft) S-SW 210 ° 0 min 0,000 mm 0,0 UV-I 0 W/m² 1,2 °C 5,6 °C 6,4 km/h (2 Bft)
16.01.2018 07:58 5,7 °C 73 % 1000,7 hPa 0,0 mm 9,9 km/h (2 Bft) W 261 ° 0 min 0,000 mm 0,0 UV-I 0 W/m² 1,2 °C 3,5 °C 14,5 km/h (3 Bft)
16.01.2018 07:59 5,7 °C 71 % 1000,8 hPa 0,0 mm 8,4 km/h (2 Bft) S-SW 205 ° 0 min 0,000 mm 0,0 UV-I 0 W/m² 0,9 °C 3,9 °C 14,5 km/h (3 Bft)
16.01.2018 08:00 5,7 °C 72 % 1000,6 hPa 0,0 mm 5,3 km/h (1 Bft) W 264 ° 0 min 0,000 mm 0,0 UV-I 0 W/m² 1,1 °C 4,8 °C 9,7 km/h (2 Bft)
16.01.2018 08:01 5,8 °C 72 % 1000,7 hPa 0,0 mm 4,2 km/h (1 Bft) W-NW 284 ° 0 min 0,026 mm 0,0 UV-I 0 W/m² 1,2 °C 5,8 °C 9,7 km/h (2 Bft)
16.01.2018 08:02 5,8 °C 72 % 1000,8 hPa 0,0 mm 9,9 km/h (2 Bft) SW 227 ° 0 min 0,000 mm 0,0 UV-I 0 W/m² 1,2 °C 3,6 °C 14,5 km/h (3 Bft)
16.01.2018 08:03 5,8 °C 72 % 1000,8 hPa 0,0 mm 10,0 km/h (2 Bft) W 267 ° 0 min 0,000 mm 0,0 UV-I 0 W/m² 1,2 °C 3,6 °C 16,1 km/h (3 Bft)
16.01.2018 08:04 5,8 °C 72 % 1000,8 hPa 0,0 mm 8,3 km/h (2 Bft) W-SW 243 ° 0 min 0,000 mm 0,0 UV-I 0 W/m² 1,2 °C 4,0 °C 12,9 km/h (3 Bft)
16.01.2018 08:05 5,8 °C 72 % 1000,8 hPa 0,0 mm 8,5 km/h (2 Bft) W-SW 250 ° 0 min 0,000 mm 0,0 UV-I 0 W/m² 1,2 °C 4,0 °C 14,5 km/h (3 Bft)
16.01.2018 08:06 5,9 °C 71 % 1000,8 hPa 0,0 mm 14,5 km/h (3 Bft) W 262 ° 0 min 0,000 mm 0,0 UV-I 0 W/m² 1,1 °C 2,9 °C 24,1 km/h (4 Bft)
16.01.2018 08:07 5,9 °C 72 % 1001,0 hPa 0,0 mm 14,8 km/h (3 Bft) W-SW 252 ° 0 min 0,000 mm 0,0 UV-I 0 W/m² 1,2 °C 2,9 °C 22,5 km/h (4 Bft)
16.01.2018 08:08 5,9 °C 71 % 1000,9 hPa 0,0 mm 12,9 km/h (3 Bft) W-NW 289 ° 0 min 0,000 mm 0,0 UV-I 0 W/m² 1,1 °C 3,2 °C 22,5 km/h (4 Bft)
16.01.2018 08:09 5,9 °C 71 % 1001,1 hPa 0,0 mm 12,8 km/h (3 Bft) W 267 ° 0 min 0,000 mm 0,0 UV-I 0 W/m² 1,1 °C 3,2 °C 20,9 km/h (4 Bft)
16.01.2018 08:10 5,9 °C 71 % 1001,1 hPa 0,0 mm 20,5 km/h (4 Bft) W 264 ° 0 min 0,000 mm 0,0 UV-I 0 W/m² 1,1 °C 2,1 °C 29,0 km/h (5 Bft)
16.01.2018 08:11 6,0 °C 71 % 1001,1 hPa 0,0 mm 13,5 km/h (3 Bft) W 263 ° 0 min 0,000 mm 0,0 UV-I 0 W/m² 1,1 °C 3,2 °C 17,7 km/h (3 Bft)
16.01.2018 08:12 6,1 °C 72 % 1001,1 hPa 0,0 mm 16,2 km/h (3 Bft) W-SW 257 ° 0 min 0,000 mm 0,0 UV-I 0 W/m² 1,4 °C 2,9 °C 19,3 km/h (3 Bft)
16.01.2018 08:13 6,1 °C 72 % 1001,2 hPa 0,0 mm 13,6 km/h (3 Bft) W-NW 294 ° 0 min 0,000 mm 0,0 UV-I 0 W/m² 1,4 °C 3,3 °C 19,3 km/h (3 Bft)
16.01.2018 08:14 6,1 °C 72 % 1001,1 hPa 0,0 mm 13,5 km/h (3 Bft) NW 317 ° 0 min 0,000 mm 0,0 UV-I 5 W/m² 1,4 °C 3,3 °C 22,5 km/h (4 Bft)
16.01.2018 08:15 6,1 °C 71 % 1000,9 hPa 0,0 mm 11,6 km/h (2 Bft) W-NW 284 ° 0 min 0,000 mm 0,0 UV-I 5 W/m² 1,2 °C 3,7 °C 17,7 km/h (3 Bft)
16.01.2018 08:16 6,1 °C 72 % 1001,0 hPa 0,0 mm 19,2 km/h (3 Bft) W-SW 254 ° 0 min 0,000 mm 0,0 UV-I 7 W/m² 1,4 °C 2,5 °C 30,6 km/h (5 Bft)
16.01.2018 08:17 6,1 °C 72 % 1001,0 hPa 0,0 mm 16,6 km/h (3 Bft) W 259 ° 0 min 0,000 mm 0,0 UV-I 7 W/m² 1,4 °C 2,9 °C 22,5 km/h (4 Bft)
16.01.2018 08:18 6,1 °C 73 % 1001,0 hPa 0,0 mm 7,9 km/h (2 Bft) W 274 ° 0 min 0,000 mm 0,0 UV-I 9 W/m² 1,6 °C 4,5 °C 16,1 km/h (3 Bft)
16.01.2018 08:19 6,1 °C 73 % 1001,1 hPa 0,0 mm 17,6 km/h (3 Bft) W-NW 286 ° 0 min 0,000 mm 0,0 UV-I 9 W/m² 1,6 °C 2,7 °C 27,4 km/h (4 Bft)
16.01.2018 08:20 6,1 °C 73 % 1001,0 hPa 0,0 mm 19,1 km/h (3 Bft) SW 234 ° 0 min 0,000 mm 0,0 UV-I 7 W/m² 1,6 °C 2,6 °C 33,8 km/h (5 Bft)
16.01.2018 08:21 6,1 °C 73 % 1001,0 hPa 0,0 mm 17,2 km/h (3 Bft) SW 224 ° 0 min 0,000 mm 0,0 UV-I 7 W/m² 1,6 °C 2,8 °C 30,6 km/h (5 Bft)
16.01.2018 08:22 6,1 °C 73 % 1001,0 hPa 0,0 mm 13,9 km/h (3 Bft) W-SW 255 ° 0 min 0,000 mm 0,0 UV-I 7 W/m² 1,6 °C 3,3 °C 17,7 km/h (3 Bft)
16.01.2018 08:23 6,1 °C 73 % 1001,0 hPa 0,0 mm 12,6 km/h (3 Bft) W 272 ° 0 min 0,000 mm 0,0 UV-I 7 W/m² 1,6 °C 3,5 °C 17,7 km/h (3 Bft)
16.01.2018 08:24 6,1 °C 73 % 1001,0 hPa 0,0 mm 11,9 km/h (2 Bft) SW 233 ° 0 min 0,000 mm 0,0 UV-I 7 W/m² 1,6 °C 3,6 °C 17,7 km/h (3 Bft)
16.01.2018 08:25 6,1 °C 73 % 1001,1 hPa 0,0 mm 13,8 km/h (3 Bft) W 263 ° 0 min 0,000 mm 0,0 UV-I 9 W/m² 1,6 °C 3,3 °C 27,4 km/h (4 Bft)
16.01.2018 08:26 6,1 °C 73 % 1001,1 hPa 0,0 mm 14,0 km/h (3 Bft) W 270 ° 0 min 0,000 mm 0,0 UV-I 7 W/m² 1,6 °C 3,3 °C 25,7 km/h (4 Bft)
16.01.2018 08:27 6,1 °C 73 % 1001,2 hPa 0,0 mm 19,4 km/h (3 Bft) W 268 ° 0 min 0,000 mm 0,0 UV-I 7 W/m² 1,6 °C 2,5 °C 27,4 km/h (4 Bft)
16.01.2018 08:28 6,1 °C 73 % 1001,2 hPa 0,0 mm 11,8 km/h (2 Bft) W 265 ° 0 min 0,000 mm 0,0 UV-I 7 W/m² 1,6 °C 3,6 °C 22,5 km/h (4 Bft)
16.01.2018 08:29 6,1 °C 73 % 1001,3 hPa 0,0 mm 12,0 km/h (2 Bft) SW 223 ° 0 min 0,000 mm 0,0 UV-I 9 W/m² 1,6 °C 3,6 °C 24,1 km/h (4 Bft)
16.01.2018 08:30 6,1 °C 73 % 1001,2 hPa 0,0 mm 12,4 km/h (3 Bft) S 180 ° 0 min 0,000 mm 0,0 UV-I 9 W/m² 1,6 °C 3,5 °C 30,6 km/h (5 Bft)
16.01.2018 08:31 6,1 °C 72 % 1001,0 hPa 0,0 mm 15,7 km/h (3 Bft) SW 227 ° 0 min 0,000 mm 0,0 UV-I 9 W/m² 1,4 °C 3,0 °C 22,5 km/h (4 Bft)
16.01.2018 08:32 6,1 °C 72 % 1001,1 hPa 0,0 mm 10,8 km/h (2 Bft) SW 231 ° 0 min 0,000 mm 0,0 UV-I 9 W/m² 1,4 °C 3,8 °C 17,7 km/h (3 Bft)
16.01.2018 08:33 6,1 °C 72 % 1001,0 hPa 0,0 mm 15,4 km/h (3 Bft) W 271 ° 0 min 0,000 mm 0,0 UV-I 9 W/m² 1,4 °C 3,0 °C 22,5 km/h (4 Bft)
16.01.2018 08:34 6,1 °C 73 % 1001,0 hPa 0,0 mm 13,0 km/h (3 Bft) W 261 ° 0 min 0,000 mm 0,0 UV-I 12 W/m² 1,6 °C 3,4 °C 20,9 km/h (4 Bft)
16.01.2018 08:35 6,1 °C 72 % 1000,9 hPa 0,0 mm 9,4 km/h (2 Bft) W 259 ° 0 min 0,000 mm 0,0 UV-I 14 W/m² 1,4 °C 4,1 °C 20,9 km/h (4 Bft)
16.01.2018 08:36 6,1 °C 72 % 1000,9 hPa 0,0 mm 12,9 km/h (3 Bft) SW 226 ° 0 min 0,000 mm 0,0 UV-I 12 W/m² 1,4 °C 3,4 °C 20,9 km/h (4 Bft)
16.01.2018 08:37 6,1 °C 72 % 1001,0 hPa 0,0 mm 10,0 km/h (2 Bft) SW 216 ° 0 min 0,000 mm 0,0 UV-I 11 W/m² 1,4 °C 4,0 °C 22,5 km/h (4 Bft)
16.01.2018 08:38 6,1 °C 72 % 1000,8 hPa 0,0 mm 11,9 km/h (2 Bft) W-NW 290 ° 0 min 0,000 mm 0,0 UV-I 12 W/m² 1,4 °C 3,6 °C 20,9 km/h (4 Bft)
16.01.2018 08:39 6,1 °C 72 % 1000,9 hPa 0,0 mm 16,7 km/h (3 Bft) W-NW 292 ° 0 min 0,000 mm 0,0 UV-I 12 W/m² 1,4 °C 2,9 °C 22,5 km/h (4 Bft)
16.01.2018 08:40 6,1 °C 71 % 1000,9 hPa 0,0 mm 19,4 km/h (3 Bft) W 279 ° 0 min 0,000 mm 0,0 UV-I 16 W/m² 1,2 °C 2,5 °C 32,2 km/h (5 Bft)
16.01.2018 08:41 6,1 °C 71 % 1000,9 hPa 0,0 mm 15,2 km/h (3 Bft) W 279 ° 0 min 0,000 mm 0,0 UV-I 23 W/m² 1,2 °C 3,1 °C 32,2 km/h (5 Bft)
16.01.2018 08:42 6,1 °C 71 % 1000,9 hPa 0,0 mm 17,6 km/h (3 Bft) W-SW 249 ° 0 min 0,000 mm 0,0 UV-I 25 W/m² 1,2 °C 2,7 °C 30,6 km/h (5 Bft)
16.01.2018 08:43 6,1 °C 71 % 1000,9 hPa 0,0 mm 18,8 km/h (3 Bft) S-SW 209 ° 0 min 0,000 mm 0,0 UV-I 30 W/m² 1,2 °C 2,6 °C 27,4 km/h (4 Bft)
16.01.2018 08:44 6,1 °C 71 % 1000,9 hPa 0,0 mm 18,7 km/h (3 Bft) W 264 ° 0 min 0,000 mm 0,0 UV-I 33 W/m² 1,2 °C 2,6 °C 24,1 km/h (4 Bft)
16.01.2018 08:45 6,1 °C 71 % 1001,1 hPa 0,0 mm 18,1 km/h (3 Bft) S-SW 212 ° 0 min 0,000 mm 0,0 UV-I 47 W/m² 1,2 °C 2,7 °C 32,2 km/h (5 Bft)
16.01.2018 08:46 6,2 °C 70 % 1001,2 hPa 0,0 mm 21,3 km/h (4 Bft) W-SW 250 ° 0 min 0,000 mm 0,0 UV-I 63 W/m² 1,1 °C 2,4 °C 33,8 km/h (5 Bft)
16.01.2018 08:47 6,2 °C 70 % 1001,2 hPa 0,0 mm 24,9 km/h (4 Bft) W 270 ° 0 min 0,000 mm 0,0 UV-I 67 W/m² 1,1 °C 2,1 °C 40,2 km/h (6 Bft)
16.01.2018 08:48 6,3 °C 70 % 1001,1 hPa 0,0 mm 14,8 km/h (3 Bft) SW 233 ° 0 min 0,000 mm 0,0 UV-I 65 W/m² 1,2 °C 3,4 °C 24,1 km/h (4 Bft)
16.01.2018 08:49 6,3 °C 70 % 1001,2 hPa 0,0 mm 16,0 km/h (3 Bft) S-SW 207 ° 0 min 0,000 mm 0,0 UV-I 56 W/m² 1,2 °C 3,2 °C 24,1 km/h (4 Bft)
16.01.2018 08:50 6,3 °C 69 % 1001,1 hPa 0,0 mm 14,1 km/h (3 Bft) N-NO 13 ° 0 min 0,000 mm 0,0 UV-I 53 W/m² 1,0 °C 3,5 °C 20,9 km/h (4 Bft)
16.01.2018 08:51 6,4 °C 69 % 1000,9 hPa 0,0 mm 26,8 km/h (4 Bft) W 261 ° 0 min 0,000 mm 0,0 UV-I 47 W/m² 1,1 °C 2,1 °C 40,2 km/h (6 Bft)
16.01.2018 08:52 6,4 °C 69 % 1000,9 hPa 0,0 mm 21,8 km/h (4 Bft) W 275 ° 0 min 0,000 mm 0,0 UV-I 44 W/m² 1,1 °C 2,6 °C 35,4 km/h (5 Bft)
16.01.2018 08:53 6,5 °C 69 % 1000,9 hPa 0,0 mm 15,0 km/h (3 Bft) W-SW 255 ° 0 min 0,000 mm 0,0 UV-I 39 W/m² 1,2 °C 3,6 °C 24,1 km/h (4 Bft)
16.01.2018 08:54 6,6 °C 69 % 1001,0 hPa 0,0 mm 20,9 km/h (4 Bft) W-SW 250 ° 0 min 0,000 mm 0,0 UV-I 30 W/m² 1,3 °C 3,0 °C 37,0 km/h (5 Bft)
16.01.2018 08:55 6,6 °C 69 % 1000,9 hPa 0,0 mm 17,9 km/h (3 Bft) W-NW 290 ° 0 min 0,000 mm 0,0 UV-I 23 W/m² 1,3 °C 3,3 °C 24,1 km/h (4 Bft)
16.01.2018 08:56 6,6 °C 68 % 1000,9 hPa 0,0 mm 23,2 km/h (4 Bft) W 281 ° 0 min 0,000 mm 0,0 UV-I 23 W/m² 1,1 °C 2,7 °C 38,6 km/h (5 Bft)
16.01.2018 08:57 6,6 °C 68 % 1000,9 hPa 0,0 mm 21,6 km/h (4 Bft) SW 219 ° 0 min 0,000 mm 0,0 UV-I 26 W/m² 1,1 °C 2,9 °C 32,2 km/h (5 Bft)
16.01.2018 08:58 6,6 °C 68 % 1000,9 hPa 0,0 mm 16,2 km/h (3 Bft) W 270 ° 0 min 0,000 mm 0,0 UV-I 35 W/m² 1,1 °C 3,6 °C 20,9 km/h (4 Bft)
16.01.2018 08:59 6,6 °C 68 % 1000,9 hPa 0,0 mm 17,4 km/h (3 Bft) W-NW 301 ° 0 min 0,000 mm 0,0 UV-I 47 W/m² 1,1 °C 3,4 °C 22,5 km/h (4 Bft)
16.01.2018 09:00 6,7 °C 68 % 1000,9 hPa 0,0 mm 15,2 km/h (3 Bft) W-NW 296 ° 0 min 0,000 mm 0,0 UV-I 69 W/m² 1,2 °C 3,8 °C 22,5 km/h (4 Bft)
16.01.2018 09:01 6,7 °C 68 % 1000,9 hPa 0,0 mm 17,2 km/h (3 Bft) W 279 ° 0 min 0,050 mm 0,0 UV-I 62 W/m² 1,2 °C 3,5 °C 22,5 km/h (4 Bft)
16.01.2018 09:02 6,6 °C 68 % 1000,8 hPa 0,0 mm 15,3 km/h (3 Bft) W-SW 246 ° 0 min 0,000 mm 0,0 UV-I 39 W/m² 1,1 °C 3,7 °C 20,9 km/h (4 Bft)
16.01.2018 09:03 6,6 °C 69 % 1000,8 hPa 0,0 mm 10,9 km/h (2 Bft) W 281 ° 0 min 0,000 mm 0,0 UV-I 32 W/m² 1,3 °C 4,4 °C 22,5 km/h (4 Bft)
16.01.2018 09:04 6,6 °C 68 % 1000,8 hPa 0,0 mm 13,9 km/h (3 Bft) W-SW 253 ° 0 min 0,000 mm 0,0 UV-I 42 W/m² 1,1 °C 3,9 °C 20,9 km/h (4 Bft)
16.01.2018 09:05 6,7 °C 68 % 1000,8 hPa 0,0 mm 16,0 km/h (3 Bft) W 270 ° 0 min 0,000 mm 0,0 UV-I 49 W/m² 1,2 °C 3,7 °C 29,0 km/h (5 Bft)
16.01.2018 09:06 6,7 °C 68 % 1000,8 hPa 0,0 mm 16,0 km/h (3 Bft) W 269 ° 0 min 0,000 mm 0,0 UV-I 35 W/m² 1,2 °C 3,7 °C 20,9 km/h (4 Bft)
16.01.2018 09:07 6,7 °C 67 % 1000,8 hPa 0,0 mm 14,4 km/h (3 Bft) W-NW 292 ° 0 min 0,000 mm 0,0 UV-I 12 W/m² 1,0 °C 3,9 °C 20,9 km/h (4 Bft)
16.01.2018 09:08 6,7 °C 68 % 1000,8 hPa 0,0 mm 22,7 km/h (4 Bft) W 264 ° 0 min 0,000 mm 0,0 UV-I 12 W/m² 1,2 °C 2,9 °C 35,4 km/h (5 Bft)
16.01.2018 09:09 6,7 °C 67 % 1000,9 hPa 0,0 mm 23,1 km/h (4 Bft) W 265 ° 0 min 0,000 mm 0,0 UV-I 14 W/m² 1,0 °C 2,9 °C 30,6 km/h (5 Bft)
16.01.2018 09:10 6,8 °C 67 % 1000,9 hPa 0,0 mm 16,5 km/h (3 Bft) W 281 ° 0 min 0,000 mm 0,0 UV-I 11 W/m² 1,1 °C 3,8 °C 25,7 km/h (4 Bft)
16.01.2018 09:11 6,8 °C 68 % 1000,9 hPa 0,0 mm 20,9 km/h (4 Bft) W-SW 237 ° 0 min 0,000 mm 0,0 UV-I 9 W/m² 1,3 °C 3,2 °C 43,5 km/h (6 Bft)
16.01.2018 09:12 6,8 °C 68 % 1001,0 hPa 0,0 mm 27,8 km/h (4 Bft) W 260 ° 0 min 0,000 mm 0,0 UV-I 11 W/m² 1,3 °C 2,6 °C 41,8 km/h (6 Bft)
16.01.2018 09:13 6,8 °C 69 % 1001,2 hPa 0,0 mm 20,9 km/h (4 Bft) SW 225 ° 0 min 0,000 mm 0,0 UV-I 14 W/m² 1,5 °C 3,2 °C 33,8 km/h (5 Bft)
16.01.2018 09:14 6,8 °C 70 % 1001,0 hPa 0,0 mm 25,3 km/h (4 Bft) W-SW 248 ° 0 min 0,000 mm 0,0 UV-I 18 W/m² 1,7 °C 2,8 °C 40,2 km/h (6 Bft)
16.01.2018 09:15 6,7 °C 70 % 1001,1 hPa 0,0 mm 20,0 km/h (4 Bft) W 265 ° 0 min 0,000 mm 0,0 UV-I 16 W/m² 1,6 °C 3,2 °C 30,6 km/h (5 Bft)
16.01.2018 09:16 6,7 °C 70 % 1001,2 hPa 0,0 mm 26,8 km/h (4 Bft) W 264 ° 0 min 0,000 mm 0,0 UV-I 12 W/m² 1,6 °C 2,5 °C 45,1 km/h (6 Bft)
16.01.2018 09:17 6,7 °C 71 % 1001,3 hPa 0,0 mm 37,7 km/h (5 Bft) W-NW 288 ° 0 min 0,000 mm 0,0 UV-I 11 W/m² 1,8 °C 1,7 °C 56,3 km/h (7 Bft)
16.01.2018 09:18 6,7 °C 72 % 1001,4 hPa 0,0 mm 19,2 km/h (3 Bft) W-NW 297 ° 0 min 0,000 mm 0,0 UV-I 14 W/m² 2,0 °C 3,3 °C 30,6 km/h (5 Bft)
16.01.2018 09:19 6,6 °C 72 % 1001,4 hPa 0,0 mm 14,6 km/h (3 Bft) W-SW 256 ° 0 min 0,000 mm 0,0 UV-I 18 W/m² 1,9 °C 3,8 °C 22,5 km/h (4 Bft)
16.01.2018 09:20 6,6 °C 73 % 1001,3 hPa 0,0 mm 20,8 km/h (4 Bft) W 266 ° 0 min 0,000 mm 0,0 UV-I 21 W/m² 2,1 °C 3,0 °C 30,6 km/h (5 Bft)
16.01.2018 09:21 6,4 °C 74 % 1001,3 hPa 0,0 mm 24,6 km/h (4 Bft) W 263 ° 0 min 0,000 mm 0,0 UV-I 26 W/m² 2,1 °C 2,4 °C 37,0 km/h (5 Bft)
16.01.2018 09:22 6,4 °C 75 % 1001,4 hPa 0,0 mm 23,6 km/h (4 Bft) W 274 ° 0 min 0,000 mm 0,0 UV-I 32 W/m² 2,3 °C 2,5 °C 30,6 km/h (5 Bft)
16.01.2018 09:23 6,3 °C 76 % 1001,4 hPa 0,0 mm 17,8 km/h (3 Bft) W 273 ° 0 min 0,000 mm 0,0 UV-I 39 W/m² 2,4 °C 3,0 °C 20,9 km/h (4 Bft)
16.01.2018 09:24 6,2 °C 76 % 1001,3 hPa 0,0 mm 25,2 km/h (4 Bft) W-SW 237 ° 0 min 0,000 mm 0,0 UV-I 53 W/m² 2,3 °C 2,0 °C 40,2 km/h (6 Bft)
16.01.2018 09:25 6,1 °C 76 % 1001,3 hPa 0,0 mm 23,9 km/h (4 Bft) W-NW 295 ° 0 min 0,000 mm 0,0 UV-I 70 W/m² 2,2 °C 2,0 °C 32,2 km/h (5 Bft)
16.01.2018 09:26 6,1 °C 76 % 1001,2 hPa 0,0 mm 18,2 km/h (3 Bft) W-NW 283 ° 0 min 0,000 mm 0,0 UV-I 83 W/m² 2,2 °C 2,7 °C 24,1 km/h (4 Bft)
16.01.2018 09:27 6,0 °C 77 % 1001,1 hPa 0,0 mm 16,7 km/h (3 Bft) W 268 ° 0 min 0,000 mm 0,0 UV-I 86 W/m² 2,3 °C 2,7 °C 20,9 km/h (4 Bft)
16.01.2018 09:28 5,9 °C 77 % 1001,2 hPa 0,0 mm 17,1 km/h (3 Bft) SW 228 ° 0 min 0,000 mm 0,0 UV-I 88 W/m² 2,2 °C 2,6 °C 25,7 km/h (4 Bft)
16.01.2018 09:29 5,8 °C 77 % 1001,1 hPa 0,0 mm 12,5 km/h (3 Bft) W 267 ° 0 min 0,000 mm 0,0 UV-I 83 W/m² 2,1 °C 3,1 °C 22,5 km/h (4 Bft)
16.01.2018 09:30 5,8 °C 77 % 1001,1 hPa 0,0 mm 9,9 km/h (2 Bft) W-SW 257 ° 0 min 0,000 mm 0,0 UV-I 67 W/m² 2,1 °C 3,6 °C 16,1 km/h (3 Bft)
16.01.2018 09:31 5,8 °C 78 % 1001,0 hPa 0,0 mm 17,4 km/h (3 Bft) W 265 ° 0 min 0,000 mm 0,0 UV-I 60 W/m² 2,3 °C 2,4 °C 29,0 km/h (5 Bft)
16.01.2018 09:32 5,7 °C 77 % 1001,0 hPa 0,0 mm 16,8 km/h (3 Bft) W-SW 257 ° 0 min 0,000 mm 0,0 UV-I 56 W/m² 2,0 °C 2,4 °C 24,1 km/h (4 Bft)
16.01.2018 09:33 5,7 °C 77 % 1001,1 hPa 0,0 mm 15,7 km/h (3 Bft) W 272 ° 0 min 0,000 mm 0,0 UV-I 54 W/m² 2,0 °C 2,5 °C 20,9 km/h (4 Bft)
16.01.2018 09:34 5,7 °C 78 % 1001,0 hPa 0,0 mm 14,8 km/h (3 Bft) W 270 ° 0 min 0,000 mm 0,0 UV-I 56 W/m² 2,2 °C 2,6 °C 22,5 km/h (4 Bft)
16.01.2018 09:35 5,7 °C 78 % 1001,1 hPa 0,0 mm 12,2 km/h (2 Bft) W 277 ° 0 min 0,000 mm 0,0 UV-I 60 W/m² 2,2 °C 3,1 °C 16,1 km/h (3 Bft)
16.01.2018 09:36 5,7 °C 78 % 1001,2 hPa 0,0 mm 13,2 km/h (3 Bft) W-NW 299 ° 0 min 0,000 mm 0,0 UV-I 51 W/m² 2,2 °C 2,9 °C 20,9 km/h (4 Bft)
16.01.2018 09:37 5,7 °C 78 % 1001,1 hPa 0,0 mm 15,3 km/h (3 Bft) W 263 ° 0 min 0,000 mm 0,0 UV-I 40 W/m² 2,2 °C 2,6 °C 17,7 km/h (3 Bft)
16.01.2018 09:38 5,7 °C 78 % 1001,2 hPa 0,0 mm 12,1 km/h (2 Bft) W-SW 252 ° 0 min 0,000 mm 0,0 UV-I 32 W/m² 2,2 °C 3,1 °C 17,7 km/h (3 Bft)
16.01.2018 09:39 5,6 °C 78 % 1001,2 hPa 0,0 mm 10,6 km/h (2 Bft) W 271 ° 0 min 0,000 mm 0,0 UV-I 30 W/m² 2,1 °C 3,3 °C 16,1 km/h (3 Bft)
16.01.2018 09:40 5,6 °C 78 % 1001,1 hPa 0,0 mm 15,9 km/h (3 Bft) W 265 ° 0 min 0,000 mm 0,0 UV-I 26 W/m² 2,1 °C 2,4 °C 19,3 km/h (3 Bft)
16.01.2018 09:41 5,6 °C 78 % 1001,1 hPa 0,0 mm 12,9 km/h (3 Bft) W 269 ° 0 min 0,000 mm 0,0 UV-I 28 W/m² 2,1 °C 2,8 °C 16,1 km/h (3 Bft)
16.01.2018 09:42 5,6 °C 78 % 1001,1 hPa 0,0 mm 14,6 km/h (3 Bft) W-SW 249 ° 0 min 0,000 mm 0,0 UV-I 39 W/m² 2,1 °C 2,5 °C 19,3 km/h (3 Bft)
16.01.2018 09:43 5,6 °C 78 % 1001,0 hPa 0,0 mm 9,3 km/h (2 Bft) W-NW 284 ° 0 min 0,000 mm 0,0 UV-I 47 W/m² 2,1 °C 3,5 °C 14,5 km/h (3 Bft)
16.01.2018 09:44 5,6 °C 78 % 1001,0 hPa 0,0 mm 14,2 km/h (3 Bft) W 263 ° 0 min 0,000 mm 0,0 UV-I 53 W/m² 2,1 °C 2,6 °C 17,7 km/h (3 Bft)
16.01.2018 09:45 5,6 °C 78 % 1001,0 hPa 0,0 mm 9,8 km/h (2 Bft) W-NW 284 ° 0 min 0,000 mm 0,0 UV-I 54 W/m² 2,1 °C 3,4 °C 12,9 km/h (3 Bft)
16.01.2018 09:46 5,6 °C 79 % 1001,2 hPa 0,0 mm 8,5 km/h (2 Bft) NW 305 ° 0 min 0,000 mm 0,0 UV-I 47 W/m² 2,3 °C 3,7 °C 14,5 km/h (3 Bft)
16.01.2018 09:47 5,6 °C 78 % 1001,0 hPa 0,0 mm 8,7 km/h (2 Bft) W-NW 294 ° 0 min 0,000 mm 0,0 UV-I 30 W/m² 2,1 °C 3,7 °C 14,5 km/h (3 Bft)
16.01.2018 09:48 5,6 °C 79 % 1001,1 hPa 0,0 mm 10,1 km/h (2 Bft) W 265 ° 0 min 0,000 mm 0,0 UV-I 32 W/m² 2,3 °C 3,4 °C 12,9 km/h (3 Bft)
16.01.2018 09:49 5,6 °C 79 % 1001,2 hPa 0,0 mm 12,4 km/h (3 Bft) W 266 ° 0 min 0,000 mm 0,0 UV-I 33 W/m² 2,3 °C 2,9 °C 17,7 km/h (3 Bft)
16.01.2018 09:50 5,6 °C 78 % 1001,3 hPa 0,0 mm 8,4 km/h (2 Bft) W-NW 286 ° 0 min 0,000 mm 0,0 UV-I 35 W/m² 2,1 °C 3,7 °C 12,9 km/h (3 Bft)
16.01.2018 09:51 5,6 °C 79 % 1001,5 hPa 0,0 mm 11,1 km/h (2 Bft) W 273 ° 0 min 0,000 mm 0,0 UV-I 35 W/m² 2,3 °C 3,2 °C 17,7 km/h (3 Bft)
16.01.2018 09:52 5,6 °C 79 % 1001,5 hPa 0,0 mm 9,9 km/h (2 Bft) W-SW 246 ° 0 min 0,000 mm 0,0 UV-I 37 W/m² 2,3 °C 3,4 °C 19,3 km/h (3 Bft)
16.01.2018 09:53 5,5 °C 79 % 1001,5 hPa 0,0 mm 10,5 km/h (2 Bft) W-NW 289 ° 0 min 0,000 mm 0,0 UV-I 28 W/m² 2,2 °C 3,2 °C 17,7 km/h (3 Bft)
16.01.2018 09:54 5,5 °C 79 % 1001,5 hPa 0,0 mm 9,3 km/h (2 Bft) W-NW 283 ° 0 min 0,000 mm 0,0 UV-I 35 W/m² 2,2 °C 3,4 °C 12,9 km/h (3 Bft)
16.01.2018 09:55 5,5 °C 79 % 1001,6 hPa 0,0 mm 9,1 km/h (2 Bft) W-SW 246 ° 0 min 0,000 mm 0,0 UV-I 44 W/m² 2,2 °C 3,5 °C 14,5 km/h (3 Bft)
16.01.2018 09:56 5,5 °C 80 % 1001,7 hPa 0,0 mm 7,2 km/h (2 Bft) W 261 ° 0 min 0,000 mm 0,0 UV-I 44 W/m² 2,3 °C 3,9 °C 12,9 km/h (3 Bft)
16.01.2018 09:57 5,5 °C 80 % 1001,6 hPa 0,0 mm 10,3 km/h (2 Bft) W 260 ° 0 min 0,000 mm 0,0 UV-I 47 W/m² 2,3 °C 3,2 °C 14,5 km/h (3 Bft)
16.01.2018 09:58 5,5 °C 80 % 1001,8 hPa 0,0 mm 16,1 km/h (3 Bft) W 273 ° 0 min 0,000 mm 0,0 UV-I 40 W/m² 2,3 °C 2,2 °C 38,6 km/h (5 Bft)
16.01.2018 09:59 5,4 °C 80 % 1001,8 hPa 0,0 mm 28,3 km/h (4 Bft) SW 232 ° 0 min 0,000 mm 0,0 UV-I 40 W/m² 2,2 °C 0,7 °C 46,7 km/h (6 Bft)
16.01.2018 10:00 5,4 °C 80 % 1001,8 hPa 0,0 mm 22,1 km/h (4 Bft) W-SW 252 ° 0 min 0,000 mm 0,0 UV-I 33 W/m² 2,2 °C 1,3 °C 35,4 km/h (5 Bft)
16.01.2018 10:01 5,4 °C 80 % 1001,8 hPa 0,0 mm 22,7 km/h (4 Bft) W 268 ° 0 min 0,051 mm 0,0 UV-I 39 W/m² 2,2 °C 1,3 °C 37,0 km/h (5 Bft)
16.01.2018 10:02 5,4 °C 80 % 1001,7 hPa 0,0 mm 27,5 km/h (4 Bft) W 274 ° 0 min 0,000 mm 0,0 UV-I 42 W/m² 2,2 °C 0,8 °C 37,0 km/h (5 Bft)
16.01.2018 10:03 5,4 °C 80 % 1001,7 hPa 0,0 mm 20,2 km/h (4 Bft) W 270 ° 0 min 0,000 mm 0,0 UV-I 37 W/m² 2,2 °C 1,5 °C 33,8 km/h (5 Bft)
16.01.2018 10:04 5,4 °C 80 % 1001,6 hPa 0,0 mm 13,8 km/h (3 Bft) W-SW 244 ° 0 min 0,000 mm 0,0 UV-I 46 W/m² 2,2 °C 2,4 °C 19,3 km/h (3 Bft)
16.01.2018 10:05 5,4 °C 81 % 1001,6 hPa 0,0 mm 19,2 km/h (3 Bft) W 277 ° 0 min 0,000 mm 0,7 UV-I 56 W/m² 2,4 °C 1,7 °C 25,7 km/h (4 Bft)
16.01.2018 10:06 5,3 °C 81 % 1001,6 hPa 0,0 mm 14,2 km/h (3 Bft) S-SW 212 ° 0 min 0,000 mm 0,0 UV-I 44 W/m² 2,3 °C 2,2 °C 19,3 km/h (3 Bft)
16.01.2018 10:07 5,3 °C 81 % 1001,6 hPa 0,0 mm 19,9 km/h (4 Bft) W 273 ° 0 min 0,000 mm 0,0 UV-I 51 W/m² 2,3 °C 1,5 °C 27,4 km/h (4 Bft)
16.01.2018 10:08 5,3 °C 81 % 1001,7 hPa 0,0 mm 17,0 km/h (3 Bft) NW 315 ° 0 min 0,000 mm 0,7 UV-I 70 W/m² 2,3 °C 1,8 °C 29,0 km/h (5 Bft)
16.01.2018 10:09 5,3 °C 82 % 1001,7 hPa 0,0 mm 14,8 km/h (3 Bft) W-SW 257 ° 0 min 0,000 mm 0,7 UV-I 93 W/m² 2,5 °C 2,1 °C 24,1 km/h (4 Bft)
16.01.2018 10:10 5,2 °C 82 % 1001,6 hPa 0,0 mm 17,2 km/h (3 Bft) W 279 ° 0 min 0,000 mm 0,7 UV-I 100 W/m² 2,4 °C 1,7 °C 24,1 km/h (4 Bft)
16.01.2018 10:11 5,2 °C 82 % 1001,6 hPa 0,0 mm 10,1 km/h (2 Bft) SW 234 ° 0 min 0,000 mm 0,7 UV-I 102 W/m² 2,4 °C 2,9 °C 12,9 km/h (3 Bft)
16.01.2018 10:12 5,2 °C 82 % 1001,6 hPa 0,0 mm 6,0 km/h (2 Bft) W 261 ° 0 min 0,000 mm 0,7 UV-I 105 W/m² 2,4 °C 4,0 °C 8,0 km/h (2 Bft)
16.01.2018 10:13 5,2 °C 82 % 1001,6 hPa 0,0 mm 9,8 km/h (2 Bft) W 274 ° 0 min 0,000 mm 0,7 UV-I 105 W/m² 2,4 °C 2,9 °C 14,5 km/h (3 Bft)
16.01.2018 10:14 5,2 °C 83 % 1001,6 hPa 0,0 mm 11,0 km/h (2 Bft) SW 234 ° 0 min 0,000 mm 0,7 UV-I 100 W/m² 2,6 °C 2,7 °C 16,1 km/h (3 Bft)
16.01.2018 10:15 5,2 °C 82 % 1001,6 hPa 0,0 mm 16,5 km/h (3 Bft) SW 220 ° 0 min 0,000 mm 0,7 UV-I 93 W/m² 2,4 °C 1,8 °C 20,9 km/h (4 Bft)
16.01.2018 10:16 5,3 °C 83 % 1001,7 hPa 0,0 mm 10,7 km/h (2 Bft) W 277 ° 0 min 0,000 mm 0,7 UV-I 83 W/m² 2,7 °C 2,9 °C 17,7 km/h (3 Bft)
16.01.2018 10:17 5,3 °C 82 % 1001,5 hPa 0,0 mm 8,6 km/h (2 Bft) W-SW 245 ° 0 min 0,000 mm 0,7 UV-I 69 W/m² 2,5 °C 3,3 °C 12,9 km/h (3 Bft)
16.01.2018 10:18 5,3 °C 82 % 1001,4 hPa 0,0 mm 7,7 km/h (2 Bft) SW 225 ° 0 min 0,000 mm 0,8 UV-I 69 W/m² 2,5 °C 3,6 °C 17,7 km/h (3 Bft)
16.01.2018 10:19 5,3 °C 81 % 1001,4 hPa 0,0 mm 14,9 km/h (3 Bft) NW 304 ° 0 min 0,000 mm 0,8 UV-I 72 W/m² 2,3 °C 2,1 °C 20,9 km/h (4 Bft)
16.01.2018 10:20 5,3 °C 81 % 1001,3 hPa 0,0 mm 11,5 km/h (2 Bft) W 264 ° 0 min 0,000 mm 0,8 UV-I 84 W/m² 2,3 °C 2,7 °C 17,7 km/h (3 Bft)
16.01.2018 10:21 5,3 °C 81 % 1001,3 hPa 0,0 mm 11,6 km/h (2 Bft) S-SW 212 ° 0 min 0,000 mm 0,8 UV-I 107 W/m² 2,3 °C 2,7 °C 19,3 km/h (3 Bft)
16.01.2018 10:22 5,4 °C 81 % 1001,3 hPa 0,0 mm 12,6 km/h (3 Bft) W 275 ° 0 min 0,000 mm 0,8 UV-I 120 W/m² 2,4 °C 2,6 °C 19,3 km/h (3 Bft)
16.01.2018 10:23 5,4 °C 81 % 1001,2 hPa 0,0 mm 14,7 km/h (3 Bft) W-SW 258 ° 0 min 0,000 mm 0,8 UV-I 114 W/m² 2,4 °C 2,3 °C 33,8 km/h (5 Bft)
16.01.2018 10:24 5,5 °C 80 % 1001,2 hPa 0,0 mm 17,0 km/h (3 Bft) W-SW 253 ° 0 min 0,000 mm 0,8 UV-I 107 W/m² 2,3 °C 2,1 °C 27,4 km/h (4 Bft)
16.01.2018 10:25 5,6 °C 81 % 1001,2 hPa 0,0 mm 11,9 km/h (2 Bft) W 267 ° 0 min 0,000 mm 0,8 UV-I 90 W/m² 2,6 °C 3,0 °C 20,9 km/h (4 Bft)
16.01.2018 10:26 5,6 °C 81 % 1001,3 hPa 0,0 mm 14,2 km/h (3 Bft) W-SW 258 ° 0 min 0,000 mm 0,8 UV-I 74 W/m² 2,6 °C 2,6 °C 20,9 km/h (4 Bft)
16.01.2018 10:27 5,6 °C 81 % 1001,2 hPa 0,0 mm 9,6 km/h (2 Bft) W 274 ° 0 min 0,000 mm 0,8 UV-I 60 W/m² 2,6 °C 3,5 °C 16,1 km/h (3 Bft)
16.01.2018 10:28 5,6 °C 80 % 1000,9 hPa 0,0 mm 13,6 km/h (3 Bft) W 280 ° 0 min 0,000 mm 0,8 UV-I 97 W/m² 2,4 °C 2,7 °C 20,9 km/h (4 Bft)
16.01.2018 10:29 5,6 °C 79 % 1000,9 hPa 0,0 mm 11,3 km/h (2 Bft) W 263 ° 0 min 0,000 mm 0,8 UV-I 97 W/m² 2,3 °C 3,1 °C 17,7 km/h (3 Bft)
16.01.2018 10:30 5,7 °C 79 % 1001,0 hPa 0,0 mm 18,0 km/h (3 Bft) W 265 ° 0 min 0,000 mm 0,7 UV-I 93 W/m² 2,3 °C 2,2 °C 27,4 km/h (4 Bft)
16.01.2018 10:31 5,8 °C 78 % 1001,1 hPa 0,0 mm 14,7 km/h (3 Bft) W-SW 247 ° 0 min 0,000 mm 0,6 UV-I 76 W/m² 2,3 °C 2,8 °C 22,5 km/h (4 Bft)
16.01.2018 10:32 5,8 °C 79 % 1001,1 hPa 0,0 mm 10,6 km/h (2 Bft) SW 219 ° 0 min 0,000 mm 0,0 UV-I 47 W/m² 2,4 °C 3,5 °C 14,5 km/h (3 Bft)
16.01.2018 10:33 5,8 °C 78 % 1001,2 hPa 0,0 mm 22,6 km/h (4 Bft) W 267 ° 0 min 0,000 mm 0,0 UV-I 28 W/m² 2,3 °C 1,8 °C 38,6 km/h (5 Bft)
16.01.2018 10:34 5,8 °C 78 % 1001,1 hPa 0,0 mm 10,7 km/h (2 Bft) S-SW 209 ° 0 min 0,000 mm 0,0 UV-I 19 W/m² 2,3 °C 3,5 °C 19,3 km/h (3 Bft)
16.01.2018 10:35 5,8 °C 77 % 1001,2 hPa 0,0 mm 12,5 km/h (3 Bft) W-NW 284 ° 0 min 0,000 mm 0,0 UV-I 23 W/m² 2,1 °C 3,1 °C 19,3 km/h (3 Bft)
16.01.2018 10:36 5,8 °C 77 % 1001,2 hPa 0,0 mm 10,4 km/h (2 Bft) W-SW 254 ° 0 min 0,000 mm 0,0 UV-I 23 W/m² 2,1 °C 3,5 °C 14,5 km/h (3 Bft)
16.01.2018 10:37 5,9 °C 77 % 1001,3 hPa 0,0 mm 15,8 km/h (3 Bft) W 263 ° 0 min 0,000 mm 0,0 UV-I 16 W/m² 2,2 °C 2,7 °C 22,5 km/h (4 Bft)
16.01.2018 10:38 5,9 °C 77 % 1001,3 hPa 0,0 mm 15,0 km/h (3 Bft) W-NW 296 ° 0 min 0,000 mm 0,0 UV-I 14 W/m² 2,2 °C 2,9 °C 25,7 km/h (4 Bft)
16.01.2018 10:39 5,9 °C 77 % 1001,4 hPa 0,0 mm 13,5 km/h (3 Bft) W 279 ° 0 min 0,000 mm 0,0 UV-I 16 W/m² 2,2 °C 3,1 °C 20,9 km/h (4 Bft)
16.01.2018 10:40 5,9 °C 77 % 1001,4 hPa 0,0 mm 13,1 km/h (3 Bft) SW 221 ° 0 min 0,000 mm 0,0 UV-I 19 W/m² 2,2 °C 3,2 °C 20,9 km/h (4 Bft)
16.01.2018 10:41 5,8 °C 77 % 1001,4 hPa 0,0 mm 12,7 km/h (3 Bft) W 263 ° 0 min 0,000 mm 0,0 UV-I 21 W/m² 2,1 °C 3,1 °C 40,2 km/h (6 Bft)
16.01.2018 10:42 5,8 °C 77 % 1001,3 hPa 0,0 mm 20,3 km/h (4 Bft) W-SW 242 ° 0 min 0,000 mm 0,0 UV-I 28 W/m² 2,1 °C 2,0 °C 38,6 km/h (5 Bft)
16.01.2018 10:43 5,8 °C 78 % 1001,2 hPa 0,0 mm 24,0 km/h (4 Bft) NW 309 ° 0 min 0,000 mm 0,0 UV-I 35 W/m² 2,3 °C 1,6 °C 30,6 km/h (5 Bft)
16.01.2018 10:44 5,8 °C 78 % 1001,3 hPa 0,0 mm 22,0 km/h (4 Bft) W-SW 252 ° 0 min 0,000 mm 0,0 UV-I 35 W/m² 2,3 °C 1,9 °C 29,0 km/h (5 Bft)
16.01.2018 10:45 5,8 °C 78 % 1001,3 hPa 0,0 mm 22,1 km/h (4 Bft) W 267 ° 0 min 0,000 mm 0,0 UV-I 33 W/m² 2,3 °C 1,8 °C 30,6 km/h (5 Bft)
16.01.2018 10:46 5,8 °C 78 % 1001,3 hPa 0,0 mm 22,4 km/h (4 Bft) W-SW 256 ° 0 min 0,000 mm 0,0 UV-I 33 W/m² 2,3 °C 1,8 °C 32,2 km/h (5 Bft)
16.01.2018 10:47 5,8 °C 78 % 1001,0 hPa 0,0 mm 20,5 km/h (4 Bft) SW 221 ° 0 min 0,000 mm 0,0 UV-I 37 W/m² 2,3 °C 2,0 °C 32,2 km/h (5 Bft)
16.01.2018 10:48 5,8 °C 78 % 1001,3 hPa 0,0 mm 15,3 km/h (3 Bft) W 261 ° 0 min 0,000 mm 0,0 UV-I 37 W/m² 2,3 °C 2,7 °C 19,3 km/h (3 Bft)
16.01.2018 10:49 5,7 °C 78 % 1001,3 hPa 0,0 mm 14,4 km/h (3 Bft) W 267 ° 0 min 0,000 mm 0,0 UV-I 39 W/m² 2,2 °C 2,7 °C 19,3 km/h (3 Bft)
16.01.2018 10:50 5,7 °C 78 % 1001,2 hPa 0,0 mm 11,7 km/h (2 Bft) W 261 ° 0 min 0,000 mm 0,0 UV-I 40 W/m² 2,2 °C 3,2 °C 19,3 km/h (3 Bft)
16.01.2018 10:51 5,7 °C 78 % 1001,3 hPa 0,0 mm 18,6 km/h (3 Bft) W 269 ° 0 min 0,000 mm 0,0 UV-I 47 W/m² 2,2 °C 2,1 °C 24,1 km/h (4 Bft)
16.01.2018 10:52 5,7 °C 78 % 1001,3 hPa 0,0 mm 21,9 km/h (4 Bft) W-SW 251 ° 0 min 0,000 mm 0,0 UV-I 58 W/m² 2,2 °C 1,7 °C 33,8 km/h (5 Bft)
16.01.2018 10:53 5,7 °C 79 % 1001,3 hPa 0,0 mm 13,9 km/h (3 Bft) W-NW 296 ° 0 min 0,000 mm 0,0 UV-I 58 W/m² 2,3 °C 2,8 °C 20,9 km/h (4 Bft)
16.01.2018 10:54 5,7 °C 79 % 1001,3 hPa 0,0 mm 20,7 km/h (4 Bft) W 278 ° 0 min 0,000 mm 0,0 UV-I 47 W/m² 2,3 °C 1,9 °C 25,7 km/h (4 Bft)
16.01.2018 10:55 5,7 °C 79 % 1001,4 hPa 0,0 mm 23,5 km/h (4 Bft) W 278 ° 0 min 0,000 mm 0,0 UV-I 49 W/m² 2,3 °C 1,6 °C 27,4 km/h (4 Bft)
16.01.2018 10:56 5,7 °C 80 % 1001,4 hPa 0,0 mm 13,7 km/h (3 Bft) W-SW 251 ° 0 min 0,000 mm 0,0 UV-I 53 W/m² 2,5 °C 2,8 °C 19,3 km/h (3 Bft)
16.01.2018 10:57 5,7 °C 80 % 1001,3 hPa 0,0 mm 13,7 km/h (3 Bft) W-SW 257 ° 0 min 0,000 mm 0,0 UV-I 46 W/m² 2,5 °C 2,8 °C 20,9 km/h (4 Bft)
16.01.2018 10:58 5,6 °C 80 % 1001,4 hPa 0,0 mm 10,2 km/h (2 Bft) W-SW 245 ° 0 min 0,000 mm 0,0 UV-I 40 W/m² 2,4 °C 3,3 °C 14,5 km/h (3 Bft)
16.01.2018 10:59 5,6 °C 81 % 1001,5 hPa 0,0 mm 14,6 km/h (3 Bft) W 263 ° 0 min 0,000 mm 0,0 UV-I 40 W/m² 2,6 °C 2,5 °C 30,6 km/h (5 Bft)
16.01.2018 11:00 5,6 °C 81 % 1001,5 hPa 0,0 mm 17,2 km/h (3 Bft) W 277 ° 0 min 0,000 mm 0,0 UV-I 37 W/m² 2,6 °C 2,2 °C 30,6 km/h (5 Bft)
16.01.2018 11:01 5,6 °C 81 % 1001,4 hPa 0,0 mm 15,4 km/h (3 Bft) W 266 ° 0 min 0,051 mm 0,0 UV-I 35 W/m² 2,6 °C 2,4 °C 20,9 km/h (4 Bft)
16.01.2018 11:02 5,5 °C 81 % 1001,4 hPa 0,0 mm 14,7 km/h (3 Bft) W 271 ° 0 min 0,000 mm 0,0 UV-I 32 W/m² 2,5 °C 2,4 °C 24,1 km/h (4 Bft)
16.01.2018 11:03 5,5 °C 81 % 1001,4 hPa 0,0 mm 18,7 km/h (3 Bft) W 273 ° 0 min 0,000 mm 0,0 UV-I 33 W/m² 2,5 °C 1,9 °C 29,0 km/h (5 Bft)
16.01.2018 11:04 5,4 °C 81 % 1001,3 hPa 0,0 mm 15,8 km/h (3 Bft) W-SW 244 ° 0 min 0,000 mm 0,0 UV-I 33 W/m² 2,4 °C 2,1 °C 19,3 km/h (3 Bft)
16.01.2018 11:05 5,4 °C 81 % 1001,4 hPa 0,0 mm 11,3 km/h (2 Bft) W-SW 254 ° 0 min 0,000 mm 0,0 UV-I 26 W/m² 2,4 °C 2,9 °C 19,3 km/h (3 Bft)
16.01.2018 11:06 5,4 °C 81 % 1001,4 hPa 0,0 mm 15,0 km/h (3 Bft) W-SW 240 ° 0 min 0,000 mm 0,0 UV-I 26 W/m² 2,4 °C 2,2 °C 20,9 km/h (4 Bft)
16.01.2018 11:07 5,4 °C 81 % 1001,4 hPa 0,0 mm 19,6 km/h (3 Bft) W 267 ° 0 min 0,000 mm 0,0 UV-I 30 W/m² 2,4 °C 1,6 °C 24,1 km/h (4 Bft)
16.01.2018 11:08 5,4 °C 81 % 1001,4 hPa 0,0 mm 13,5 km/h (3 Bft) W 261 ° 0 min 0,000 mm 0,0 UV-I 32 W/m² 2,4 °C 2,5 °C 22,5 km/h (4 Bft)
16.01.2018 11:09 5,4 °C 81 % 1001,5 hPa 0,0 mm 16,1 km/h (3 Bft) W 263 ° 0 min 0,000 mm 0,0 UV-I 26 W/m² 2,4 °C 2,1 °C 24,1 km/h (4 Bft)
16.01.2018 11:10 5,3 °C 82 % 1001,5 hPa 0,0 mm 19,4 km/h (3 Bft) W 276 ° 0 min 0,000 mm 0,0 UV-I 28 W/m² 2,5 °C 1,5 °C 25,7 km/h (4 Bft)
16.01.2018 11:11 5,3 °C 82 % 1001,5 hPa 0,0 mm 14,1 km/h (3 Bft) W 281 ° 0 min 0,000 mm 0,0 UV-I 28 W/m² 2,5 °C 2,3 °C 24,1 km/h (4 Bft)
16.01.2018 11:12 5,3 °C 81 % 1001,5 hPa 0,0 mm 11,0 km/h (2 Bft) W 278 ° 0 min 0,000 mm 0,0 UV-I 32 W/m² 2,3 °C 2,8 °C 16,1 km/h (3 Bft)
16.01.2018 11:13 5,3 °C 81 % 1001,4 hPa 0,0 mm 18,2 km/h (3 Bft) W 269 ° 0 min 0,000 mm 0,0 UV-I 33 W/m² 2,3 °C 1,7 °C 32,2 km/h (5 Bft)
16.01.2018 11:14 5,3 °C 81 % 1001,3 hPa 0,2 mm 23,6 km/h (4 Bft) W-NW 283 ° 0 min 0,000 mm 0,0 UV-I 28 W/m² 2,3 °C 1,0 °C 30,6 km/h (5 Bft)
16.01.2018 11:15 5,3 °C 81 % 1001,5 hPa 0,0 mm 11,6 km/h (2 Bft) W-NW 282 ° 0 min 0,000 mm 0,0 UV-I 28 W/m² 2,3 °C 2,7 °C 19,3 km/h (3 Bft)
16.01.2018 11:16 5,3 °C 81 % 1001,3 hPa 0,0 mm 11,0 km/h (2 Bft) W 270 ° 0 min 0,000 mm 0,0 UV-I 26 W/m² 2,3 °C 2,8 °C 16,1 km/h (3 Bft)
16.01.2018 11:17 5,3 °C 81 % 1001,4 hPa 0,0 mm 13,6 km/h (3 Bft) NW 317 ° 0 min 0,000 mm 0,0 UV-I 26 W/m² 2,3 °C 2,3 °C 27,4 km/h (4 Bft)
16.01.2018 11:18 5,3 °C 81 % 1001,3 hPa 0,0 mm 13,1 km/h (3 Bft) W-NW 300 ° 0 min 0,000 mm 0,0 UV-I 35 W/m² 2,3 °C 2,4 °C 27,4 km/h (4 Bft)
16.01.2018 11:19 5,3 °C 81 % 1001,4 hPa 0,0 mm 12,5 km/h (3 Bft) W-NW 290 ° 0 min 0,000 mm 0,0 UV-I 37 W/m² 2,3 °C 2,5 °C 20,9 km/h (4 Bft)
16.01.2018 11:20 5,3 °C 81 % 1001,5 hPa 0,0 mm 19,6 km/h (3 Bft) W 269 ° 0 min 0,000 mm 0,0 UV-I 33 W/m² 2,3 °C 1,5 °C 27,4 km/h (4 Bft)
16.01.2018 11:21 5,3 °C 81 % 1001,5 hPa 0,0 mm 24,4 km/h (4 Bft) W-NW 282 ° 0 min 0,000 mm 0,0 UV-I 30 W/m² 2,3 °C 1,0 °C 40,2 km/h (6 Bft)
16.01.2018 11:22 5,3 °C 81 % 1001,5 hPa 0,0 mm 22,5 km/h (4 Bft) W 262 ° 0 min 0,000 mm 0,0 UV-I 37 W/m² 2,3 °C 1,2 °C 41,8 km/h (6 Bft)
16.01.2018 11:23 5,3 °C 81 % 1001,4 hPa 0,0 mm 15,4 km/h (3 Bft) W-NW 286 ° 0 min 0,000 mm 0,0 UV-I 44 W/m² 2,3 °C 2,1 °C 29,0 km/h (5 Bft)
16.01.2018 11:24 5,3 °C 81 % 1001,4 hPa 0,0 mm 19,9 km/h (4 Bft) W 268 ° 0 min 0,000 mm 0,0 UV-I 47 W/m² 2,3 °C 1,5 °C 25,7 km/h (4 Bft)
16.01.2018 11:25 5,3 °C 81 % 1001,4 hPa 0,0 mm 15,5 km/h (3 Bft) W 265 ° 0 min 0,000 mm 0,0 UV-I 54 W/m² 2,3 °C 2,0 °C 20,9 km/h (4 Bft)
16.01.2018 11:26 5,4 °C 81 % 1001,4 hPa 0,0 mm 19,7 km/h (3 Bft) W-NW 294 ° 0 min 0,000 mm 0,0 UV-I 60 W/m² 2,4 °C 1,6 °C 30,6 km/h (5 Bft)
16.01.2018 11:27 5,4 °C 81 % 1001,3 hPa 0,0 mm 12,3 km/h (3 Bft) SW 228 ° 0 min 0,000 mm 0,0 UV-I 42 W/m² 2,4 °C 2,7 °C 16,1 km/h (3 Bft)
16.01.2018 11:28 5,4 °C 81 % 1001,5 hPa 0,0 mm 13,8 km/h (3 Bft) W 264 ° 0 min 0,000 mm 0,0 UV-I 39 W/m² 2,4 °C 2,4 °C 19,3 km/h (3 Bft)
16.01.2018 11:29 5,4 °C 81 % 1001,5 hPa 0,0 mm 14,5 km/h (3 Bft) W-SW 243 ° 0 min 0,000 mm 0,0 UV-I 33 W/m² 2,4 °C 2,3 °C 24,1 km/h (4 Bft)
16.01.2018 11:30 5,4 °C 80 % 1001,4 hPa 0,0 mm 19,4 km/h (3 Bft) W-SW 257 ° 0 min 0,000 mm 0,0 UV-I 33 W/m² 2,2 °C 1,6 °C 27,4 km/h (4 Bft)
16.01.2018 11:31 5,4 °C 80 % 1001,5 hPa 0,0 mm 15,4 km/h (3 Bft) W 274 ° 0 min 0,000 mm 0,0 UV-I 37 W/m² 2,2 °C 2,2 °C 19,3 km/h (3 Bft)
16.01.2018 11:32 5,4 °C 80 % 1001,4 hPa 0,0 mm 21,5 km/h (4 Bft) W-SW 254 ° 0 min 0,000 mm 0,0 UV-I 42 W/m² 2,2 °C 1,4 °C 29,0 km/h (5 Bft)
16.01.2018 11:33 5,5 °C 80 % 1001,3 hPa 0,0 mm 15,9 km/h (3 Bft) W-SW 246 ° 0 min 0,000 mm 0,0 UV-I 49 W/m² 2,3 °C 2,2 °C 22,5 km/h (4 Bft)
16.01.2018 11:34 5,5 °C 80 % 1001,3 hPa 0,0 mm 12,3 km/h (3 Bft) W-SW 253 ° 0 min 0,000 mm 0,0 UV-I 51 W/m² 2,3 °C 2,8 °C 16,1 km/h (3 Bft)
16.01.2018 11:35 5,5 °C 79 % 1001,3 hPa 0,0 mm 12,9 km/h (3 Bft) W-SW 257 ° 0 min 0,000 mm 0,0 UV-I 49 W/m² 2,2 °C 2,7 °C 27,4 km/h (4 Bft)
16.01.2018 11:36 5,5 °C 79 % 1001,2 hPa 0,0 mm 22,9 km/h (4 Bft) W 269 ° 0 min 0,000 mm 0,0 UV-I 44 W/m² 2,2 °C 1,4 °C 32,2 km/h (5 Bft)
16.01.2018 11:37 5,6 °C 79 % 1001,1 hPa 0,0 mm 15,0 km/h (3 Bft) W-NW 299 ° 0 min 0,000 mm 0,0 UV-I 44 W/m² 2,3 °C 2,5 °C 25,7 km/h (4 Bft)
16.01.2018 11:38 5,6 °C 78 % 1001,1 hPa 0,0 mm 18,5 km/h (3 Bft) W 276 ° 0 min 0,000 mm 0,0 UV-I 46 W/m² 2,1 °C 2,0 °C 30,6 km/h (5 Bft)
16.01.2018 11:39 5,6 °C 78 % 1001,2 hPa 0,0 mm 15,8 km/h (3 Bft) W-NW 296 ° 0 min 0,000 mm 0,0 UV-I 54 W/m² 2,1 °C 2,4 °C 25,7 km/h (4 Bft)
16.01.2018 11:40 5,6 °C 78 % 1001,0 hPa 0,0 mm 13,9 km/h (3 Bft) W-SW 246 ° 0 min 0,000 mm 0,0 UV-I 53 W/m² 2,1 °C 2,7 °C 32,2 km/h (5 Bft)
16.01.2018 11:41 5,7 °C 78 % 1001,0 hPa 0,0 mm 23,3 km/h (4 Bft) SW 230 ° 0 min 0,000 mm 0,0 UV-I 53 W/m² 2,2 °C 1,6 °C 29,0 km/h (5 Bft)
16.01.2018 11:42 5,7 °C 77 % 1001,1 hPa 0,0 mm 22,7 km/h (4 Bft) W-SW 255 ° 0 min 0,000 mm 0,0 UV-I 53 W/m² 2,0 °C 1,6 °C 29,0 km/h (5 Bft)
16.01.2018 11:43 5,7 °C 77 % 1001,0 hPa 0,0 mm 13,9 km/h (3 Bft) W 271 ° 0 min 0,000 mm 0,5 UV-I 56 W/m² 2,0 °C 2,8 °C 22,5 km/h (4 Bft)
16.01.2018 11:44 5,8 °C 77 % 1001,1 hPa 0,0 mm 15,4 km/h (3 Bft) W-SW 258 ° 0 min 0,000 mm 0,6 UV-I 56 W/m² 2,1 °C 2,7 °C 35,4 km/h (5 Bft)
16.01.2018 11:45 5,8 °C 76 % 1000,9 hPa 0,0 mm 23,3 km/h (4 Bft) W-NW 301 ° 0 min 0,000 mm 0,0 UV-I 51 W/m² 1,9 °C 1,7 °C 43,5 km/h (6 Bft)
16.01.2018 11:46 5,8 °C 75 % 1000,8 hPa 0,0 mm 17,1 km/h (3 Bft) S-SW 196 ° 0 min 0,000 mm 0,0 UV-I 51 W/m² 1,7 °C 2,4 °C 25,7 km/h (4 Bft)
16.01.2018 11:47 5,9 °C 76 % 1000,9 hPa 0,0 mm 13,9 km/h (3 Bft) SW 220 ° 0 min 0,000 mm 0,0 UV-I 47 W/m² 2,0 °C 3,0 °C 25,7 km/h (4 Bft)
16.01.2018 11:48 5,9 °C 75 % 1000,9 hPa 0,0 mm 13,9 km/h (3 Bft) W-SW 258 ° 0 min 0,000 mm 0,0 UV-I 47 W/m² 1,8 °C 3,0 °C 22,5 km/h (4 Bft)
16.01.2018 11:49 6,0 °C 75 % 1000,9 hPa 0,0 mm 9,5 km/h (2 Bft) W 269 ° 0 min 0,000 mm 0,6 UV-I 58 W/m² 1,9 °C 4,0 °C 14,5 km/h (3 Bft)
16.01.2018 11:50 6,0 °C 76 % 1001,0 hPa 0,0 mm 9,2 km/h (2 Bft) W 260 ° 0 min 0,000 mm 0,6 UV-I 67 W/m² 2,1 °C 4,0 °C 19,3 km/h (3 Bft)
16.01.2018 11:51 6,1 °C 76 % 1000,9 hPa 0,0 mm 12,7 km/h (3 Bft) W 273 ° 0 min 0,000 mm 0,6 UV-I 74 W/m² 2,2 °C 3,5 °C 19,3 km/h (3 Bft)
16.01.2018 11:52 6,1 °C 75 % 1000,8 hPa 0,0 mm 15,1 km/h (3 Bft) W 269 ° 0 min 0,000 mm 0,7 UV-I 84 W/m² 2,0 °C 3,1 °C 22,5 km/h (4 Bft)
16.01.2018 11:53 6,1 °C 75 % 1000,8 hPa 0,0 mm 11,0 km/h (2 Bft) W-SW 247 ° 0 min 0,000 mm 0,6 UV-I 76 W/m² 2,0 °C 3,8 °C 16,1 km/h (3 Bft)
16.01.2018 11:54 6,1 °C 75 % 1000,7 hPa 0,0 mm 15,4 km/h (3 Bft) W 272 ° 0 min 0,000 mm 0,6 UV-I 77 W/m² 2,0 °C 3,0 °C 25,7 km/h (4 Bft)
16.01.2018 11:55 6,1 °C 75 % 1000,9 hPa 0,0 mm 19,6 km/h (3 Bft) W-NW 285 ° 0 min 0,000 mm 0,6 UV-I 86 W/m² 2,0 °C 2,5 °C 27,4 km/h (4 Bft)
16.01.2018 11:56 6,2 °C 74 % 1000,6 hPa 0,0 mm 22,2 km/h (4 Bft) W-SW 242 ° 0 min 0,000 mm 0,7 UV-I 135 W/m² 1,9 °C 2,3 °C 33,8 km/h (5 Bft)
16.01.2018 11:57 6,2 °C 74 % 1000,8 hPa 0,0 mm 24,5 km/h (4 Bft) W-SW 257 ° 0 min 0,000 mm 1,0 UV-I 142 W/m² 1,9 °C 2,1 °C 43,5 km/h (6 Bft)
16.01.2018 11:58 6,3 °C 73 % 1000,6 hPa 0,0 mm 27,1 km/h (4 Bft) W 265 ° 0 min 0,000 mm 0,9 UV-I 128 W/m² 1,8 °C 2,0 °C 33,8 km/h (5 Bft)
16.01.2018 11:59 6,3 °C 73 % 1000,6 hPa 0,0 mm 21,8 km/h (4 Bft) W 266 ° 0 min 0,000 mm 0,7 UV-I 102 W/m² 1,8 °C 2,5 °C 25,7 km/h (4 Bft)
16.01.2018 12:00 6,4 °C 72 % 1000,6 hPa 0,0 mm 25,3 km/h (4 Bft) W-SW 257 ° 0 min 0,051 mm 0,7 UV-I 84 W/m² 1,7 °C 2,3 °C 32,2 km/h (5 Bft)
16.01.2018 12:01 6,4 °C 72 % 1000,6 hPa 0,0 mm 15,0 km/h (3 Bft) W 259 ° 0 min 0,000 mm 0,8 UV-I 95 W/m² 1,7 °C 3,5 °C 29,0 km/h (5 Bft)
16.01.2018 12:02 6,5 °C 72 % 1000,3 hPa 0,0 mm 17,6 km/h (3 Bft) W-SW 243 ° 0 min 0,000 mm 0,9 UV-I 86 W/m² 1,8 °C 3,2 °C 22,5 km/h (4 Bft)
16.01.2018 12:03 6,6 °C 71 % 1000,3 hPa 0,0 mm 18,7 km/h (3 Bft) W 268 ° 0 min 0,000 mm 0,8 UV-I 88 W/m² 1,7 °C 3,2 °C 41,8 km/h (6 Bft)
16.01.2018 12:04 6,6 °C 71 % 1000,5 hPa 0,0 mm 21,3 km/h (4 Bft) W-SW 254 ° 0 min 0,000 mm 0,6 UV-I 81 W/m² 1,7 °C 2,9 °C 30,6 km/h (5 Bft)
16.01.2018 12:05 6,6 °C 72 % 1000,4 hPa 0,0 mm 21,5 km/h (4 Bft) W-NW 285 ° 0 min 0,000 mm 0,6 UV-I 77 W/m² 1,9 °C 2,9 °C 32,2 km/h (5 Bft)
16.01.2018 12:06 6,6 °C 72 % 1000,4 hPa 0,0 mm 15,0 km/h (3 Bft) W 271 ° 0 min 0,000 mm 0,5 UV-I 74 W/m² 1,9 °C 3,7 °C 20,9 km/h (4 Bft)
16.01.2018 12:07 6,6 °C 73 % 1000,4 hPa 0,0 mm 17,2 km/h (3 Bft) W 273 ° 0 min 0,000 mm 0,5 UV-I 65 W/m² 2,1 °C 3,4 °C 20,9 km/h (4 Bft)
16.01.2018 12:08 6,6 °C 72 % 1000,3 hPa 0,0 mm 21,7 km/h (4 Bft) W-SW 248 ° 0 min 0,000 mm 0,0 UV-I 58 W/m² 1,9 °C 2,9 °C 38,6 km/h (5 Bft)
16.01.2018 12:09 6,5 °C 72 % 1000,3 hPa 0,0 mm 24,3 km/h (4 Bft) W 269 ° 0 min 0,000 mm 0,0 UV-I 53 W/m² 1,8 °C 2,5 °C 33,8 km/h (5 Bft)
16.01.2018 12:10 6,6 °C 73 % 1000,3 hPa 0,0 mm 20,4 km/h (4 Bft) W-NW 300 ° 0 min 0,000 mm 0,5 UV-I 63 W/m² 2,1 °C 3,0 °C 29,0 km/h (5 Bft)
16.01.2018 12:11 6,5 °C 73 % 1000,3 hPa 0,0 mm 20,6 km/h (4 Bft) W 269 ° 0 min 0,000 mm 0,6 UV-I 86 W/m² 2,0 °C 2,9 °C 27,4 km/h (4 Bft)
16.01.2018 12:12 6,5 °C 72 % 1000,3 hPa 0,0 mm 16,6 km/h (3 Bft) W 265 ° 0 min 0,000 mm 0,7 UV-I 100 W/m² 1,8 °C 3,4 °C 27,4 km/h (4 Bft)
16.01.2018 12:13 6,4 °C 73 % 1000,2 hPa 0,0 mm 18,3 km/h (3 Bft) W 270 ° 0 min 0,000 mm 0,7 UV-I 107 W/m² 1,9 °C 3,0 °C 24,1 km/h (4 Bft)
16.01.2018 12:14 6,5 °C 72 % 1000,1 hPa 0,0 mm 21,9 km/h (4 Bft) W 271 ° 0 min 0,000 mm 0,8 UV-I 127 W/m² 1,8 °C 2,8 °C 32,2 km/h (5 Bft)
16.01.2018 12:15 6,5 °C 73 % 999,9 hPa 0,0 mm 12,8 km/h (3 Bft) W-NW 288 ° 0 min 0,000 mm 0,9 UV-I 130 W/m² 2,0 °C 3,9 °C 19,3 km/h (3 Bft)
16.01.2018 12:16 6,5 °C 73 % 1000,0 hPa 0,0 mm 18,4 km/h (3 Bft) N-NW 328 ° 0 min 0,000 mm 0,8 UV-I 116 W/m² 2,0 °C 3,1 °C 25,7 km/h (4 Bft)
16.01.2018 12:17 6,5 °C 72 % 1000,0 hPa 0,0 mm 26,2 km/h (4 Bft) W-NW 302 ° 0 min 0,000 mm 0,7 UV-I 100 W/m² 1,8 °C 2,3 °C 37,0 km/h (5 Bft)
16.01.2018 12:18 6,5 °C 71 % 999,8 hPa 0,0 mm 28,3 km/h (4 Bft) W-NW 292 ° 0 min 0,000 mm 0,6 UV-I 88 W/m² 1,6 °C 2,1 °C 41,8 km/h (6 Bft)
16.01.2018 12:19 6,6 °C 71 % 1000,0 hPa 0,0 mm 19,6 km/h (3 Bft) W 259 ° 0 min 0,000 mm 0,5 UV-I 70 W/m² 1,7 °C 3,1 °C 32,2 km/h (5 Bft)
16.01.2018 12:20 6,6 °C 71 % 999,9 hPa 0,0 mm 20,9 km/h (4 Bft) W 272 ° 0 min 0,000 mm 0,0 UV-I 46 W/m² 1,7 °C 3,0 °C 40,2 km/h (6 Bft)
16.01.2018 12:21 6,6 °C 72 % 999,9 hPa 0,0 mm 17,4 km/h (3 Bft) W-SW 248 ° 0 min 0,000 mm 0,0 UV-I 37 W/m² 1,9 °C 3,4 °C 22,5 km/h (4 Bft)
16.01.2018 12:22 6,6 °C 72 % 1000,0 hPa 0,0 mm 21,6 km/h (4 Bft) W 268 ° 0 min 0,000 mm 0,0 UV-I 35 W/m² 1,9 °C 2,9 °C 27,4 km/h (4 Bft)
16.01.2018 12:23 6,6 °C 73 % 1000,0 hPa 0,0 mm 24,2 km/h (4 Bft) NW 310 ° 0 min 0,000 mm 0,0 UV-I 33 W/m² 2,1 °C 2,6 °C 38,6 km/h (5 Bft)
16.01.2018 12:24 6,5 °C 73 % 1000,1 hPa 0,0 mm 29,4 km/h (5 Bft) W 260 ° 0 min 0,000 mm 0,0 UV-I 30 W/m² 2,0 °C 2,1 °C 43,5 km/h (6 Bft)
16.01.2018 12:25 6,4 °C 74 % 1000,3 hPa 0,0 mm 26,7 km/h (4 Bft) W 267 ° 0 min 0,000 mm 0,0 UV-I 26 W/m² 2,1 °C 2,2 °C 33,8 km/h (5 Bft)
16.01.2018 12:26 6,3 °C 74 % 1000,2 hPa 0,0 mm 22,8 km/h (4 Bft) W-SW 247 ° 0 min 0,000 mm 0,0 UV-I 26 W/m² 2,0 °C 2,4 °C 32,2 km/h (5 Bft)
16.01.2018 12:27 6,3 °C 76 % 1000,2 hPa 0,0 mm 18,8 km/h (3 Bft) W 260 ° 0 min 0,000 mm 0,0 UV-I 28 W/m² 2,4 °C 2,8 °C 35,4 km/h (5 Bft)
16.01.2018 12:28 6,2 °C 76 % 1000,2 hPa 0,0 mm 28,3 km/h (4 Bft) W 266 ° 0 min 0,000 mm 0,0 UV-I 35 W/m² 2,3 °C 1,8 °C 40,2 km/h (6 Bft)
16.01.2018 12:29 6,1 °C 76 % 1000,3 hPa 0,0 mm 23,9 km/h (4 Bft) W-NW 299 ° 0 min 0,000 mm 0,0 UV-I 42 W/m² 2,2 °C 2,0 °C 33,8 km/h (5 Bft)
16.01.2018 12:30 5,9 °C 77 % 1000,1 hPa 0,0 mm 12,3 km/h (3 Bft) W-SW 249 ° 0 min 0,000 mm 0,0 UV-I 51 W/m² 2,2 °C 3,3 °C 19,3 km/h (3 Bft)
16.01.2018 12:31 5,9 °C 78 % 1000,2 hPa 0,0 mm 26,5 km/h (4 Bft) W 272 ° 0 min 0,000 mm 0,0 UV-I 47 W/m² 2,4 °C 1,5 °C 35,4 km/h (5 Bft)
16.01.2018 12:32 5,8 °C 78 % 1000,1 hPa 0,0 mm 19,6 km/h (3 Bft) SW 236 ° 0 min 0,000 mm 0,0 UV-I 51 W/m² 2,3 °C 2,1 °C 29,0 km/h (5 Bft)
16.01.2018 12:33 5,7 °C 79 % 1000,0 hPa 0,0 mm 11,7 km/h (2 Bft) W 263 ° 0 min 0,000 mm 0,6 UV-I 65 W/m² 2,3 °C 3,2 °C 24,1 km/h (4 Bft)
16.01.2018 12:34 5,7 °C 80 % 1000,0 hPa 0,0 mm 16,4 km/h (3 Bft) W 263 ° 0 min 0,000 mm 0,5 UV-I 62 W/m² 2,5 °C 2,4 °C 24,1 km/h (4 Bft)
16.01.2018 12:35 5,6 °C 80 % 1000,0 hPa 0,0 mm 19,8 km/h (3 Bft) NW 309 ° 0 min 0,000 mm 0,0 UV-I 42 W/m² 2,4 °C 1,8 °C 29,0 km/h (5 Bft)
16.01.2018 12:36 5,5 °C 80 % 1000,0 hPa 0,0 mm 11,6 km/h (2 Bft) W 263 ° 0 min 0,000 mm 0,0 UV-I 30 W/m² 2,3 °C 2,9 °C 20,9 km/h (4 Bft)
16.01.2018 12:37 5,4 °C 81 % 1000,0 hPa 0,0 mm 21,7 km/h (4 Bft) SW 219 ° 0 min 0,000 mm 0,0 UV-I 35 W/m² 2,4 °C 1,4 °C 35,4 km/h (5 Bft)
16.01.2018 12:38 5,4 °C 81 % 1000,0 hPa 0,0 mm 12,5 km/h (3 Bft) W 259 ° 0 min 0,000 mm 0,0 UV-I 63 W/m² 2,4 °C 2,7 °C 22,5 km/h (4 Bft)
16.01.2018 12:39 5,3 °C 81 % 999,9 hPa 0,2 mm 20,0 km/h (4 Bft) W-SW 247 ° 0 min 0,000 mm 0,5 UV-I 98 W/m² 2,3 °C 1,4 °C 33,8 km/h (5 Bft)
16.01.2018 12:40 5,2 °C 82 % 999,9 hPa 0,0 mm 29,0 km/h (5 Bft) W-SW 244 ° 0 min 0,000 mm 0,6 UV-I 118 W/m² 2,4 °C 0,4 °C 40,2 km/h (6 Bft)
16.01.2018 12:41 5,1 °C 83 % 999,9 hPa 0,0 mm 22,6 km/h (4 Bft) SW 236 ° 0 min 0,000 mm 0,7 UV-I 130 W/m² 2,5 °C 0,9 °C 38,6 km/h (5 Bft)
16.01.2018 12:42 5,1 °C 83 % 999,7 hPa 0,0 mm 19,2 km/h (3 Bft) W 269 ° 0 min 0,000 mm 0,6 UV-I 105 W/m² 2,5 °C 1,3 °C 25,7 km/h (4 Bft)
16.01.2018 12:43 5,0 °C 84 % 999,9 hPa 0,0 mm 18,7 km/h (3 Bft) W 263 ° 0 min 0,000 mm 0,6 UV-I 102 W/m² 2,5 °C 1,2 °C 25,7 km/h (4 Bft)
16.01.2018 12:44 4,9 °C 84 % 999,8 hPa 0,0 mm 11,7 km/h (2 Bft) W-SW 257 ° 0 min 0,000 mm 0,6 UV-I 97 W/m² 2,4 °C 2,2 °C 17,7 km/h (3 Bft)
16.01.2018 12:45 4,9 °C 84 % 999,8 hPa 0,0 mm 17,3 km/h (3 Bft) W-SW 248 ° 0 min 0,000 mm 0,7 UV-I 91 W/m² 2,4 °C 1,3 °C 25,7 km/h (4 Bft)
16.01.2018 12:46 4,8 °C 85 % 999,7 hPa 0,0 mm 17,3 km/h (3 Bft) W 271 ° 0 min 0,000 mm 1,0 UV-I 153 W/m² 2,5 °C 1,2 °C 22,5 km/h (4 Bft)
16.01.2018 12:47 4,8 °C 85 % 999,7 hPa 0,0 mm 14,3 km/h (3 Bft) W 260 ° 0 min 0,000 mm 1,0 UV-I 178 W/m² 2,5 °C 1,6 °C 25,7 km/h (4 Bft)
16.01.2018 12:48 4,8 °C 85 % 999,6 hPa 0,0 mm 12,3 km/h (3 Bft) W 281 ° 0 min 0,000 mm 0,9 UV-I 127 W/m² 2,5 °C 2,0 °C 17,7 km/h (3 Bft)
16.01.2018 12:49 4,8 °C 86 % 999,7 hPa 0,0 mm 13,9 km/h (3 Bft) SW 234 ° 0 min 0,000 mm 0,9 UV-I 76 W/m² 2,7 °C 1,7 °C 20,9 km/h (4 Bft)
16.01.2018 12:50 4,8 °C 86 % 999,7 hPa 0,0 mm 10,7 km/h (2 Bft) W 281 ° 0 min 0,000 mm 0,7 UV-I 65 W/m² 2,7 °C 2,3 °C 14,5 km/h (3 Bft)
16.01.2018 12:51 4,8 °C 86 % 999,7 hPa 0,0 mm 9,2 km/h (2 Bft) W 274 ° 0 min 0,000 mm 0,7 UV-I 79 W/m² 2,7 °C 2,6 °C 16,1 km/h (3 Bft)
16.01.2018 12:52 4,8 °C 86 % 999,6 hPa 0,0 mm 9,7 km/h (2 Bft) W-SW 238 ° 0 min 0,000 mm 0,8 UV-I 88 W/m² 2,7 °C 2,5 °C 16,1 km/h (3 Bft)
16.01.2018 12:53 4,8 °C 86 % 999,6 hPa 0,0 mm 5,3 km/h (1 Bft) W 261 ° 0 min 0,000 mm 0,9 UV-I 100 W/m² 2,7 °C 3,7 °C 9,7 km/h (2 Bft)
16.01.2018 12:54 4,8 °C 86 % 999,5 hPa 0,0 mm 10,6 km/h (2 Bft) W 263 ° 0 min 0,000 mm 0,9 UV-I 104 W/m² 2,7 °C 2,3 °C 16,1 km/h (3 Bft)
16.01.2018 12:55 4,8 °C 86 % 999,5 hPa 0,0 mm 11,8 km/h (2 Bft) W-SW 243 ° 0 min 0,000 mm 0,9 UV-I 90 W/m² 2,7 °C 2,1 °C 17,7 km/h (3 Bft)
16.01.2018 12:56 4,8 °C 86 % 999,6 hPa 0,0 mm 9,1 km/h (2 Bft) W 280 ° 0 min 0,000 mm 0,9 UV-I 93 W/m² 2,7 °C 2,6 °C 16,1 km/h (3 Bft)
16.01.2018 12:57 4,8 °C 87 % 999,4 hPa 0,0 mm 11,6 km/h (2 Bft) W-SW 256 ° 0 min 0,000 mm 0,9 UV-I 95 W/m² 2,8 °C 2,1 °C 14,5 km/h (3 Bft)
16.01.2018 12:58 4,8 °C 87 % 999,5 hPa 0,0 mm 9,8 km/h (2 Bft) W 269 ° 0 min 0,000 mm 0,8 UV-I 95 W/m² 2,8 °C 2,5 °C 16,1 km/h (3 Bft)
16.01.2018 12:59 4,8 °C 87 % 999,5 hPa 0,0 mm 8,4 km/h (2 Bft) W-SW 250 ° 0 min 0,000 mm 0,8 UV-I 62 W/m² 2,8 °C 2,8 °C 14,5 km/h (3 Bft)
16.01.2018 13:00 4,8 °C 86 % 999,5 hPa 0,0 mm 4,9 km/h (1 Bft) W 261 ° 0 min 0,000 mm 0,8 UV-I 67 W/m² 2,7 °C 3,9 °C 12,9 km/h (3 Bft)
16.01.2018 13:01 4,8 °C 86 % 999,5 hPa 0,0 mm 6,8 km/h (2 Bft) W-SW 249 ° 0 min 0,076 mm 0,8 UV-I 109 W/m² 2,7 °C 3,2 °C 9,7 km/h (2 Bft)
16.01.2018 13:02 4,8 °C 86 % 999,5 hPa 0,0 mm 8,1 km/h (2 Bft) W 277 ° 0 min 0,000 mm 0,9 UV-I 114 W/m² 2,7 °C 2,9 °C 11,3 km/h (2 Bft)
16.01.2018 13:03 4,9 °C 86 % 999,3 hPa 0,0 mm 7,1 km/h (2 Bft) W 268 ° 0 min 0,000 mm 0,8 UV-I 109 W/m² 2,8 °C 3,3 °C 12,9 km/h (3 Bft)
16.01.2018 13:04 4,9 °C 87 % 999,3 hPa 0,0 mm 9,0 km/h (2 Bft) SW 231 ° 0 min 0,000 mm 0,6 UV-I 93 W/m² 2,9 °C 2,8 °C 12,9 km/h (3 Bft)
16.01.2018 13:05 4,9 °C 86 % 999,3 hPa 0,0 mm 9,5 km/h (2 Bft) W 275 ° 0 min 0,000 mm 0,5 UV-I 77 W/m² 2,8 °C 2,7 °C 16,1 km/h (3 Bft)
16.01.2018 13:06 4,9 °C 86 % 999,3 hPa 0,0 mm 9,9 km/h (2 Bft) S-SW 207 ° 0 min 0,000 mm 0,0 UV-I 63 W/m² 2,8 °C 2,6 °C 17,7 km/h (3 Bft)
16.01.2018 13:07 4,9 °C 86 % 999,3 hPa 0,0 mm 7,2 km/h (2 Bft) W 278 ° 0 min 0,000 mm 0,0 UV-I 58 W/m² 2,8 °C 3,2 °C 11,3 km/h (2 Bft)
16.01.2018 13:08 5,0 °C 86 % 999,3 hPa 0,0 mm 5,8 km/h (2 Bft) W 261 ° 0 min 0,000 mm 0,5 UV-I 63 W/m² 2,9 °C 3,8 °C 9,7 km/h (2 Bft)
16.01.2018 13:09 5,0 °C 86 % 999,3 hPa 0,0 mm 6,1 km/h (2 Bft) W-SW 257 ° 0 min 0,000 mm 0,5 UV-I 67 W/m² 2,9 °C 3,7 °C 9,7 km/h (2 Bft)
16.01.2018 13:10 5,1 °C 86 % 999,3 hPa 0,0 mm 11,3 km/h (2 Bft) W 263 ° 0 min 0,000 mm 0,5 UV-I 67 W/m² 3,0 °C 2,5 °C 17,7 km/h (3 Bft)
16.01.2018 13:11 5,1 °C 86 % 999,2 hPa 0,0 mm 4,8 km/h (1 Bft) W-NW 288 ° 0 min 0,000 mm 0,5 UV-I 70 W/m² 3,0 °C 4,3 °C 9,7 km/h (2 Bft)
16.01.2018 13:12 5,1 °C 86 % 999,2 hPa 0,0 mm 8,6 km/h (2 Bft) W 269 ° 0 min 0,000 mm 0,5 UV-I 81 W/m² 3,0 °C 3,1 °C 12,9 km/h (3 Bft)
16.01.2018 13:13 5,1 °C 86 % 999,2 hPa 0,0 mm 10,0 km/h (2 Bft) W 261 ° 0 min 0,000 mm 0,6 UV-I 79 W/m² 3,0 °C 2,8 °C 14,5 km/h (3 Bft)
16.01.2018 13:14 5,1 °C 86 % 999,3 hPa 0,0 mm 15,2 km/h (3 Bft) W 280 ° 0 min 0,000 mm 0,6 UV-I 79 W/m² 3,0 °C 1,8 °C 22,5 km/h (4 Bft)
16.01.2018 13:15 5,1 °C 86 % 999,2 hPa 0,0 mm 14,7 km/h (3 Bft) W-NW 288 ° 0 min 0,000 mm 0,6 UV-I 77 W/m² 3,0 °C 1,9 °C 16,1 km/h (3 Bft)
16.01.2018 13:16 5,1 °C 85 % 999,2 hPa 0,0 mm 12,7 km/h (3 Bft) W-SW 244 ° 0 min 0,000 mm 0,6 UV-I 77 W/m² 2,8 °C 2,3 °C 17,7 km/h (3 Bft)
16.01.2018 13:17 5,2 °C 85 % 999,1 hPa 0,0 mm 8,3 km/h (2 Bft) W 277 ° 0 min 0,000 mm 0,6 UV-I 88 W/m² 2,9 °C 3,3 °C 17,7 km/h (3 Bft)
16.01.2018 13:18 5,2 °C 85 % 999,1 hPa 0,0 mm 14,6 km/h (3 Bft) W-SW 256 ° 0 min 0,000 mm 0,6 UV-I 91 W/m² 2,9 °C 2,1 °C 20,9 km/h (4 Bft)
16.01.2018 13:19 5,2 °C 85 % 999,0 hPa 0,0 mm 11,9 km/h (2 Bft) W 272 ° 0 min 0,000 mm 0,6 UV-I 98 W/m² 2,9 °C 2,5 °C 17,7 km/h (3 Bft)
16.01.2018 13:20 5,3 °C 85 % 998,8 hPa 0,0 mm 14,1 km/h (3 Bft) W-NW 294 ° 0 min 0,000 mm 0,6 UV-I 95 W/m² 3,0 °C 2,3 °C 20,9 km/h (4 Bft)
16.01.2018 13:21 5,3 °C 85 % 998,8 hPa 0,0 mm 7,8 km/h (2 Bft) W 261 ° 0 min 0,000 mm 0,6 UV-I 84 W/m² 3,0 °C 3,5 °C 14,5 km/h (3 Bft)
16.01.2018 13:22 5,3 °C 85 % 998,8 hPa 0,0 mm 12,3 km/h (3 Bft) W-SW 241 ° 0 min 0,000 mm 0,6 UV-I 76 W/m² 3,0 °C 2,6 °C 22,5 km/h (4 Bft)
16.01.2018 13:23 5,3 °C 84 % 998,9 hPa 0,0 mm 22,5 km/h (4 Bft) W 275 ° 0 min 0,000 mm 0,5 UV-I 69 W/m² 2,8 °C 1,2 °C 27,4 km/h (4 Bft)
16.01.2018 13:24 5,3 °C 84 % 998,8 hPa 0,0 mm 20,3 km/h (4 Bft) W-NW 282 ° 0 min 0,000 mm 0,5 UV-I 63 W/m² 2,8 °C 1,4 °C 25,7 km/h (4 Bft)
16.01.2018 13:25 5,4 °C 84 % 998,8 hPa 0,0 mm 20,0 km/h (4 Bft) W 264 ° 0 min 0,000 mm 0,0 UV-I 62 W/m² 2,9 °C 1,6 °C 29,0 km/h (5 Bft)
16.01.2018 13:26 5,4 °C 83 % 998,8 hPa 0,0 mm 23,9 km/h (4 Bft) W 270 ° 0 min 0,000 mm 0,0 UV-I 54 W/m² 2,7 °C 1,1 °C 32,2 km/h (5 Bft)
16.01.2018 13:27 5,4 °C 83 % 998,8 hPa 0,0 mm 18,7 km/h (3 Bft) W-SW 257 ° 0 min 0,000 mm 0,0 UV-I 54 W/m² 2,7 °C 1,7 °C 29,0 km/h (5 Bft)
16.01.2018 13:28 5,4 °C 83 % 998,7 hPa 0,0 mm 10,2 km/h (2 Bft) W 269 ° 0 min 0,000 mm 0,0 UV-I 51 W/m² 2,7 °C 3,1 °C 14,5 km/h (3 Bft)
16.01.2018 13:29 5,4 °C 83 % 998,8 hPa 0,0 mm 10,3 km/h (2 Bft) W 275 ° 0 min 0,000 mm 0,0 UV-I 46 W/m² 2,7 °C 3,1 °C 16,1 km/h (3 Bft)
16.01.2018 13:30 5,4 °C 83 % 998,8 hPa 0,0 mm 12,3 km/h (3 Bft) W-SW 244 ° 0 min 0,000 mm 0,0 UV-I 56 W/m² 2,7 °C 2,7 °C 17,7 km/h (3 Bft)
16.01.2018 13:31 5,4 °C 83 % 998,8 hPa 0,0 mm 12,8 km/h (3 Bft) W-NW 297 ° 0 min 0,000 mm 0,0 UV-I 54 W/m² 2,7 °C 2,6 °C 17,7 km/h (3 Bft)
16.01.2018 13:32 5,5 °C 83 % 998,8 hPa 0,0 mm 17,8 km/h (3 Bft) W-NW 296 ° 0 min 0,000 mm 0,0 UV-I 58 W/m² 2,8 °C 2,0 °C 25,7 km/h (4 Bft)
16.01.2018 13:33 5,4 °C 83 % 998,9 hPa 0,0 mm 9,2 km/h (2 Bft) W 265 ° 0 min 0,000 mm 0,0 UV-I 60 W/m² 2,7 °C 3,3 °C 17,7 km/h (3 Bft)
16.01.2018 13:34 5,5 °C 83 % 998,8 hPa 0,0 mm 15,3 km/h (3 Bft) W 273 ° 0 min 0,000 mm 0,0 UV-I 60 W/m² 2,8 °C 2,3 °C 20,9 km/h (4 Bft)
16.01.2018 13:35 5,5 °C 83 % 998,7 hPa 0,0 mm 12,5 km/h (3 Bft) W-SW 252 ° 0 min 0,000 mm 0,0 UV-I 51 W/m² 2,8 °C 2,8 °C 16,1 km/h (3 Bft)
16.01.2018 13:36 5,5 °C 83 % 998,7 hPa 0,0 mm 16,3 km/h (3 Bft) W 274 ° 0 min 0,000 mm 0,0 UV-I 53 W/m² 2,8 °C 2,2 °C 24,1 km/h (4 Bft)
16.01.2018 13:37 5,5 °C 83 % 998,7 hPa 0,0 mm 19,7 km/h (3 Bft) W-NW 297 ° 0 min 0,000 mm 0,0 UV-I 40 W/m² 2,8 °C 1,7 °C 43,5 km/h (6 Bft)
16.01.2018 13:38 5,5 °C 83 % 998,7 hPa 0,0 mm 27,4 km/h (4 Bft) SW 215 ° 0 min 0,000 mm 0,0 UV-I 21 W/m² 2,8 °C 0,9 °C 43,5 km/h (6 Bft)
16.01.2018 13:39 5,5 °C 83 % 998,7 hPa 0,0 mm 20,0 km/h (4 Bft) W 279 ° 0 min 0,000 mm 0,0 UV-I 18 W/m² 2,8 °C 1,7 °C 29,0 km/h (5 Bft)
16.01.2018 13:40 5,5 °C 83 % 998,7 hPa 0,0 mm 8,2 km/h (2 Bft) W 269 ° 0 min 0,000 mm 0,0 UV-I 18 W/m² 2,8 °C 3,7 °C 16,1 km/h (3 Bft)
16.01.2018 13:41 5,5 °C 83 % 998,6 hPa 0,0 mm 10,7 km/h (2 Bft) W-NW 289 ° 0 min 0,000 mm 0,0 UV-I 25 W/m² 2,8 °C 3,1 °C 17,7 km/h (3 Bft)
16.01.2018 13:42 5,4 °C 83 % 998,5 hPa 0,0 mm 17,5 km/h (3 Bft) W-NW 295 ° 0 min 0,000 mm 0,0 UV-I 28 W/m² 2,7 °C 1,9 °C 24,1 km/h (4 Bft)
16.01.2018 13:43 5,4 °C 83 % 998,4 hPa 0,0 mm 18,5 km/h (3 Bft) W-NW 297 ° 0 min 0,000 mm 0,0 UV-I 26 W/m² 2,7 °C 1,8 °C 25,7 km/h (4 Bft)
16.01.2018 13:44 5,4 °C 83 % 998,4 hPa 0,0 mm 12,1 km/h (2 Bft) S-SW 200 ° 0 min 0,000 mm 0,0 UV-I 21 W/m² 2,7 °C 2,7 °C 20,9 km/h (4 Bft)
16.01.2018 13:45 5,4 °C 84 % 998,4 hPa 0,0 mm 7,6 km/h (2 Bft) W 267 ° 0 min 0,000 mm 0,0 UV-I 25 W/m² 2,9 °C 3,7 °C 17,7 km/h (3 Bft)
16.01.2018 13:46 5,4 °C 84 % 998,5 hPa 0,2 mm 15,0 km/h (3 Bft) W-SW 244 ° 0 min 0,000 mm 0,0 UV-I 32 W/m² 2,9 °C 2,2 °C 19,3 km/h (3 Bft)
16.01.2018 13:47 5,4 °C 84 % 998,5 hPa 0,0 mm 16,5 km/h (3 Bft) W-SW 250 ° 0 min 0,000 mm 0,0 UV-I 28 W/m² 2,9 °C 2,0 °C 30,6 km/h (5 Bft)
16.01.2018 13:48 5,3 °C 84 % 998,4 hPa 0,0 mm 20,0 km/h (4 Bft) W 267 ° 0 min 0,000 mm 0,0 UV-I 28 W/m² 2,8 °C 1,4 °C 27,4 km/h (4 Bft)
16.01.2018 13:49 5,3 °C 84 % 998,5 hPa 0,0 mm 26,7 km/h (4 Bft) NW 319 ° 0 min 0,000 mm 0,0 UV-I 32 W/m² 2,8 °C 0,7 °C 37,0 km/h (5 Bft)
16.01.2018 13:50 5,3 °C 84 % 998,4 hPa 0,0 mm 27,0 km/h (4 Bft) W-SW 248 ° 0 min 0,000 mm 0,0 UV-I 32 W/m² 2,8 °C 0,7 °C 40,2 km/h (6 Bft)
16.01.2018 13:51 5,2 °C 84 % 998,6 hPa 0,0 mm 15,8 km/h (3 Bft) W 261 ° 0 min 0,000 mm 0,0 UV-I 32 W/m² 2,7 °C 1,9 °C 24,1 km/h (4 Bft)
16.01.2018 13:52 5,2 °C 84 % 998,5 hPa 0,0 mm 21,4 km/h (4 Bft) W-SW 257 ° 0 min 0,000 mm 0,0 UV-I 32 W/m² 2,7 °C 1,2 °C 32,2 km/h (5 Bft)
16.01.2018 13:53 5,2 °C 85 % 998,4 hPa 0,0 mm 22,6 km/h (4 Bft) W 265 ° 0 min 0,000 mm 0,0 UV-I 30 W/m² 2,9 °C 1,0 °C 35,4 km/h (5 Bft)
16.01.2018 13:54 5,1 °C 85 % 998,5 hPa 0,0 mm 22,5 km/h (4 Bft) W 261 ° 0 min 0,000 mm 0,0 UV-I 30 W/m² 2,8 °C 0,9 °C 30,6 km/h (5 Bft)
16.01.2018 13:55 5,1 °C 85 % 998,6 hPa 0,0 mm 27,5 km/h (4 Bft) NW 317 ° 0 min 0,000 mm 0,0 UV-I 35 W/m² 2,8 °C 0,4 °C 40,2 km/h (6 Bft)
16.01.2018 13:56 5,1 °C 85 % 998,5 hPa 0,0 mm 21,7 km/h (4 Bft) W 274 ° 0 min 0,000 mm 0,0 UV-I 37 W/m² 2,8 °C 1,0 °C 38,6 km/h (5 Bft)
16.01.2018 13:57 5,0 °C 85 % 998,5 hPa 0,0 mm 30,2 km/h (5 Bft) W-SW 257 ° 0 min 0,000 mm 0,0 UV-I 37 W/m² 2,7 °C 0,0 °C 41,8 km/h (6 Bft)
16.01.2018 13:58 4,9 °C 85 % 998,4 hPa 0,0 mm 18,0 km/h (3 Bft) NW 317 ° 0 min 0,000 mm 0,0 UV-I 39 W/m² 2,6 °C 1,2 °C 24,1 km/h (4 Bft)
16.01.2018 13:59 4,9 °C 85 % 998,3 hPa 0,0 mm 21,4 km/h (4 Bft) W 275 ° 0 min 0,000 mm 0,0 UV-I 35 W/m² 2,6 °C 0,8 °C 30,6 km/h (5 Bft)
16.01.2018 14:00 4,8 °C 85 % 998,3 hPa 0,0 mm 18,6 km/h (3 Bft) W-SW 255 ° 0 min 0,000 mm 0,0 UV-I 40 W/m² 2,5 °C 1,0 °C 25,7 km/h (4 Bft)
16.01.2018 14:01 4,8 °C 86 % 998,4 hPa 0,0 mm 15,8 km/h (3 Bft) W-NW 287 ° 0 min 0,051 mm 0,0 UV-I 46 W/m² 2,7 °C 1,4 °C 20,9 km/h (4 Bft)
16.01.2018 14:02 4,7 °C 86 % 998,4 hPa 0,2 mm 15,3 km/h (3 Bft) W-NW 284 ° 0 min 0,000 mm 0,0 UV-I 46 W/m² 2,6 °C 1,3 °C 20,9 km/h (4 Bft)
16.01.2018 14:03 4,7 °C 86 % 998,4 hPa 0,0 mm 12,1 km/h (2 Bft) NW 310 ° 0 min 0,000 mm 0,0 UV-I 46 W/m² 2,6 °C 1,9 °C 16,1 km/h (3 Bft)
16.01.2018 14:04 4,7 °C 87 % 998,4 hPa 0,0 mm 8,3 km/h (2 Bft) W-SW 252 ° 0 min 0,000 mm 0,0 UV-I 49 W/m² 2,7 °C 2,7 °C 12,9 km/h (3 Bft)
16.01.2018 14:05 4,7 °C 87 % 998,3 hPa 0,0 mm 8,0 km/h (2 Bft) W-NW 290 ° 0 min 0,000 mm 0,0 UV-I 46 W/m² 2,7 °C 2,8 °C 20,9 km/h (4 Bft)
16.01.2018 14:06 4,6 °C 87 % 998,4 hPa 0,0 mm 12,6 km/h (3 Bft) W 266 ° 0 min 0,000 mm 0,0 UV-I 46 W/m² 2,6 °C 1,7 °C 17,7 km/h (3 Bft)
16.01.2018 14:07 4,6 °C 87 % 998,3 hPa 0,0 mm 13,3 km/h (3 Bft) W 267 ° 0 min 0,000 mm 0,0 UV-I 40 W/m² 2,6 °C 1,5 °C 19,3 km/h (3 Bft)
16.01.2018 14:08 4,6 °C 87 % 998,3 hPa 0,0 mm 11,3 km/h (2 Bft) W-SW 244 ° 0 min 0,000 mm 0,0 UV-I 37 W/m² 2,6 °C 1,9 °C 16,1 km/h (3 Bft)
16.01.2018 14:09 4,6 °C 87 % 998,3 hPa 0,0 mm 7,3 km/h (2 Bft) SW 232 ° 0 min 0,000 mm 0,0 UV-I 35 W/m² 2,6 °C 2,9 °C 11,3 km/h (2 Bft)
16.01.2018 14:10 4,6 °C 87 % 998,4 hPa 0,0 mm 9,4 km/h (2 Bft) W 269 ° 0 min 0,000 mm 0,0 UV-I 35 W/m² 2,6 °C 2,3 °C 12,9 km/h (3 Bft)
16.01.2018 14:11 4,6 °C 88 % 998,5 hPa 0,0 mm 8,8 km/h (2 Bft) W-SW 254 ° 0 min 0,000 mm 0,0 UV-I 46 W/m² 2,8 °C 2,5 °C 16,1 km/h (3 Bft)
16.01.2018 14:12 4,6 °C 88 % 998,5 hPa 0,0 mm 13,5 km/h (3 Bft) W-SW 256 ° 0 min 0,000 mm 0,0 UV-I 47 W/m² 2,8 °C 1,5 °C 19,3 km/h (3 Bft)
16.01.2018 14:13 4,5 °C 88 % 998,3 hPa 0,0 mm 9,5 km/h (2 Bft) W 265 ° 0 min 0,000 mm 0,0 UV-I 44 W/m² 2,7 °C 2,2 °C 14,5 km/h (3 Bft)
16.01.2018 14:14 4,5 °C 88 % 998,3 hPa 0,0 mm 6,4 km/h (2 Bft) W 263 ° 0 min 0,000 mm 0,0 UV-I 46 W/m² 2,7 °C 3,0 °C 11,3 km/h (2 Bft)
16.01.2018 14:15 4,5 °C 88 % 998,3 hPa 0,0 mm 6,0 km/h (2 Bft) W 268 ° 0 min 0,000 mm 0,0 UV-I 46 W/m² 2,7 °C 3,1 °C 9,7 km/h (2 Bft)
16.01.2018 14:16 4,5 °C 88 % 998,2 hPa 0,0 mm 8,3 km/h (2 Bft) W-NW 290 ° 0 min 0,000 mm 0,0 UV-I 42 W/m² 2,7 °C 2,5 °C 12,9 km/h (3 Bft)
16.01.2018 14:17 4,4 °C 88 % 998,3 hPa 0,0 mm 4,6 km/h (1 Bft) W-NW 302 ° 0 min 0,000 mm 0,0 UV-I 42 W/m² 2,6 °C 3,6 °C 6,4 km/h (2 Bft)
16.01.2018 14:18 4,4 °C 88 % 998,2 hPa 0,0 mm 4,4 km/h (1 Bft) W-NW 293 ° 0 min 0,000 mm 0,0 UV-I 46 W/m² 2,6 °C 4,4 °C 6,4 km/h (2 Bft)
16.01.2018 14:19 4,4 °C 88 % 998,1 hPa 0,0 mm 3,4 km/h (1 Bft) W 276 ° 0 min 0,000 mm 0,0 UV-I 42 W/m² 2,6 °C 4,4 °C 6,4 km/h (2 Bft)
16.01.2018 14:20 4,4 °C 88 % 998,2 hPa 0,0 mm 4,6 km/h (1 Bft) W-SW 248 ° 0 min 0,000 mm 0,0 UV-I 39 W/m² 2,6 °C 3,6 °C 6,4 km/h (2 Bft)
16.01.2018 14:21 4,4 °C 89 % 998,3 hPa 0,0 mm 5,1 km/h (1 Bft) W-SW 255 ° 0 min 0,000 mm 0,0 UV-I 40 W/m² 2,7 °C 3,4 °C 8,0 km/h (2 Bft)
16.01.2018 14:22 4,4 °C 89 % 998,3 hPa 0,0 mm 4,1 km/h (1 Bft) W 260 ° 0 min 0,000 mm 0,0 UV-I 42 W/m² 2,7 °C 4,4 °C 6,4 km/h (2 Bft)
16.01.2018 14:23 4,4 °C 89 % 998,2 hPa 0,0 mm 4,3 km/h (1 Bft) W-SW 244 ° 0 min 0,000 mm 0,0 UV-I 39 W/m² 2,7 °C 4,4 °C 9,7 km/h (2 Bft)
16.01.2018 14:24 4,4 °C 89 % 998,3 hPa 0,0 mm 8,2 km/h (2 Bft) W-SW 245 ° 0 min 0,000 mm 0,0 UV-I 40 W/m² 2,7 °C 2,4 °C 11,3 km/h (2 Bft)
16.01.2018 14:25 4,4 °C 89 % 998,3 hPa 0,0 mm 3,9 km/h (1 Bft) S-SW 205 ° 0 min 0,000 mm 0,0 UV-I 35 W/m² 2,7 °C 4,4 °C 8,0 km/h (2 Bft)
16.01.2018 14:26 4,4 °C 89 % 998,3 hPa 0,0 mm 6,0 km/h (2 Bft) W-NW 283 ° 0 min 0,000 mm 0,0 UV-I 28 W/m² 2,7 °C 3,0 °C 12,9 km/h (3 Bft)
16.01.2018 14:27 4,4 °C 89 % 998,3 hPa 0,0 mm 6,2 km/h (2 Bft) W 267 ° 0 min 0,000 mm 0,0 UV-I 26 W/m² 2,7 °C 3,0 °C 9,7 km/h (2 Bft)
16.01.2018 14:28 4,3 °C 89 % 998,2 hPa 0,0 mm 5,3 km/h (1 Bft) W 266 ° 0 min 0,000 mm 0,0 UV-I 32 W/m² 2,7 °C 3,2 °C 9,7 km/h (2 Bft)
16.01.2018 14:29 4,3 °C 89 % 998,2 hPa 0,0 mm 4,7 km/h (1 Bft) W 273 ° 0 min 0,000 mm 0,0 UV-I 35 W/m² 2,7 °C 3,4 °C 9,7 km/h (2 Bft)
16.01.2018 14:30 4,3 °C 89 % 998,2 hPa 0,0 mm 9,0 km/h (2 Bft) W 273 ° 0 min 0,000 mm 0,0 UV-I 32 W/m² 2,7 °C 2,1 °C 12,9 km/h (3 Bft)
16.01.2018 14:31 4,3 °C 89 % 998,2 hPa 0,0 mm 4,5 km/h (1 Bft) W-SW 254 ° 0 min 0,000 mm 0,0 UV-I 28 W/m² 2,7 °C 4,3 °C 9,7 km/h (2 Bft)
16.01.2018 14:32 4,3 °C 89 % 998,3 hPa 0,0 mm 7,1 km/h (2 Bft) W-NW 297 ° 0 min 0,000 mm 0,0 UV-I 25 W/m² 2,7 °C 2,6 °C 14,5 km/h (3 Bft)
16.01.2018 14:33 4,3 °C 89 % 998,0 hPa 0,0 mm 9,6 km/h (2 Bft) W 263 ° 0 min 0,000 mm 0,0 UV-I 25 W/m² 2,7 °C 1,9 °C 16,1 km/h (3 Bft)
16.01.2018 14:34 4,3 °C 89 % 998,0 hPa 0,0 mm 11,5 km/h (2 Bft) W-SW 256 ° 0 min 0,000 mm 0,0 UV-I 30 W/m² 2,7 °C 1,5 °C 20,9 km/h (4 Bft)
16.01.2018 14:35 4,3 °C 89 % 997,9 hPa 0,0 mm 13,8 km/h (3 Bft) S-SW 207 ° 0 min 0,000 mm 0,0 UV-I 32 W/m² 2,7 °C 1,1 °C 20,9 km/h (4 Bft)
16.01.2018 14:36 4,4 °C 89 % 998,0 hPa 0,0 mm 8,0 km/h (2 Bft) NO 36 ° 0 min 0,000 mm 0,0 UV-I 32 W/m² 2,7 °C 2,4 °C 12,9 km/h (3 Bft)
16.01.2018 14:37 4,4 °C 89 % 997,8 hPa 0,0 mm 16,2 km/h (3 Bft) W-SW 240 ° 0 min 0,000 mm 0,0 UV-I 35 W/m² 2,7 °C 0,8 °C 30,6 km/h (5 Bft)
16.01.2018 14:38 4,4 °C 88 % 997,9 hPa 0,0 mm 21,0 km/h (4 Bft) W-SW 255 ° 0 min 0,000 mm 0,0 UV-I 35 W/m² 2,6 °C 0,2 °C 30,6 km/h (5 Bft)
16.01.2018 14:39 4,4 °C 88 % 997,9 hPa 0,0 mm 8,3 km/h (2 Bft) W 277 ° 0 min 0,000 mm 0,0 UV-I 33 W/m² 2,6 °C 2,4 °C 20,9 km/h (4 Bft)
16.01.2018 14:40 4,5 °C 88 % 998,0 hPa 0,0 mm 12,6 km/h (3 Bft) W 270 ° 0 min 0,000 mm 0,0 UV-I 28 W/m² 2,7 °C 1,5 °C 16,1 km/h (3 Bft)
16.01.2018 14:41 4,6 °C 87 % 997,9 hPa 0,0 mm 12,3 km/h (3 Bft) W 275 ° 0 min 0,000 mm 0,0 UV-I 25 W/m² 2,6 °C 1,7 °C 20,9 km/h (4 Bft)
16.01.2018 14:42 4,6 °C 88 % 997,8 hPa 0,0 mm 14,0 km/h (3 Bft) W-NW 284 ° 0 min 0,000 mm 0,0 UV-I 26 W/m² 2,8 °C 1,4 °C 20,9 km/h (4 Bft)
16.01.2018 14:43 4,6 °C 87 % 997,9 hPa 0,0 mm 10,7 km/h (2 Bft) W 278 ° 0 min 0,000 mm 0,0 UV-I 26 W/m² 2,6 °C 2,0 °C 17,7 km/h (3 Bft)
16.01.2018 14:44 4,6 °C 87 % 997,9 hPa 0,0 mm 14,8 km/h (3 Bft) W 265 ° 0 min 0,000 mm 0,0 UV-I 25 W/m² 2,6 °C 1,3 °C 22,5 km/h (4 Bft)
16.01.2018 14:45 4,7 °C 87 % 998,0 hPa 0,0 mm 13,5 km/h (3 Bft) SW 228 ° 0 min 0,000 mm 0,0 UV-I 21 W/m² 2,7 °C 1,6 °C 27,4 km/h (4 Bft)
16.01.2018 14:46 4,7 °C 87 % 997,8 hPa 0,0 mm 16,5 km/h (3 Bft) W-SW 255 ° 0 min 0,000 mm 0,0 UV-I 23 W/m² 2,7 °C 1,2 °C 22,5 km/h (4 Bft)
16.01.2018 14:47 4,7 °C 86 % 997,9 hPa 0,0 mm 13,3 km/h (3 Bft) W 271 ° 0 min 0,000 mm 0,0 UV-I 26 W/m² 2,6 °C 1,7 °C 19,3 km/h (3 Bft)
16.01.2018 14:48 4,8 °C 86 % 998,0 hPa 0,2 mm 31,5 km/h (5 Bft) W 263 ° 0 min 0,000 mm 0,0 UV-I 26 W/m² 2,7 °C -0,3 °C 49,9 km/h (6 Bft)
16.01.2018 14:49 4,8 °C 86 % 998,0 hPa 0,0 mm 18,7 km/h (3 Bft) W 263 ° 0 min 0,000 mm 0,0 UV-I 30 W/m² 2,7 °C 1,0 °C 32,2 km/h (5 Bft)
16.01.2018 14:50 4,9 °C 85 % 998,0 hPa 0,0 mm 20,5 km/h (4 Bft) W 261 ° 0 min 0,000 mm 0,0 UV-I 32 W/m² 2,6 °C 0,9 °C 27,4 km/h (4 Bft)
16.01.2018 14:51 4,9 °C 85 % 997,8 hPa 0,0 mm 17,9 km/h (3 Bft) SW 233 ° 0 min 0,000 mm 0,0 UV-I 35 W/m² 2,6 °C 1,2 °C 27,4 km/h (4 Bft)
16.01.2018 14:52 5,0 °C 85 % 997,8 hPa 0,0 mm 11,3 km/h (2 Bft) W-SW 240 ° 0 min 0,000 mm 0,0 UV-I 32 W/m² 2,7 °C 2,4 °C 16,1 km/h (3 Bft)
16.01.2018 14:53 5,0 °C 85 % 997,8 hPa 0,0 mm 20,0 km/h (4 Bft) W-NW 292 ° 0 min 0,000 mm 0,0 UV-I 32 W/m² 2,7 °C 1,1 °C 27,4 km/h (4 Bft)
16.01.2018 14:54 5,1 °C 85 % 997,9 hPa 0,0 mm 9,9 km/h (2 Bft) W 277 ° 0 min 0,000 mm 0,0 UV-I 32 W/m² 2,8 °C 2,8 °C 19,3 km/h (3 Bft)
16.01.2018 14:55 5,1 °C 85 % 997,9 hPa 0,0 mm 15,2 km/h (3 Bft) W 260 ° 0 min 0,000 mm 0,0 UV-I 30 W/m² 2,8 °C 1,8 °C 30,6 km/h (5 Bft)
16.01.2018 14:56 5,1 °C 84 % 998,0 hPa 0,0 mm 12,6 km/h (3 Bft) W-SW 252 ° 0 min 0,000 mm 0,0 UV-I 30 W/m² 2,6 °C 2,3 °C 19,3 km/h (3 Bft)
16.01.2018 14:57 5,1 °C 84 % 997,9 hPa 0,0 mm 15,7 km/h (3 Bft) W 264 ° 0 min 0,000 mm 0,0 UV-I 30 W/m² 2,6 °C 1,8 °C 24,1 km/h (4 Bft)
16.01.2018 14:58 5,2 °C 84 % 998,1 hPa 0,0 mm 29,3 km/h (5 Bft) W-SW 246 ° 0 min 0,000 mm 0,0 UV-I 35 W/m² 2,7 °C 0,4 °C 51,5 km/h (7 Bft)
16.01.2018 14:59 5,2 °C 83 % 998,2 hPa 0,0 mm 30,6 km/h (5 Bft) NW 308 ° 0 min 0,000 mm 0,0 UV-I 42 W/m² 2,6 °C 0,3 °C 48,3 km/h (6 Bft)
16.01.2018 15:00 5,3 °C 83 % 997,8 hPa 0,0 mm 21,7 km/h (4 Bft) SW 234 ° 0 min 0,000 mm 0,0 UV-I 40 W/m² 2,7 °C 1,2 °C 38,6 km/h (5 Bft)
16.01.2018 15:01 5,3 °C 82 % 998,0 hPa 0,0 mm 28,1 km/h (4 Bft) W 259 ° 0 min 0,025 mm 0,0 UV-I 40 W/m² 2,5 °C 0,6 °C 48,3 km/h (6 Bft)
16.01.2018 15:02 5,4 °C 81 % 998,0 hPa 0,0 mm 24,1 km/h (4 Bft) W 259 ° 0 min 0,000 mm 0,0 UV-I 39 W/m² 2,4 °C 1,1 °C 38,6 km/h (5 Bft)
16.01.2018 15:03 5,4 °C 81 % 998,1 hPa 0,0 mm 27,5 km/h (4 Bft) W-SW 257 ° 0 min 0,000 mm 0,0 UV-I 32 W/m² 2,4 °C 0,8 °C 37,0 km/h (5 Bft)
16.01.2018 15:04 5,6 °C 80 % 998,0 hPa 0,0 mm 16,3 km/h (3 Bft) SW 222 ° 0 min 0,000 mm 0,0 UV-I 32 W/m² 2,4 °C 2,3 °C 25,7 km/h (4 Bft)
16.01.2018 15:05 5,6 °C 80 % 997,9 hPa 0,0 mm 23,4 km/h (4 Bft) W 273 ° 0 min 0,000 mm 0,0 UV-I 28 W/m² 2,4 °C 1,4 °C 43,5 km/h (6 Bft)
16.01.2018 15:06 5,7 °C 80 % 998,0 hPa 0,0 mm 28,8 km/h (4 Bft) W 264 ° 0 min 0,000 mm 0,0 UV-I 28 W/m² 2,5 °C 1,1 °C 41,8 km/h (6 Bft)
16.01.2018 15:07 5,7 °C 79 % 998,0 hPa 0,0 mm 23,1 km/h (4 Bft) W-NW 292 ° 0 min 0,000 mm 0,0 UV-I 28 W/m² 2,3 °C 1,6 °C 35,4 km/h (5 Bft)
16.01.2018 15:08 5,8 °C 79 % 997,8 hPa 0,0 mm 28,7 km/h (4 Bft) W-SW 253 ° 0 min 0,000 mm 0,0 UV-I 30 W/m² 2,4 °C 1,2 °C 48,3 km/h (6 Bft)
16.01.2018 15:09 5,8 °C 79 % 998,1 hPa 0,0 mm 27,0 km/h (4 Bft) W 260 ° 0 min 0,000 mm 0,0 UV-I 33 W/m² 2,4 °C 1,4 °C 49,9 km/h (6 Bft)
16.01.2018 15:10 5,8 °C 78 % 998,0 hPa 0,0 mm 30,0 km/h (5 Bft) W-NW 283 ° 0 min 0,000 mm 0,0 UV-I 47 W/m² 2,3 °C 1,1 °C 41,8 km/h (6 Bft)
16.01.2018 15:11 5,9 °C 78 % 997,7 hPa 0,0 mm 27,6 km/h (4 Bft) W 259 ° 0 min 0,000 mm 0,0 UV-I 54 W/m² 2,4 °C 1,4 °C 33,8 km/h (5 Bft)
16.01.2018 15:12 5,9 °C 78 % 997,9 hPa 0,0 mm 20,2 km/h (4 Bft) W 265 ° 0 min 0,000 mm 0,0 UV-I 49 W/m² 2,4 °C 2,2 °C 25,7 km/h (4 Bft)
16.01.2018 15:13 6,0 °C 77 % 997,8 hPa 0,0 mm 21,8 km/h (4 Bft) W-SW 254 ° 0 min 0,000 mm 0,0 UV-I 44 W/m² 2,3 °C 2,1 °C 32,2 km/h (5 Bft)
16.01.2018 15:14 6,0 °C 77 % 997,8 hPa 0,0 mm 28,2 km/h (4 Bft) W-SW 257 ° 0 min 0,000 mm 0,0 UV-I 40 W/m² 2,3 °C 1,5 °C 40,2 km/h (6 Bft)
16.01.2018 15:15 6,1 °C 77 % 997,6 hPa 0,0 mm 19,4 km/h (3 Bft) W 261 ° 0 min 0,000 mm 0,0 UV-I 30 W/m² 2,4 °C 2,5 °C 30,6 km/h (5 Bft)
16.01.2018 15:16 6,1 °C 76 % 997,8 hPa 0,0 mm 18,4 km/h (3 Bft) W 264 ° 0 min 0,000 mm 0,0 UV-I 32 W/m² 2,2 °C 2,6 °C 30,6 km/h (5 Bft)
16.01.2018 15:17 6,1 °C 76 % 997,8 hPa 0,0 mm 19,4 km/h (3 Bft) W 259 ° 0 min 0,000 mm 0,0 UV-I 30 W/m² 2,2 °C 2,5 °C 30,6 km/h (5 Bft)
16.01.2018 15:18 6,2 °C 76 % 997,7 hPa 0,0 mm 14,9 km/h (3 Bft) SW 236 ° 0 min 0,000 mm 0,0 UV-I 25 W/m² 2,3 °C 3,2 °C 25,7 km/h (4 Bft)
16.01.2018 15:19 6,2 °C 75 % 997,8 hPa 0,0 mm 25,3 km/h (4 Bft) W 268 ° 0 min 0,000 mm 0,0 UV-I 21 W/m² 2,1 °C 2,0 °C 33,8 km/h (5 Bft)
16.01.2018 15:20 6,2 °C 76 % 998,1 hPa 0,0 mm 24,3 km/h (4 Bft) W-NW 288 ° 0 min 0,000 mm 0,0 UV-I 18 W/m² 2,3 °C 2,1 °C 41,8 km/h (6 Bft)
16.01.2018 15:21 6,3 °C 75 % 998,1 hPa 0,0 mm 26,4 km/h (4 Bft) W 261 ° 0 min 0,000 mm 0,0 UV-I 16 W/m² 2,2 °C 2,1 °C 45,1 km/h (6 Bft)
16.01.2018 15:22 6,3 °C 75 % 997,9 hPa 0,0 mm 30,4 km/h (5 Bft) W 272 ° 0 min 0,000 mm 0,0 UV-I 14 W/m² 2,2 °C 1,7 °C 49,9 km/h (6 Bft)
16.01.2018 15:23 6,3 °C 75 % 998,1 hPa 0,0 mm 35,5 km/h (5 Bft) W 266 ° 0 min 0,000 mm 0,0 UV-I 12 W/m² 2,2 °C 1,3 °C 53,1 km/h (7 Bft)
16.01.2018 15:24 6,3 °C 75 % 998,1 hPa 0,0 mm 28,4 km/h (4 Bft) W-SW 252 ° 0 min 0,000 mm 0,0 UV-I 11 W/m² 2,2 °C 1,9 °C 51,5 km/h (7 Bft)
16.01.2018 15:25 6,4 °C 76 % 998,1 hPa 0,0 mm 33,1 km/h (5 Bft) W-NW 288 ° 0 min 0,000 mm 0,0 UV-I 12 W/m² 2,5 °C 1,6 °C 49,9 km/h (6 Bft)
16.01.2018 15:26 6,3 °C 76 % 998,0 hPa 0,0 mm 26,2 km/h (4 Bft) W-NW 288 ° 0 min 0,000 mm 0,0 UV-I 11 W/m² 2,4 °C 2,1 °C 45,1 km/h (6 Bft)
16.01.2018 15:27 6,3 °C 77 % 998,1 hPa 0,0 mm 26,5 km/h (4 Bft) W-SW 254 ° 0 min 0,000 mm 0,0 UV-I 11 W/m² 2,6 °C 2,0 °C 40,2 km/h (6 Bft)
16.01.2018 15:28 6,3 °C 76 % 998,0 hPa 0,0 mm 23,3 km/h (4 Bft) W 275 ° 0 min 0,000 mm 0,0 UV-I 11 W/m² 2,4 °C 2,4 °C 29,0 km/h (5 Bft)
16.01.2018 15:29 6,3 °C 77 % 998,1 hPa 0,0 mm 20,5 km/h (4 Bft) W-NW 284 ° 0 min 0,000 mm 0,0 UV-I 11 W/m² 2,6 °C 2,7 °C 40,2 km/h (6 Bft)
16.01.2018 15:30 6,2 °C 77 % 998,1 hPa 0,0 mm 21,9 km/h (4 Bft) W-NW 286 ° 0 min 0,000 mm 0,0 UV-I 12 W/m² 2,5 °C 2,4 °C 30,6 km/h (5 Bft)
16.01.2018 15:31 6,2 °C 77 % 998,1 hPa 0,0 mm 18,0 km/h (3 Bft) W 269 ° 0 min 0,000 mm 0,0 UV-I 11 W/m² 2,5 °C 2,8 °C 24,1 km/h (4 Bft)
16.01.2018 15:32 6,2 °C 77 % 998,2 hPa 0,0 mm 25,3 km/h (4 Bft) W 275 ° 0 min 0,000 mm 0,0 UV-I 9 W/m² 2,5 °C 2,0 °C 41,8 km/h (6 Bft)
16.01.2018 15:33 6,2 °C 78 % 998,2 hPa 0,0 mm 24,3 km/h (4 Bft) SW 236 ° 0 min 0,000 mm 0,0 UV-I 9 W/m² 2,7 °C 2,1 °C 35,4 km/h (5 Bft)
16.01.2018 15:34 6,1 °C 78 % 998,3 hPa 0,0 mm 17,7 km/h (3 Bft) W-SW 247 ° 0 min 0,000 mm 0,0 UV-I 9 W/m² 2,6 °C 2,7 °C 27,4 km/h (4 Bft)
16.01.2018 15:35 6,1 °C 78 % 998,2 hPa 0,0 mm 18,6 km/h (3 Bft) W 273 ° 0 min 0,000 mm 0,0 UV-I 9 W/m² 2,6 °C 2,6 °C 27,4 km/h (4 Bft)
16.01.2018 15:36 6,1 °C 79 % 998,3 hPa 0,0 mm 16,4 km/h (3 Bft) W 281 ° 0 min 0,000 mm 0,0 UV-I 9 W/m² 2,7 °C 2,9 °C 22,5 km/h (4 Bft)
16.01.2018 15:37 6,1 °C 79 % 998,3 hPa 0,0 mm 21,9 km/h (4 Bft) W-NW 292 ° 0 min 0,000 mm 0,0 UV-I 9 W/m² 2,7 °C 2,2 °C 27,4 km/h (4 Bft)
16.01.2018 15:38 6,0 °C 79 % 998,1 hPa 0,0 mm 14,4 km/h (3 Bft) W-NW 295 ° 0 min 0,000 mm 0,0 UV-I 11 W/m² 2,6 °C 3,1 °C 25,7 km/h (4 Bft)
16.01.2018 15:39 5,9 °C 80 % 998,0 hPa 0,0 mm 14,7 km/h (3 Bft) W-NW 282 ° 0 min 0,000 mm 0,0 UV-I 11 W/m² 2,7 °C 2,9 °C 22,5 km/h (4 Bft)
16.01.2018 15:40 5,9 °C 80 % 998,0 hPa 0,0 mm 16,0 km/h (3 Bft) NW 316 ° 0 min 0,000 mm 0,0 UV-I 12 W/m² 2,7 °C 2,7 °C 25,7 km/h (4 Bft)
16.01.2018 15:41 5,8 °C 80 % 998,1 hPa 0,0 mm 17,7 km/h (3 Bft) W-NW 298 ° 0 min 0,000 mm 0,0 UV-I 11 W/m² 2,6 °C 2,4 °C 38,6 km/h (5 Bft)
16.01.2018 15:42 5,8 °C 81 % 998,3 hPa 0,0 mm 14,2 km/h (3 Bft) W-NW 298 ° 0 min 0,000 mm 0,0 UV-I 11 W/m² 2,8 °C 2,9 °C 22,5 km/h (4 Bft)
16.01.2018 15:43 5,7 °C 81 % 998,2 hPa 0,0 mm 14,3 km/h (3 Bft) NW 309 ° 0 min 0,000 mm 0,0 UV-I 9 W/m² 2,7 °C 2,7 °C 22,5 km/h (4 Bft)
16.01.2018 15:44 5,7 °C 82 % 998,3 hPa 0,2 mm 15,5 km/h (3 Bft) NW 309 ° 0 min 0,000 mm 0,0 UV-I 7 W/m² 2,9 °C 2,5 °C 20,9 km/h (4 Bft)
16.01.2018 15:45 5,6 °C 82 % 998,4 hPa 0,0 mm 13,5 km/h (3 Bft) W 261 ° 0 min 0,000 mm 0,0 UV-I 0 W/m² 2,8 °C 2,7 °C 16,1 km/h (3 Bft)
16.01.2018 15:46 5,6 °C 82 % 998,5 hPa 0,0 mm 9,2 km/h (2 Bft) W-NW 292 ° 0 min 0,000 mm 0,0 UV-I 0 W/m² 2,8 °C 3,6 °C 12,9 km/h (3 Bft)
16.01.2018 15:47 5,4 °C 83 % 998,6 hPa 0,0 mm 15,1 km/h (3 Bft) N-NW 327 ° 0 min 0,000 mm 0,0 UV-I 0 W/m² 2,7 °C 2,2 °C 25,7 km/h (4 Bft)
16.01.2018 15:48 5,4 °C 83 % 998,7 hPa 0,0 mm 15,0 km/h (3 Bft) W-NW 286 ° 0 min 0,000 mm 0,0 UV-I 0 W/m² 2,7 °C 2,2 °C 24,1 km/h (4 Bft)
16.01.2018 15:49 5,3 °C 84 % 999,0 hPa 0,0 mm 16,8 km/h (3 Bft) NW 311 ° 0 min 0,000 mm 0,0 UV-I 0 W/m² 2,8 °C 1,9 °C 25,7 km/h (4 Bft)
16.01.2018 15:50 5,3 °C 84 % 999,1 hPa 0,0 mm 22,5 km/h (4 Bft) W-NW 288 ° 0 min 0,000 mm 0,0 UV-I 0 W/m² 2,8 °C 1,2 °C 30,6 km/h (5 Bft)
16.01.2018 15:51 5,2 °C 84 % 999,3 hPa 0,0 mm 15,7 km/h (3 Bft) NW 320 ° 0 min 0,000 mm 0,0 UV-I 0 W/m² 2,7 °C 1,9 °C 25,7 km/h (4 Bft)
16.01.2018 15:52 5,1 °C 85 % 999,2 hPa 0,0 mm 17,0 km/h (3 Bft) N-NW 335 ° 0 min 0,000 mm 0,0 UV-I 0 W/m² 2,8 °C 1,6 °C 24,1 km/h (4 Bft)
16.01.2018 15:53 4,9 °C 85 % 999,4 hPa 0,2 mm 21,3 km/h (4 Bft) W-NW 294 ° 0 min 0,000 mm 0,0 UV-I 0 W/m² 2,6 °C 0,8 °C 29,0 km/h (5 Bft)
16.01.2018 15:54 4,8 °C 85 % 999,4 hPa 0,0 mm 13,4 km/h (3 Bft) W-NW 302 ° 0 min 0,000 mm 0,0 UV-I 0 W/m² 2,5 °C 1,8 °C 22,5 km/h (4 Bft)
16.01.2018 15:55 4,7 °C 85 % 999,5 hPa 0,0 mm 13,1 km/h (3 Bft) W-NW 283 ° 0 min 0,000 mm 0,0 UV-I 0 W/m² 2,4 °C 1,7 °C 24,1 km/h (4 Bft)
16.01.2018 15:56 4,5 °C 85 % 999,4 hPa 0,2 mm 20,7 km/h (4 Bft) W-NW 288 ° 0 min 0,000 mm 0,0 UV-I 0 W/m² 2,2 °C 0,4 °C 30,6 km/h (5 Bft)
16.01.2018 15:57 4,3 °C 85 % 999,4 hPa 0,0 mm 20,0 km/h (4 Bft) W-NW 288 ° 0 min 0,000 mm 0,0 UV-I 0 W/m² 2,0 °C 0,2 °C 38,6 km/h (5 Bft)
16.01.2018 15:58 4,2 °C 86 % 999,4 hPa 0,0 mm 17,1 km/h (3 Bft) W-NW 300 ° 0 min 0,000 mm 0,0 UV-I 0 W/m² 2,1 °C 0,4 °C 24,1 km/h (4 Bft)
16.01.2018 15:59 4,0 °C 86 % 999,5 hPa 0,2 mm 23,7 km/h (4 Bft) W-NW 284 ° 0 min 0,000 mm 0,0 UV-I 0 W/m² 1,9 °C -0,6 °C 35,4 km/h (5 Bft)
16.01.2018 16:00 3,9 °C 86 % 999,6 hPa 0,0 mm 23,6 km/h (4 Bft) NW 304 ° 0 min 0,000 mm 0,0 UV-I 0 W/m² 1,8 °C -0,7 °C 33,8 km/h (5 Bft)
16.01.2018 16:01 3,8 °C 86 % 999,5 hPa 0,0 mm 18,2 km/h (3 Bft) W-NW 284 ° 0 min 0,051 mm 0,0 UV-I 0 W/m² 1,7 °C -0,2 °C 29,0 km/h (5 Bft)
16.01.2018 16:02 3,6 °C 86 % 999,6 hPa 0,2 mm 22,1 km/h (4 Bft) W-NW 286 ° 0 min 0,000 mm 0,0 UV-I 0 W/m² 1,5 °C -1,0 °C 37,0 km/h (5 Bft)
16.01.2018 16:03 3,5 °C 87 % 999,7 hPa 0,0 mm 23,3 km/h (4 Bft) W 269 ° 0 min 0,000 mm 0,0 UV-I 0 W/m² 1,5 °C -1,2 °C 30,6 km/h (5 Bft)
16.01.2018 16:04 3,4 °C 87 % 999,8 hPa 0,0 mm 23,5 km/h (4 Bft) W 273 ° 0 min 0,000 mm 0,0 UV-I 0 W/m² 1,4 °C -1,4 °C 41,8 km/h (6 Bft)
16.01.2018 16:05 3,3 °C 87 % 999,7 hPa 0,2 mm 23,5 km/h (4 Bft) W 259 ° 0 min 0,000 mm 0,0 UV-I 0 W/m² 1,3 °C -1,5 °C 46,7 km/h (6 Bft)
16.01.2018 16:06 3,2 °C 88 % 999,8 hPa 0,0 mm 17,5 km/h (3 Bft) W-SW 250 ° 0 min 0,000 mm 0,0 UV-I 0 W/m² 1,4 °C -0,9 °C 25,7 km/h (4 Bft)
16.01.2018 16:08 2,9 °C 88 % 1000,0 hPa 0,2 mm 21,8 km/h (4 Bft) W 268 ° 0 min 0,000 mm 0,0 UV-I 0 W/m² 1,1 °C -1,8 °C 38,6 km/h (5 Bft)
16.01.2018 16:09 2,9 °C 88 % 1000,0 hPa 0,0 mm 22,4 km/h (4 Bft) W-NW 287 ° 0 min 0,000 mm 0,0 UV-I 0 W/m² 1,1 °C -1,9 °C 30,6 km/h (5 Bft)
16.01.2018 16:10 2,8 °C 88 % 1000,0 hPa 0,0 mm 16,7 km/h (3 Bft) W 263 ° 0 min 0,000 mm 0,0 UV-I 0 W/m² 1,0 °C -1,2 °C 27,4 km/h (4 Bft)
16.01.2018 16:11 2,7 °C 88 % 1000,1 hPa 0,2 mm 14,9 km/h (3 Bft) W 267 ° 0 min 0,000 mm 0,0 UV-I 0 W/m² 0,9 °C -1,1 °C 22,5 km/h (4 Bft)
16.01.2018 16:12 2,6 °C 88 % 1000,1 hPa 0,0 mm 13,9 km/h (3 Bft) NW 313 ° 0 min 0,000 mm 0,0 UV-I 0 W/m² 0,8 °C -1,0 °C 19,3 km/h (3 Bft)
16.01.2018 16:13 2,5 °C 88 % 1000,1 hPa 0,0 mm 11,9 km/h (2 Bft) W 271 ° 0 min 0,000 mm 0,0 UV-I 0 W/m² 0,7 °C -0,8 °C 17,7 km/h (3 Bft)
16.01.2018 16:14 2,4 °C 89 % 1000,2 hPa 0,2 mm 17,4 km/h (3 Bft) NW 304 ° 0 min 0,000 mm 0,0 UV-I 0 W/m² 0,8 °C -1,8 °C 25,7 km/h (4 Bft)
16.01.2018 16:15 2,3 °C 88 % 1000,2 hPa 0,0 mm 14,9 km/h (3 Bft) W 278 ° 0 min 0,000 mm 0,0 UV-I 0 W/m² 0,5 °C -1,6 °C 20,9 km/h (4 Bft)
16.01.2018 16:16 2,3 °C 88 % 1000,3 hPa 0,0 mm 17,9 km/h (3 Bft) W-NW 302 ° 0 min 0,000 mm 0,0 UV-I 0 W/m² 0,5 °C -2,0 °C 22,5 km/h (4 Bft)
16.01.2018 16:17 2,2 °C 88 % 1000,3 hPa 0,2 mm 15,8 km/h (3 Bft) W-SW 252 ° 0 min 0,000 mm 0,0 UV-I 0 W/m² 0,4 °C -1,8 °C 20,9 km/h (4 Bft)
16.01.2018 16:18 2,1 °C 89 % 1000,3 hPa 0,0 mm 15,9 km/h (3 Bft) W 273 ° 0 min 0,000 mm 0,0 UV-I 0 W/m² 0,5 °C -2,0 °C 22,5 km/h (4 Bft)
16.01.2018 16:19 2,0 °C 88 % 1000,4 hPa 0,0 mm 17,6 km/h (3 Bft) W 273 ° 0 min 0,000 mm 0,0 UV-I 0 W/m² 0,2 °C -2,4 °C 27,4 km/h (4 Bft)
16.01.2018 16:20 1,9 °C 88 % 1000,4 hPa 0,2 mm 9,2 km/h (2 Bft) W-NW 292 ° 0 min 0,000 mm 0,0 UV-I 0 W/m² 0,1 °C -0,8 °C 16,1 km/h (3 Bft)
16.01.2018 16:21 1,8 °C 89 % 1000,6 hPa 0,0 mm 11,8 km/h (2 Bft) W 266 ° 0 min 0,000 mm 0,0 UV-I 0 W/m² 0,2 °C -1,6 °C 14,5 km/h (3 Bft)
16.01.2018 16:22 1,7 °C 89 % 1000,7 hPa 0,0 mm 11,2 km/h (2 Bft) W 276 ° 0 min 0,000 mm 0,0 UV-I 0 W/m² 0,1 °C -1,6 °C 14,5 km/h (3 Bft)
16.01.2018 16:23 1,7 °C 89 % 1000,8 hPa 0,2 mm 8,0 km/h (2 Bft) W-SW 255 ° 0 min 0,000 mm 0,0 UV-I 0 W/m² 0,1 °C -0,7 °C 16,1 km/h (3 Bft)
16.01.2018 16:24 1,6 °C 89 % 1000,8 hPa 0,0 mm 10,8 km/h (2 Bft) W-NW 287 ° 0 min 0,000 mm 0,0 UV-I 0 W/m² -0,0 °C -1,6 °C 14,5 km/h (3 Bft)
16.01.2018 16:25 1,6 °C 89 % 1000,9 hPa 0,0 mm 11,9 km/h (2 Bft) W-NW 296 ° 0 min 0,000 mm 0,0 UV-I 0 W/m² -0,0 °C -1,8 °C 17,7 km/h (3 Bft)
16.01.2018 16:26 1,5 °C 89 % 1000,9 hPa 0,2 mm 12,3 km/h (3 Bft) W 270 ° 0 min 0,000 mm 0,0 UV-I 0 W/m² -0,1 °C -2,0 °C 14,5 km/h (3 Bft)
16.01.2018 16:27 1,4 °C 89 % 1000,8 hPa 0,0 mm 10,3 km/h (2 Bft) W-NW 294 ° 0 min 0,000 mm 0,0 UV-I 0 W/m² -0,2 °C -1,7 °C 16,1 km/h (3 Bft)
16.01.2018 16:28 1,3 °C 89 % 1000,9 hPa 0,0 mm 11,8 km/h (2 Bft) W 275 ° 0 min 0,000 mm 0,0 UV-I 0 W/m² -0,3 °C -2,2 °C 14,5 km/h (3 Bft)
16.01.2018 16:29 1,3 °C 89 % 1001,0 hPa 0,0 mm 9,6 km/h (2 Bft) W 261 ° 0 min 0,000 mm 0,0 UV-I 0 W/m² -0,3 °C -1,7 °C 12,9 km/h (3 Bft)
16.01.2018 16:30 1,3 °C 90 % 1000,9 hPa 0,0 mm 10,0 km/h (2 Bft) W 274 ° 0 min 0,000 mm 0,0 UV-I 0 W/m² -0,2 °C -1,8 °C 17,7 km/h (3 Bft)
16.01.2018 16:31 1,3 °C 89 % 1001,0 hPa 0,2 mm 12,5 km/h (3 Bft) W 263 ° 0 min 0,000 mm 0,0 UV-I 0 W/m² -0,3 °C -2,3 °C 16,1 km/h (3 Bft)
16.01.2018 16:32 1,2 °C 90 % 1000,9 hPa 0,0 mm 11,7 km/h (2 Bft) W-NW 296 ° 0 min 0,000 mm 0,0 UV-I 0 W/m² -0,3 °C -2,3 °C 17,7 km/h (3 Bft)
16.01.2018 16:33 1,2 °C 90 % 1000,9 hPa 0,0 mm 7,8 km/h (2 Bft) W-NW 290 ° 0 min 0,000 mm 0,0 UV-I 0 W/m² -0,3 °C -1,3 °C 14,5 km/h (3 Bft)
16.01.2018 16:34 1,2 °C 90 % 1000,9 hPa 0,0 mm 8,0 km/h (2 Bft) W 259 ° 0 min 0,000 mm 0,0 UV-I 0 W/m² -0,3 °C -1,3 °C 11,3 km/h (2 Bft)
16.01.2018 16:35 1,1 °C 90 % 1001,0 hPa 0,2 mm 8,1 km/h (2 Bft) W 261 ° 0 min 0,000 mm 0,0 UV-I 0 W/m² -0,4 °C -1,5 °C 12,9 km/h (3 Bft)
16.01.2018 16:36 1,1 °C 90 % 1001,0 hPa 0,0 mm 4,9 km/h (1 Bft) W-NW 295 ° 0 min 0,000 mm 0,0 UV-I 0 W/m² -0,4 °C -0,3 °C 11,3 km/h (2 Bft)
16.01.2018 16:37 1,1 °C 90 % 1001,0 hPa 0,0 mm 3,9 km/h (1 Bft) W 276 ° 0 min 0,000 mm 0,0 UV-I 0 W/m² -0,4 °C 1,1 °C 11,3 km/h (2 Bft)
16.01.2018 16:38 1,1 °C 90 % 1001,1 hPa 0,0 mm 10,3 km/h (2 Bft) W-SW 238 ° 0 min 0,000 mm 0,0 UV-I 0 W/m² -0,4 °C -2,1 °C 14,5 km/h (3 Bft)
16.01.2018 16:39 1,0 °C 90 % 1001,0 hPa 0,0 mm 10,2 km/h (2 Bft) W 266 ° 0 min 0,000 mm 0,0 UV-I 0 W/m² -0,5 °C -2,2 °C 14,5 km/h (3 Bft)
16.01.2018 16:40 1,0 °C 90 % 1001,0 hPa 0,0 mm 9,8 km/h (2 Bft) W 265 ° 0 min 0,000 mm 0,0 UV-I 0 W/m² -0,5 °C -2,1 °C 14,5 km/h (3 Bft)
16.01.2018 16:41 1,0 °C 91 % 1001,1 hPa 0,2 mm 7,6 km/h (2 Bft) SW 215 ° 0 min 0,000 mm 0,0 UV-I 0 W/m² -0,3 °C -1,4 °C 12,9 km/h (3 Bft)
16.01.2018 16:42 0,9 °C 91 % 1001,1 hPa 0,0 mm 9,4 km/h (2 Bft) W-SW 240 ° 0 min 0,000 mm 0,0 UV-I 0 W/m² -0,4 °C -2,1 °C 14,5 km/h (3 Bft)
16.01.2018 16:43 0,9 °C 90 % 1001,1 hPa 0,0 mm 14,3 km/h (3 Bft) W 259 ° 0 min 0,000 mm 0,0 UV-I 0 W/m² -0,6 °C -3,2 °C 20,9 km/h (4 Bft)
16.01.2018 16:44 0,9 °C 91 % 1001,1 hPa 0,0 mm 9,2 km/h (2 Bft) W 261 ° 0 min 0,000 mm 0,0 UV-I 0 W/m² -0,4 °C -2,0 °C 12,9 km/h (3 Bft)
16.01.2018 16:45 0,9 °C 91 % 1001,2 hPa 0,0 mm 8,4 km/h (2 Bft) W-SW 245 ° 0 min 0,000 mm 0,0 UV-I 0 W/m² -0,4 °C -1,8 °C 11,3 km/h (2 Bft)
16.01.2018 16:46 0,9 °C 91 % 1001,2 hPa 0,0 mm 8,7 km/h (2 Bft) W 262 ° 0 min 0,000 mm 0,0 UV-I 0 W/m² -0,4 °C -1,9 °C 12,9 km/h (3 Bft)
16.01.2018 16:47 0,9 °C 91 % 1001,3 hPa 0,0 mm 7,5 km/h (2 Bft) W-SW 253 ° 0 min 0,000 mm 0,0 UV-I 0 W/m² -0,4 °C -1,5 °C 11,3 km/h (2 Bft)
16.01.2018 16:48 0,8 °C 91 % 1001,1 hPa 0,0 mm 5,2 km/h (1 Bft) W 263 ° 0 min 0,000 mm 0,0 UV-I 0 W/m² -0,5 °C -0,8 °C 9,7 km/h (2 Bft)
16.01.2018 16:49 0,8 °C 91 % 1001,0 hPa 0,0 mm 9,1 km/h (2 Bft) W 279 ° 0 min 0,000 mm 0,0 UV-I 0 W/m² -0,5 °C -2,1 °C 12,9 km/h (3 Bft)
16.01.2018 16:50 0,8 °C 91 % 1001,0 hPa 0,0 mm 7,8 km/h (2 Bft) W-NW 289 ° 0 min 0,000 mm 0,0 UV-I 0 W/m² -0,5 °C -1,7 °C 11,3 km/h (2 Bft)
16.01.2018 16:51 0,8 °C 91 % 1001,0 hPa 0,0 mm 6,7 km/h (2 Bft) S 189 ° 0 min 0,000 mm 0,0 UV-I 0 W/m² -0,5 °C -1,4 °C 12,9 km/h (3 Bft)
16.01.2018 16:52 0,8 °C 91 % 1000,9 hPa 0,0 mm 9,7 km/h (2 Bft) W-SW 257 ° 0 min 0,000 mm 0,0 UV-I 0 W/m² -0,5 °C -2,3 °C 16,1 km/h (3 Bft)
16.01.2018 16:53 0,8 °C 91 % 1001,0 hPa 0,0 mm 8,1 km/h (2 Bft) W 266 ° 0 min 0,000 mm 0,0 UV-I 0 W/m² -0,5 °C -1,8 °C 12,9 km/h (3 Bft)
16.01.2018 16:54 0,8 °C 91 % 1001,0 hPa 0,0 mm 6,3 km/h (2 Bft) W-NW 288 ° 0 min 0,000 mm 0,0 UV-I 0 W/m² -0,5 °C -1,2 °C 12,9 km/h (3 Bft)
16.01.2018 16:55 0,8 °C 91 % 1001,0 hPa 0,0 mm 4,8 km/h (1 Bft) S-SW 211 ° 0 min 0,000 mm 0,0 UV-I 0 W/m² -0,5 °C -0,6 °C 6,4 km/h (2 Bft)
16.01.2018 16:56 0,8 °C 91 % 1001,1 hPa 0,0 mm 3,3 km/h (1 Bft) W-SW 255 ° 0 min 0,000 mm 0,0 UV-I 0 W/m² -0,5 °C 0,8 °C 4,8 km/h (1 Bft)
16.01.2018 16:57 0,8 °C 91 % 1001,1 hPa 0,0 mm 2,4 km/h (1 Bft) W-SW 242 ° 0 min 0,000 mm 0,0 UV-I 0 W/m² -0,5 °C 0,8 °C 4,8 km/h (1 Bft)
16.01.2018 16:58 0,8 °C 91 % 1001,1 hPa 0,0 mm 3,2 km/h (1 Bft) W 264 ° 0 min 0,000 mm 0,0 UV-I 0 W/m² -0,5 °C 0,8 °C 6,4 km/h (2 Bft)
16.01.2018 16:59 0,8 °C 91 % 1001,2 hPa 0,0 mm 2,6 km/h (1 Bft) W 264 ° 0 min 0,000 mm 0,0 UV-I 0 W/m² -0,5 °C 0,8 °C 4,8 km/h (1 Bft)
16.01.2018 17:00 0,8 °C 91 % 1001,2 hPa 0,0 mm 3,4 km/h (1 Bft) W-SW 250 ° 0 min 0,000 mm 0,0 UV-I 0 W/m² -0,5 °C 0,8 °C 6,4 km/h (2 Bft)
16.01.2018 17:01 0,8 °C 91 % 1001,2 hPa 0,0 mm 5,7 km/h (1 Bft) W 269 ° 0 min 0,000 mm 0,0 UV-I 0 W/m² -0,5 °C -1,0 °C 9,7 km/h (2 Bft)
16.01.2018 17:02 0,8 °C 91 % 1001,3 hPa 0,0 mm 4,6 km/h (1 Bft) W 263 ° 0 min 0,000 mm 0,0 UV-I 0 W/m² -0,5 °C -0,5 °C 6,4 km/h (2 Bft)
16.01.2018 17:03 0,8 °C 91 % 1001,3 hPa 0,0 mm 2,9 km/h (1 Bft) W-SW 238 ° 0 min 0,000 mm 0,0 UV-I 0 W/m² -0,5 °C 0,8 °C 4,8 km/h (1 Bft)
16.01.2018 17:04 0,7 °C 91 % 1001,3 hPa 0,0 mm 4,9 km/h (1 Bft) W 277 ° 0 min 0,000 mm 0,0 UV-I 0 W/m² -0,6 °C -0,7 °C 12,9 km/h (3 Bft)
16.01.2018 17:05 0,8 °C 92 % 1001,2 hPa 0,0 mm 7,7 km/h (2 Bft) SW 217 ° 0 min 0,000 mm 0,0 UV-I 0 W/m² -0,3 °C -1,7 °C 14,5 km/h (3 Bft)
16.01.2018 17:06 0,8 °C 92 % 1001,1 hPa 0,0 mm 3,4 km/h (1 Bft) W-SW 243 ° 0 min 0,000 mm 0,0 UV-I 0 W/m² -0,3 °C 0,8 °C 8,0 km/h (2 Bft)
16.01.2018 17:07 0,8 °C 92 % 1001,0 hPa 0,2 mm 6,1 km/h (2 Bft) SW 236 ° 0 min 0,000 mm 0,0 UV-I 0 W/m² -0,3 °C -1,1 °C 11,3 km/h (2 Bft)
16.01.2018 17:08 0,8 °C 92 % 1001,1 hPa 0,0 mm 7,7 km/h (2 Bft) SW 227 ° 0 min 0,000 mm 0,0 UV-I 0 W/m² -0,3 °C -1,7 °C 12,9 km/h (3 Bft)
16.01.2018 17:09 0,8 °C 92 % 1001,1 hPa 0,0 mm 3,6 km/h (1 Bft) W-SW 253 ° 0 min 0,000 mm 0,0 UV-I 0 W/m² -0,3 °C 0,8 °C 6,4 km/h (2 Bft)
16.01.2018 17:10 0,8 °C 92 % 1001,1 hPa 0,0 mm 2,5 km/h (1 Bft) SW 235 ° 0 min 0,000 mm 0,0 UV-I 0 W/m² -0,3 °C 0,8 °C 4,8 km/h (1 Bft)
16.01.2018 17:11 0,8 °C 92 % 1001,0 hPa 0,0 mm 3,3 km/h (1 Bft) W-SW 256 ° 0 min 0,000 mm 0,0 UV-I 0 W/m² -0,3 °C 0,8 °C 4,8 km/h (1 Bft)
16.01.2018 17:12 0,8 °C 92 % 1001,0 hPa 0,0 mm 3,0 km/h (1 Bft) W-SW 255 ° 0 min 0,000 mm 0,0 UV-I 0 W/m² -0,3 °C 0,8 °C 4,8 km/h (1 Bft)
16.01.2018 17:13 0,8 °C 92 % 1000,8 hPa 0,0 mm 2,2 km/h (1 Bft) W-SW 239 ° 0 min 0,000 mm 0,0 UV-I 0 W/m² -0,3 °C 0,8 °C 3,2 km/h (1 Bft)
16.01.2018 17:14 0,8 °C 92 % 1000,8 hPa 0,0 mm 4,3 km/h (1 Bft) S-SW 210 ° 0 min 0,000 mm 0,0 UV-I 0 W/m² -0,3 °C 0,8 °C 8,0 km/h (2 Bft)
16.01.2018 17:15 0,8 °C 92 % 1000,8 hPa 0,0 mm 2,9 km/h (1 Bft) SW 226 ° 0 min 0,000 mm 0,0 UV-I 0 W/m² -0,3 °C 0,8 °C 4,8 km/h (1 Bft)
16.01.2018 17:16 0,8 °C 92 % 1000,8 hPa 0,0 mm 3,3 km/h (1 Bft) W-SW 256 ° 0 min 0,000 mm 0,0 UV-I 0 W/m² -0,3 °C 0,8 °C 4,8 km/h (1 Bft)
16.01.2018 17:17 0,8 °C 92 % 1000,8 hPa 0,0 mm 3,6 km/h (1 Bft) W-SW 241 ° 0 min 0,000 mm 0,0 UV-I 0 W/m² -0,3 °C 0,8 °C 8,0 km/h (2 Bft)
16.01.2018 17:18 0,8 °C 92 % 1001,0 hPa 0,0 mm 2,7 km/h (1 Bft) W-SW 252 ° 0 min 0,000 mm 0,0 UV-I 0 W/m² -0,3 °C 0,8 °C 4,8 km/h (1 Bft)
16.01.2018 17:19 0,8 °C 92 % 1001,0 hPa 0,0 mm 3,6 km/h (1 Bft) W 281 ° 0 min 0,000 mm 0,0 UV-I 0 W/m² -0,3 °C 0,8 °C 4,8 km/h (1 Bft)
16.01.2018 17:20 0,8 °C 92 % 1001,0 hPa 0,0 mm 6,0 km/h (2 Bft) SW 230 ° 0 min 0,000 mm 0,0 UV-I 0 W/m² -0,3 °C -1,1 °C 9,7 km/h (2 Bft)
16.01.2018 17:21 0,8 °C 92 % 1001,0 hPa 0,0 mm 4,8 km/h (1 Bft) W-SW 250 ° 0 min 0,000 mm 0,0 UV-I 0 W/m² -0,3 °C -0,6 °C 6,4 km/h (2 Bft)
16.01.2018 17:22 0,8 °C 92 % 1001,1 hPa 0,0 mm 5,5 km/h (1 Bft) W 270 ° 0 min 0,000 mm 0,0 UV-I 0 W/m² -0,3 °C -0,9 °C 6,4 km/h (2 Bft)
16.01.2018 17:23 0,7 °C 92 % 1000,9 hPa 0,0 mm 3,1 km/h (1 Bft) W-SW 244 ° 0 min 0,000 mm 0,0 UV-I 0 W/m² -0,4 °C 0,7 °C 4,8 km/h (1 Bft)
16.01.2018 17:24 0,8 °C 92 % 1000,9 hPa 0,0 mm 7,6 km/h (2 Bft) W 260 ° 0 min 0,000 mm 0,0 UV-I 0 W/m² -0,3 °C -1,7 °C 11,3 km/h (2 Bft)
16.01.2018 17:25 0,8 °C 92 % 1001,0 hPa 0,0 mm 5,0 km/h (1 Bft) SW 235 ° 0 min 0,000 mm 0,0 UV-I 0 W/m² -0,3 °C -0,7 °C 9,7 km/h (2 Bft)
16.01.2018 17:26 0,8 °C 92 % 1000,9 hPa 0,0 mm 5,8 km/h (2 Bft) W 271 ° 0 min 0,000 mm 0,0 UV-I 0 W/m² -0,3 °C -1,0 °C 8,0 km/h (2 Bft)
16.01.2018 17:27 0,8 °C 92 % 1001,0 hPa 0,0 mm 5,1 km/h (1 Bft) SW 234 ° 0 min 0,000 mm 0,0 UV-I 0 W/m² -0,3 °C -0,7 °C 6,4 km/h (2 Bft)
16.01.2018 17:28 0,8 °C 92 % 1000,9 hPa 0,0 mm 4,7 km/h (1 Bft) W 267 ° 0 min 0,000 mm 0,0 UV-I 0 W/m² -0,3 °C -0,5 °C 11,3 km/h (2 Bft)
16.01.2018 17:29 0,8 °C 92 % 1000,9 hPa 0,0 mm 6,0 km/h (2 Bft) SW 219 ° 0 min 0,000 mm 0,0 UV-I 0 W/m² -0,3 °C -1,1 °C 8,0 km/h (2 Bft)
16.01.2018 17:30 0,8 °C 92 % 1000,9 hPa 0,2 mm 5,0 km/h (1 Bft) S-SW 197 ° 0 min 0,000 mm 0,0 UV-I 0 W/m² -0,3 °C -0,7 °C 8,0 km/h (2 Bft)
16.01.2018 17:31 0,8 °C 92 % 1001,0 hPa 0,0 mm 8,0 km/h (2 Bft) W 271 ° 0 min 0,000 mm 0,0 UV-I 0 W/m² -0,3 °C -1,8 °C 12,9 km/h (3 Bft)
16.01.2018 17:32 0,8 °C 92 % 1000,9 hPa 0,0 mm 7,1 km/h (2 Bft) W-SW 258 ° 0 min 0,000 mm 0,0 UV-I 0 W/m² -0,3 °C -1,5 °C 11,3 km/h (2 Bft)
16.01.2018 17:33 0,8 °C 92 % 1001,0 hPa 0,0 mm 9,3 km/h (2 Bft) W-NW 290 ° 0 min 0,000 mm 0,0 UV-I 0 W/m² -0,3 °C -2,2 °C 12,9 km/h (3 Bft)
16.01.2018 17:34 0,8 °C 92 % 1001,0 hPa 0,0 mm 5,2 km/h (1 Bft) W 277 ° 0 min 0,000 mm 0,0 UV-I 0 W/m² -0,3 °C -0,8 °C 8,0 km/h (2 Bft)
16.01.2018 17:35 0,8 °C 92 % 1000,8 hPa 0,0 mm 5,7 km/h (1 Bft) W 264 ° 0 min 0,000 mm 0,0 UV-I 0 W/m² -0,3 °C -1,0 °C 9,7 km/h (2 Bft)
16.01.2018 17:36 0,9 °C 92 % 1000,9 hPa 0,0 mm 4,4 km/h (1 Bft) W-NW 288 ° 0 min 0,000 mm 0,0 UV-I 0 W/m² -0,2 °C 0,9 °C 6,4 km/h (2 Bft)
16.01.2018 17:37 0,9 °C 92 % 1001,0 hPa 0,2 mm 6,0 km/h (2 Bft) W-SW 242 ° 0 min 0,000 mm 0,0 UV-I 0 W/m² -0,2 °C -1,0 °C 9,7 km/h (2 Bft)
16.01.2018 17:38 0,9 °C 93 % 1001,0 hPa 0,0 mm 7,9 km/h (2 Bft) W-SW 254 ° 0 min 0,000 mm 0,0 UV-I 0 W/m² -0,1 °C -1,7 °C 12,9 km/h (3 Bft)
16.01.2018 17:39 0,9 °C 92 % 1000,9 hPa 0,0 mm 6,2 km/h (2 Bft) W 266 ° 0 min 0,000 mm 0,0 UV-I 0 W/m² -0,2 °C -1,1 °C 11,3 km/h (2 Bft)
16.01.2018 17:40 0,9 °C 92 % 1001,0 hPa 0,0 mm 8,3 km/h (2 Bft) W-SW 241 ° 0 min 0,000 mm 0,0 UV-I 0 W/m² -0,2 °C -1,8 °C 14,5 km/h (3 Bft)
16.01.2018 17:41 0,9 °C 92 % 1001,0 hPa 0,0 mm 8,2 km/h (2 Bft) SW 226 ° 0 min 0,000 mm 0,0 UV-I 0 W/m² -0,2 °C -1,7 °C 14,5 km/h (3 Bft)
16.01.2018 17:42 0,9 °C 93 % 1001,0 hPa 0,0 mm 5,7 km/h (1 Bft) W 271 ° 0 min 0,000 mm 0,0 UV-I 0 W/m² -0,1 °C -0,9 °C 9,7 km/h (2 Bft)
16.01.2018 17:43 0,9 °C 93 % 1000,9 hPa 0,0 mm 6,6 km/h (2 Bft) NW 306 ° 0 min 0,000 mm 0,0 UV-I 0 W/m² -0,1 °C -1,2 °C 11,3 km/h (2 Bft)
16.01.2018 17:44 0,9 °C 93 % 1000,9 hPa 0,0 mm 8,2 km/h (2 Bft) W 277 ° 0 min 0,000 mm 0,0 UV-I 0 W/m² -0,1 °C -1,7 °C 12,9 km/h (3 Bft)
16.01.2018 17:45 0,9 °C 93 % 1000,9 hPa 0,2 mm 8,2 km/h (2 Bft) W 275 ° 0 min 0,000 mm 0,0 UV-I 0 W/m² -0,1 °C -1,7 °C 12,9 km/h (3 Bft)
16.01.2018 17:46 0,9 °C 93 % 1000,8 hPa 0,0 mm 8,7 km/h (2 Bft) W 271 ° 0 min 0,000 mm 0,0 UV-I 0 W/m² -0,1 °C -1,9 °C 12,9 km/h (3 Bft)
16.01.2018 17:47 0,9 °C 93 % 1000,8 hPa 0,0 mm 7,8 km/h (2 Bft) W 266 ° 0 min 0,000 mm 0,0 UV-I 0 W/m² -0,1 °C -1,6 °C 11,3 km/h (2 Bft)
16.01.2018 17:48 0,9 °C 93 % 1000,8 hPa 0,0 mm 7,3 km/h (2 Bft) W-SW 237 ° 0 min 0,000 mm 0,0 UV-I 0 W/m² -0,1 °C -1,5 °C 9,7 km/h (2 Bft)
16.01.2018 17:49 1,0 °C 93 % 1000,9 hPa 0,0 mm 9,1 km/h (2 Bft) W-NW 303 ° 0 min 0,000 mm 0,0 UV-I 0 W/m² -0,0 °C -1,9 °C 12,9 km/h (3 Bft)
16.01.2018 17:50 1,0 °C 93 % 1000,8 hPa 0,0 mm 7,4 km/h (2 Bft) W-SW 242 ° 0 min 0,000 mm 0,0 UV-I 0 W/m² -0,0 °C -1,4 °C 12,9 km/h (3 Bft)
16.01.2018 17:51 1,0 °C 93 % 1000,8 hPa 0,0 mm 9,7 km/h (2 Bft) W 266 ° 0 min 0,000 mm 0,0 UV-I 0 W/m² -0,0 °C -2,0 °C 14,5 km/h (3 Bft)
16.01.2018 17:52 1,0 °C 93 % 1000,8 hPa 0,2 mm 5,2 km/h (1 Bft) W-SW 240 ° 0 min 0,000 mm 0,0 UV-I 0 W/m² -0,0 °C -0,5 °C 11,3 km/h (2 Bft)
16.01.2018 17:53 1,0 °C 93 % 1000,7 hPa 0,0 mm 11,2 km/h (2 Bft) SW 229 ° 0 min 0,000 mm 0,0 UV-I 0 W/m² -0,0 °C -2,4 °C 14,5 km/h (3 Bft)
16.01.2018 17:54 1,0 °C 93 % 1000,7 hPa 0,0 mm 11,9 km/h (2 Bft) SW 223 ° 0 min 0,000 mm 0,0 UV-I 0 W/m² -0,0 °C -2,6 °C 19,3 km/h (3 Bft)
16.01.2018 17:55 1,1 °C 93 % 1000,6 hPa 0,0 mm 7,8 km/h (2 Bft) W 272 ° 0 min 0,000 mm 0,0 UV-I 0 W/m² 0,1 °C -1,4 °C 16,1 km/h (3 Bft)
16.01.2018 17:56 1,1 °C 93 % 1000,5 hPa 0,0 mm 8,9 km/h (2 Bft) S-SW 205 ° 0 min 0,000 mm 0,0 UV-I 0 W/m² 0,1 °C -1,7 °C 16,1 km/h (3 Bft)
16.01.2018 17:57 1,1 °C 93 % 1000,5 hPa 0,0 mm 9,5 km/h (2 Bft) SW 217 ° 0 min 0,000 mm 0,0 UV-I 0 W/m² 0,1 °C -1,9 °C 14,5 km/h (3 Bft)
16.01.2018 17:58 1,1 °C 93 % 1000,5 hPa 0,0 mm 11,2 km/h (2 Bft) SW 235 ° 0 min 0,000 mm 0,0 UV-I 0 W/m² 0,1 °C -2,3 °C 17,7 km/h (3 Bft)
16.01.2018 17:59 1,1 °C 93 % 1000,6 hPa 0,2 mm 12,3 km/h (3 Bft) W 265 ° 0 min 0,000 mm 0,0 UV-I 0 W/m² 0,1 °C -2,5 °C 17,7 km/h (3 Bft)
16.01.2018 18:00 1,1 °C 93 % 1000,7 hPa 0,0 mm 12,1 km/h (2 Bft) W-SW 257 ° 0 min 0,000 mm 0,0 UV-I 0 W/m² 0,1 °C -2,5 °C 20,9 km/h (4 Bft)
16.01.2018 18:01 1,1 °C 93 % 1000,7 hPa 0,0 mm 9,0 km/h (2 Bft) W 261 ° 0 min 0,000 mm 0,0 UV-I 0 W/m² 0,1 °C -1,7 °C 16,1 km/h (3 Bft)
16.01.2018 18:02 1,2 °C 93 % 1000,6 hPa 0,0 mm 11,2 km/h (2 Bft) W-SW 239 ° 0 min 0,000 mm 0,0 UV-I 0 W/m² 0,2 °C -2,2 °C 24,1 km/h (4 Bft)
16.01.2018 18:03 1,2 °C 93 % 1000,6 hPa 0,0 mm 10,9 km/h (2 Bft) S-SW 213 ° 0 min 0,000 mm 0,0 UV-I 0 W/m² 0,2 °C -2,1 °C 17,7 km/h (3 Bft)
16.01.2018 18:04 1,2 °C 93 % 1000,8 hPa 0,0 mm 14,2 km/h (3 Bft) W 272 ° 0 min 0,000 mm 0,0 UV-I 0 W/m² 0,2 °C -2,8 °C 27,4 km/h (4 Bft)
16.01.2018 18:05 1,2 °C 93 % 1000,8 hPa 0,2 mm 11,9 km/h (2 Bft) W 260 ° 0 min 0,000 mm 0,0 UV-I 0 W/m² 0,2 °C -2,3 °C 19,3 km/h (3 Bft)
16.01.2018 18:06 1,2 °C 93 % 1000,8 hPa 0,0 mm 10,2 km/h (2 Bft) W-SW 243 ° 0 min 0,000 mm 0,0 UV-I 0 W/m² 0,2 °C -1,9 °C 12,9 km/h (3 Bft)
16.01.2018 18:07 1,2 °C 93 % 1000,8 hPa 0,0 mm 14,3 km/h (3 Bft) W-SW 248 ° 0 min 0,000 mm 0,0 UV-I 0 W/m² 0,2 °C -2,8 °C 29,0 km/h (5 Bft)
16.01.2018 18:08 1,3 °C 93 % 1000,8 hPa 0,0 mm 12,3 km/h (3 Bft) W 262 ° 0 min 0,000 mm 0,0 UV-I 0 W/m² 0,3 °C -2,3 °C 16,1 km/h (3 Bft)
16.01.2018 18:09 1,3 °C 93 % 1000,8 hPa 0,0 mm 9,3 km/h (2 Bft) W-SW 252 ° 0 min 0,000 mm 0,0 UV-I 0 W/m² 0,3 °C -1,6 °C 14,5 km/h (3 Bft)
16.01.2018 18:10 1,3 °C 93 % 1000,9 hPa 0,0 mm 9,5 km/h (2 Bft) W-SW 242 ° 0 min 0,000 mm 0,0 UV-I 0 W/m² 0,3 °C -1,6 °C 12,9 km/h (3 Bft)
16.01.2018 18:11 1,3 °C 93 % 1000,9 hPa 0,0 mm 9,5 km/h (2 Bft) W 279 ° 0 min 0,000 mm 0,0 UV-I 0 W/m² 0,3 °C -1,6 °C 16,1 km/h (3 Bft)
16.01.2018 18:12 1,3 °C 93 % 1000,9 hPa 0,2 mm 6,9 km/h (2 Bft) W 273 ° 0 min 0,000 mm 0,0 UV-I 0 W/m² 0,3 °C -0,9 °C 12,9 km/h (3 Bft)
16.01.2018 18:13 1,3 °C 93 % 1000,9 hPa 0,0 mm 10,0 km/h (2 Bft) W-SW 253 ° 0 min 0,000 mm 0,0 UV-I 0 W/m² 0,3 °C -1,8 °C 16,1 km/h (3 Bft)
16.01.2018 18:14 1,3 °C 93 % 1001,0 hPa 0,0 mm 13,3 km/h (3 Bft) W-SW 238 ° 0 min 0,000 mm 0,0 UV-I 0 W/m² 0,3 °C -2,5 °C 22,5 km/h (4 Bft)
16.01.2018 18:15 1,3 °C 93 % 1001,0 hPa 0,0 mm 10,1 km/h (2 Bft) SW 233 ° 0 min 0,000 mm 0,0 UV-I 0 W/m² 0,3 °C -1,8 °C 16,1 km/h (3 Bft)
16.01.2018 18:16 1,3 °C 93 % 1001,0 hPa 0,0 mm 10,6 km/h (2 Bft) W 275 ° 0 min 0,000 mm 0,0 UV-I 0 W/m² 0,3 °C -1,9 °C 17,7 km/h (3 Bft)
16.01.2018 18:17 1,3 °C 93 % 1000,9 hPa 0,2 mm 12,9 km/h (3 Bft) W 259 ° 0 min 0,000 mm 0,0 UV-I 0 W/m² 0,3 °C -2,4 °C 19,3 km/h (3 Bft)
16.01.2018 18:18 1,3 °C 93 % 1000,9 hPa 0,0 mm 12,6 km/h (3 Bft) W 269 ° 0 min 0,000 mm 0,0 UV-I 0 W/m² 0,3 °C -2,4 °C 17,7 km/h (3 Bft)
16.01.2018 18:19 1,4 °C 93 % 1001,0 hPa 0,0 mm 18,7 km/h (3 Bft) W 263 ° 0 min 0,000 mm 0,0 UV-I 0 W/m² 0,4 °C -3,3 °C 27,4 km/h (4 Bft)
16.01.2018 18:20 1,4 °C 93 % 1000,9 hPa 0,0 mm 14,6 km/h (3 Bft) W 259 ° 0 min 0,000 mm 0,0 UV-I 0 W/m² 0,4 °C -2,6 °C 24,1 km/h (4 Bft)
16.01.2018 18:21 1,3 °C 93 % 1000,9 hPa 0,0 mm 11,9 km/h (2 Bft) W-SW 253 ° 0 min 0,000 mm 0,0 UV-I 0 W/m² 0,3 °C -2,2 °C 19,3 km/h (3 Bft)
16.01.2018 18:22 1,4 °C 93 % 1000,9 hPa 0,2 mm 20,4 km/h (4 Bft) W 265 ° 0 min 0,000 mm 0,0 UV-I 0 W/m² 0,4 °C -3,5 °C 32,2 km/h (5 Bft)
16.01.2018 18:23 1,3 °C 93 % 1001,0 hPa 0,0 mm 11,9 km/h (2 Bft) SW 229 ° 0 min 0,000 mm 0,0 UV-I 0 W/m² 0,3 °C -2,2 °C 22,5 km/h (4 Bft)
16.01.2018 18:24 1,3 °C 93 % 1001,0 hPa 0,0 mm 18,5 km/h (3 Bft) SW 229 ° 0 min 0,000 mm 0,0 UV-I 0 W/m² 0,3 °C -3,4 °C 25,7 km/h (4 Bft)
16.01.2018 18:25 1,4 °C 93 % 1001,0 hPa 0,0 mm 14,1 km/h (3 Bft) W 263 ° 0 min 0,000 mm 0,0 UV-I 0 W/m² 0,4 °C -2,5 °C 19,3 km/h (3 Bft)
16.01.2018 18:26 1,3 °C 93 % 1000,9 hPa 0,0 mm 7,0 km/h (2 Bft) W 271 ° 0 min 0,000 mm 0,0 UV-I 0 W/m² 0,3 °C -0,9 °C 12,9 km/h (3 Bft)
16.01.2018 18:27 1,4 °C 93 % 1000,9 hPa 0,2 mm 9,0 km/h (2 Bft) S-SW 210 ° 0 min 0,000 mm 0,0 UV-I 0 W/m² 0,4 °C -1,4 °C 12,9 km/h (3 Bft)
16.01.2018 18:28 1,4 °C 93 % 1000,9 hPa 0,0 mm 12,2 km/h (2 Bft) W-NW 293 ° 0 min 0,000 mm 0,0 UV-I 0 W/m² 0,4 °C -2,1 °C 17,7 km/h (3 Bft)
16.01.2018 18:29 1,4 °C 93 % 1000,9 hPa 0,0 mm 17,8 km/h (3 Bft) W-SW 256 ° 0 min 0,000 mm 0,0 UV-I 0 W/m² 0,4 °C -3,2 °C 24,1 km/h (4 Bft)
16.01.2018 18:30 1,4 °C 93 % 1000,9 hPa 0,0 mm 17,6 km/h (3 Bft) W 268 ° 0 min 0,000 mm 0,0 UV-I 0 W/m² 0,4 °C -3,1 °C 29,0 km/h (5 Bft)
16.01.2018 18:31 1,4 °C 93 % 1000,9 hPa 0,0 mm 11,0 km/h (2 Bft) W 264 ° 0 min 0,000 mm 0,0 UV-I 0 W/m² 0,4 °C -1,9 °C 16,1 km/h (3 Bft)
16.01.2018 18:32 1,4 °C 93 % 1001,0 hPa 0,2 mm 11,2 km/h (2 Bft) W 275 ° 0 min 0,000 mm 0,0 UV-I 0 W/m² 0,4 °C -1,9 °C 19,3 km/h (3 Bft)
16.01.2018 18:33 1,4 °C 93 % 1000,9 hPa 0,0 mm 18,2 km/h (3 Bft) W 274 ° 0 min 0,000 mm 0,0 UV-I 0 W/m² 0,4 °C -3,2 °C 27,4 km/h (4 Bft)
16.01.2018 18:34 1,4 °C 93 % 1001,0 hPa 0,0 mm 15,5 km/h (3 Bft) W-SW 253 ° 0 min 0,000 mm 0,0 UV-I 0 W/m² 0,4 °C -2,8 °C 24,1 km/h (4 Bft)
16.01.2018 18:35 1,4 °C 93 % 1000,9 hPa 0,0 mm 12,5 km/h (3 Bft) W-SW 244 ° 0 min 0,000 mm 0,0 UV-I 0 W/m² 0,4 °C -2,2 °C 19,3 km/h (3 Bft)
16.01.2018 18:36 1,4 °C 93 % 1000,8 hPa 0,2 mm 10,9 km/h (2 Bft) W 272 ° 0 min 0,000 mm 0,0 UV-I 0 W/m² 0,4 °C -1,9 °C 25,7 km/h (4 Bft)
16.01.2018 18:37 1,4 °C 93 % 1000,9 hPa 0,0 mm 21,1 km/h (4 Bft) W-SW 246 ° 0 min 0,000 mm 0,0 UV-I 0 W/m² 0,4 °C -3,6 °C 30,6 km/h (5 Bft)
16.01.2018 18:38 1,4 °C 93 % 1000,8 hPa 0,0 mm 12,5 km/h (3 Bft) SW 232 ° 0 min 0,000 mm 0,0 UV-I 0 W/m² 0,4 °C -2,2 °C 17,7 km/h (3 Bft)
16.01.2018 18:39 1,4 °C 93 % 1000,7 hPa 0,0 mm 12,1 km/h (2 Bft) SW 227 ° 0 min 0,000 mm 0,0 UV-I 0 W/m² 0,4 °C -2,1 °C 16,1 km/h (3 Bft)
16.01.2018 18:40 1,4 °C 93 % 1000,7 hPa 0,0 mm 8,2 km/h (2 Bft) SW 233 ° 0 min 0,000 mm 0,0 UV-I 0 W/m² 0,4 °C -1,2 °C 12,9 km/h (3 Bft)
16.01.2018 18:41 1,4 °C 93 % 1000,8 hPa 0,0 mm 14,9 km/h (3 Bft) SW 222 ° 0 min 0,000 mm 0,0 UV-I 0 W/m² 0,4 °C -2,7 °C 19,3 km/h (3 Bft)
16.01.2018 18:42 1,4 °C 93 % 1000,9 hPa 0,2 mm 11,1 km/h (2 Bft) W 267 ° 0 min 0,000 mm 0,0 UV-I 0 W/m² 0,4 °C -1,9 °C 19,3 km/h (3 Bft)
16.01.2018 18:43 1,4 °C 93 % 1000,9 hPa 0,0 mm 10,6 km/h (2 Bft) W 271 ° 0 min 0,000 mm 0,0 UV-I 0 W/m² 0,4 °C -1,8 °C 16,1 km/h (3 Bft)
16.01.2018 18:44 1,4 °C 93 % 1001,1 hPa 0,0 mm 16,6 km/h (3 Bft) W 274 ° 0 min 0,000 mm 0,0 UV-I 0 W/m² 0,4 °C -3,0 °C 24,1 km/h (4 Bft)
16.01.2018 18:45 1,4 °C 93 % 1001,1 hPa 0,0 mm 13,8 km/h (3 Bft) W-SW 251 ° 0 min 0,000 mm 0,0 UV-I 0 W/m² 0,4 °C -2,5 °C 20,9 km/h (4 Bft)
16.01.2018 18:46 1,4 °C 93 % 1001,2 hPa 0,2 mm 10,8 km/h (2 Bft) W-SW 252 ° 0 min 0,000 mm 0,0 UV-I 0 W/m² 0,4 °C -1,8 °C 16,1 km/h (3 Bft)
16.01.2018 18:47 1,4 °C 93 % 1001,1 hPa 0,0 mm 12,3 km/h (3 Bft) W 267 ° 0 min 0,000 mm 0,0 UV-I 0 W/m² 0,4 °C -2,2 °C 17,7 km/h (3 Bft)
16.01.2018 18:48 1,4 °C 93 % 1001,3 hPa 0,0 mm 14,6 km/h (3 Bft) W 266 ° 0 min 0,000 mm 0,0 UV-I 0 W/m² 0,4 °C -2,6 °C 19,3 km/h (3 Bft)
16.01.2018 18:49 1,5 °C 93 % 1001,3 hPa 0,0 mm 12,1 km/h (2 Bft) S-SW 209 ° 0 min 0,000 mm 0,0 UV-I 0 W/m² 0,5 °C -2,0 °C 19,3 km/h (3 Bft)
16.01.2018 18:50 1,4 °C 93 % 1001,4 hPa 0,0 mm 10,5 km/h (2 Bft) W 262 ° 0 min 0,000 mm 0,0 UV-I 0 W/m² 0,4 °C -1,8 °C 19,3 km/h (3 Bft)
16.01.2018 18:51 1,4 °C 93 % 1001,3 hPa 0,0 mm 12,7 km/h (3 Bft) W 265 ° 0 min 0,000 mm 0,0 UV-I 0 W/m² 0,4 °C -2,3 °C 17,7 km/h (3 Bft)
16.01.2018 18:52 1,4 °C 93 % 1001,3 hPa 0,0 mm 10,1 km/h (2 Bft) W-SW 251 ° 0 min 0,000 mm 0,0 UV-I 0 W/m² 0,4 °C -1,7 °C 16,1 km/h (3 Bft)
16.01.2018 18:53 1,5 °C 93 % 1001,3 hPa 0,2 mm 8,9 km/h (2 Bft) W-SW 251 ° 0 min 0,000 mm 0,0 UV-I 0 W/m² 0,5 °C -1,2 °C 12,9 km/h (3 Bft)
16.01.2018 18:54 1,4 °C 93 % 1001,3 hPa 0,0 mm 14,0 km/h (3 Bft) W-SW 252 ° 0 min 0,000 mm 0,0 UV-I 0 W/m² 0,4 °C -2,5 °C 20,9 km/h (4 Bft)
16.01.2018 18:55 1,4 °C 93 % 1001,3 hPa 0,0 mm 16,1 km/h (3 Bft) W 271 ° 0 min 0,000 mm 0,0 UV-I 0 W/m² 0,4 °C -2,9 °C 20,9 km/h (4 Bft)
16.01.2018 18:56 1,5 °C 93 % 1001,3 hPa 0,0 mm 13,9 km/h (3 Bft) W 279 ° 0 min 0,000 mm 0,0 UV-I 0 W/m² 0,5 °C -2,4 °C 20,9 km/h (4 Bft)
16.01.2018 18:57 1,4 °C 93 % 1001,3 hPa 0,0 mm 10,3 km/h (2 Bft) W-SW 238 ° 0 min 0,000 mm 0,0 UV-I 0 W/m² 0,4 °C -1,7 °C 16,1 km/h (3 Bft)
16.01.2018 18:58 1,4 °C 93 % 1001,0 hPa 0,2 mm 14,2 km/h (3 Bft) SW 232 ° 0 min 0,000 mm 0,0 UV-I 0 W/m² 0,4 °C -2,5 °C 22,5 km/h (4 Bft)
16.01.2018 18:59 1,4 °C 93 % 1001,2 hPa 0,0 mm 10,3 km/h (2 Bft) W-SW 238 ° 0 min 0,000 mm 0,0 UV-I 0 W/m² 0,4 °C -1,7 °C 20,9 km/h (4 Bft)
16.01.2018 19:00 1,4 °C 93 % 1001,0 hPa 0,0 mm 10,4 km/h (2 Bft) W 275 ° 0 min 0,000 mm 0,0 UV-I 0 W/m² 0,4 °C -1,7 °C 20,9 km/h (4 Bft)
16.01.2018 19:01 1,4 °C 93 % 1000,9 hPa 0,0 mm 11,3 km/h (2 Bft) W 267 ° 0 min 0,000 mm 0,0 UV-I 0 W/m² 0,4 °C -2,0 °C 16,1 km/h (3 Bft)
16.01.2018 19:02 1,4 °C 93 % 1001,1 hPa 0,0 mm 8,4 km/h (2 Bft) W 263 ° 0 min 0,000 mm 0,0 UV-I 0 W/m² 0,4 °C -1,2 °C 12,9 km/h (3 Bft)
16.01.2018 19:03 1,4 °C 93 % 1000,9 hPa 0,0 mm 8,0 km/h (2 Bft) SW 232 ° 0 min 0,000 mm 0,0 UV-I 0 W/m² 0,4 °C -1,1 °C 11,3 km/h (2 Bft)
16.01.2018 19:04 1,4 °C 93 % 1000,9 hPa 0,2 mm 15,6 km/h (3 Bft) W-SW 255 ° 0 min 0,000 mm 0,0 UV-I 0 W/m² 0,4 °C -2,8 °C 20,9 km/h (4 Bft)
16.01.2018 19:05 1,4 °C 93 % 1000,7 hPa 0,0 mm 14,6 km/h (3 Bft) W 269 ° 0 min 0,000 mm 0,0 UV-I 0 W/m² 0,4 °C -2,6 °C 20,9 km/h (4 Bft)
16.01.2018 19:06 1,4 °C 93 % 1000,8 hPa 0,0 mm 9,7 km/h (2 Bft) W-SW 242 ° 0 min 0,000 mm 0,0 UV-I 0 W/m² 0,4 °C -1,6 °C 16,1 km/h (3 Bft)
16.01.2018 19:07 1,4 °C 93 % 1000,7 hPa 0,0 mm 11,0 km/h (2 Bft) W 269 ° 0 min 0,000 mm 0,0 UV-I 0 W/m² 0,4 °C -1,9 °C 19,3 km/h (3 Bft)
16.01.2018 19:08 1,4 °C 93 % 1000,8 hPa 0,0 mm 15,3 km/h (3 Bft) W-NW 284 ° 0 min 0,000 mm 0,0 UV-I 0 W/m² 0,4 °C -2,7 °C 24,1 km/h (4 Bft)
16.01.2018 19:09 1,4 °C 93 % 1000,6 hPa 0,2 mm 14,3 km/h (3 Bft) W 277 ° 0 min 0,000 mm 0,0 UV-I 0 W/m² 0,4 °C -2,6 °C 20,9 km/h (4 Bft)
16.01.2018 19:10 1,4 °C 93 % 1000,7 hPa 0,0 mm 14,0 km/h (3 Bft) W-SW 246 ° 0 min 0,000 mm 0,0 UV-I 0 W/m² 0,4 °C -2,5 °C 24,1 km/h (4 Bft)
16.01.2018 19:11 1,4 °C 93 % 1000,7 hPa 0,0 mm 13,5 km/h (3 Bft) W 267 ° 0 min 0,000 mm 0,0 UV-I 0 W/m² 0,4 °C -2,4 °C 20,9 km/h (4 Bft)
16.01.2018 19:12 1,4 °C 93 % 1000,7 hPa 0,0 mm 9,9 km/h (2 Bft) SW 232 ° 0 min 0,000 mm 0,0 UV-I 0 W/m² 0,4 °C -1,6 °C 20,9 km/h (4 Bft)
16.01.2018 19:13 1,4 °C 93 % 1000,7 hPa 0,0 mm 11,7 km/h (2 Bft) W 271 ° 0 min 0,000 mm 0,0 UV-I 0 W/m² 0,4 °C -2,0 °C 19,3 km/h (3 Bft)
16.01.2018 19:14 1,4 °C 93 % 1000,9 hPa 0,0 mm 20,6 km/h (4 Bft) W-SW 247 ° 0 min 0,000 mm 0,0 UV-I 0 W/m² 0,4 °C -3,6 °C 32,2 km/h (5 Bft)
16.01.2018 19:15 1,4 °C 93 % 1001,0 hPa 0,2 mm 17,0 km/h (3 Bft) W 275 ° 0 min 0,000 mm 0,0 UV-I 0 W/m² 0,4 °C -3,0 °C 29,0 km/h (5 Bft)
16.01.2018 19:16 1,4 °C 93 % 1000,9 hPa 0,0 mm 18,5 km/h (3 Bft) SW 227 ° 0 min 0,000 mm 0,0 UV-I 0 W/m² 0,4 °C -3,3 °C 29,0 km/h (5 Bft)
16.01.2018 19:17 1,4 °C 92 % 1001,0 hPa 0,0 mm 16,2 km/h (3 Bft) W-SW 248 ° 0 min 0,000 mm 0,0 UV-I 0 W/m² 0,2 °C -2,9 °C 22,5 km/h (4 Bft)
16.01.2018 19:18 1,5 °C 92 % 1001,2 hPa 0,0 mm 17,7 km/h (3 Bft) W 273 ° 0 min 0,000 mm 0,0 UV-I 0 W/m² 0,3 °C -3,0 °C 22,5 km/h (4 Bft)
16.01.2018 19:19 1,5 °C 92 % 1001,2 hPa 0,0 mm 21,2 km/h (4 Bft) W 273 ° 0 min 0,000 mm 0,0 UV-I 0 W/m² 0,3 °C -3,5 °C 27,4 km/h (4 Bft)
16.01.2018 19:20 1,5 °C 92 % 1001,1 hPa 0,0 mm 18,4 km/h (3 Bft) SW 222 ° 0 min 0,000 mm 0,0 UV-I 0 W/m² 0,3 °C -3,1 °C 29,0 km/h (5 Bft)
16.01.2018 19:21 1,5 °C 92 % 1001,1 hPa 0,2 mm 14,9 km/h (3 Bft) W-NW 287 ° 0 min 0,000 mm 0,0 UV-I 0 W/m² 0,3 °C -2,5 °C 24,1 km/h (4 Bft)
16.01.2018 19:22 1,5 °C 92 % 1001,1 hPa 0,0 mm 20,8 km/h (4 Bft) SW 226 ° 0 min 0,000 mm 0,0 UV-I 0 W/m² 0,3 °C -3,5 °C 35,4 km/h (5 Bft)
16.01.2018 19:23 1,5 °C 92 % 1001,1 hPa 0,0 mm 20,0 km/h (4 Bft) W 262 ° 0 min 0,000 mm 0,0 UV-I 0 W/m² 0,3 °C -3,3 °C 43,5 km/h (6 Bft)
16.01.2018 19:24 1,6 °C 93 % 1001,2 hPa 0,0 mm 30,2 km/h (5 Bft) W 276 ° 0 min 0,000 mm 0,0 UV-I 0 W/m² 0,6 °C -4,4 °C 46,7 km/h (6 Bft)
16.01.2018 19:25 1,5 °C 92 % 1001,2 hPa 0,0 mm 13,6 km/h (3 Bft) W 264 ° 0 min 0,000 mm 0,0 UV-I 0 W/m² 0,3 °C -2,3 °C 19,3 km/h (3 Bft)
16.01.2018 19:26 1,6 °C 92 % 1001,3 hPa 0,0 mm 11,1 km/h (2 Bft) W 265 ° 0 min 0,000 mm 0,0 UV-I 0 W/m² 0,4 °C -1,7 °C 20,9 km/h (4 Bft)
16.01.2018 19:27 1,6 °C 92 % 1001,3 hPa 0,2 mm 14,4 km/h (3 Bft) W 265 ° 0 min 0,000 mm 0,0 UV-I 0 W/m² 0,4 °C -2,3 °C 19,3 km/h (3 Bft)
16.01.2018 19:28 1,5 °C 92 % 1001,4 hPa 0,0 mm 22,3 km/h (4 Bft) W 265 ° 0 min 0,000 mm 0,0 UV-I 0 W/m² 0,3 °C -3,7 °C 30,6 km/h (5 Bft)
16.01.2018 19:29 1,5 °C 92 % 1001,3 hPa 0,0 mm 16,8 km/h (3 Bft) W-SW 251 ° 0 min 0,000 mm 0,0 UV-I 0 W/m² 0,3 °C -2,9 °C 20,9 km/h (4 Bft)
16.01.2018 19:30 1,5 °C 92 % 1001,3 hPa 0,0 mm 19,4 km/h (3 Bft) W-SW 237 ° 0 min 0,000 mm 0,0 UV-I 0 W/m² 0,3 °C -3,3 °C 27,4 km/h (4 Bft)
16.01.2018 19:31 1,4 °C 92 % 1001,3 hPa 0,0 mm 18,8 km/h (3 Bft) S-SW 206 ° 0 min 0,000 mm 0,0 UV-I 0 W/m² 0,2 °C -3,3 °C 25,7 km/h (4 Bft)
16.01.2018 19:32 1,4 °C 92 % 1001,2 hPa 0,2 mm 20,3 km/h (4 Bft) W-NW 291 ° 0 min 0,000 mm 0,0 UV-I 0 W/m² 0,2 °C -3,5 °C 32,2 km/h (5 Bft)
16.01.2018 19:33 1,4 °C 92 % 1001,3 hPa 0,0 mm 20,7 km/h (4 Bft) W 271 ° 0 min 0,000 mm 0,0 UV-I 0 W/m² 0,2 °C -3,6 °C 32,2 km/h (5 Bft)
16.01.2018 19:34 1,4 °C 92 % 1001,3 hPa 0,0 mm 18,8 km/h (3 Bft) W 259 ° 0 min 0,000 mm 0,0 UV-I 0 W/m² 0,2 °C -3,3 °C 25,7 km/h (4 Bft)
16.01.2018 19:35 1,4 °C 92 % 1001,3 hPa 0,0 mm 20,5 km/h (4 Bft) W 263 ° 0 min 0,000 mm 0,0 UV-I 0 W/m² 0,2 °C -3,5 °C 25,7 km/h (4 Bft)
16.01.2018 19:36 1,4 °C 92 % 1001,2 hPa 0,0 mm 12,0 km/h (2 Bft) W-SW 240 ° 0 min 0,000 mm 0,0 UV-I 0 W/m² 0,2 °C -2,1 °C 22,5 km/h (4 Bft)
16.01.2018 19:37 1,3 °C 92 % 1001,2 hPa 0,0 mm 9,2 km/h (2 Bft) SW 229 ° 0 min 0,000 mm 0,0 UV-I 0 W/m² 0,1 °C -1,6 °C 19,3 km/h (3 Bft)
16.01.2018 19:38 1,3 °C 92 % 1001,0 hPa 0,2 mm 10,1 km/h (2 Bft) W-SW 244 ° 0 min 0,000 mm 0,0 UV-I 0 W/m² 0,1 °C -1,8 °C 14,5 km/h (3 Bft)
16.01.2018 19:39 1,3 °C 92 % 1001,0 hPa 0,0 mm 7,0 km/h (2 Bft) S-SW 195 ° 0 min 0,000 mm 0,0 UV-I 0 W/m² 0,1 °C -0,9 °C 11,3 km/h (2 Bft)
16.01.2018 19:40 1,3 °C 92 % 1000,8 hPa 0,0 mm 12,8 km/h (3 Bft) SW 226 ° 0 min 0,000 mm 0,0 UV-I 0 W/m² 0,1 °C -2,4 °C 17,7 km/h (3 Bft)
16.01.2018 19:41 1,2 °C 92 % 1000,8 hPa 0,0 mm 10,5 km/h (2 Bft) SW 234 ° 0 min 0,000 mm 0,0 UV-I 0 W/m² 0,0 °C -2,0 °C 17,7 km/h (3 Bft)
16.01.2018 19:42 1,2 °C 92 % 1000,9 hPa 0,0 mm 7,1 km/h (2 Bft) W-SW 244 ° 0 min 0,000 mm 0,0 UV-I 0 W/m² 0,0 °C -1,0 °C 11,3 km/h (2 Bft)
16.01.2018 19:43 1,2 °C 92 % 1000,9 hPa 0,0 mm 9,1 km/h (2 Bft) W-SW 248 ° 0 min 0,000 mm 0,0 UV-I 0 W/m² 0,0 °C -1,6 °C 14,5 km/h (3 Bft)
16.01.2018 19:44 1,2 °C 92 % 1000,8 hPa 0,0 mm 7,0 km/h (2 Bft) W-SW 252 ° 0 min 0,000 mm 0,0 UV-I 0 W/m² 0,0 °C -1,0 °C 12,9 km/h (3 Bft)
16.01.2018 19:45 1,2 °C 92 % 1000,6 hPa 0,0 mm 4,4 km/h (1 Bft) SW 229 ° 0 min 0,000 mm 0,0 UV-I 0 W/m² 0,0 °C 1,2 °C 9,7 km/h (2 Bft)
16.01.2018 19:46 1,1 °C 92 % 1000,5 hPa 0,0 mm 8,0 km/h (2 Bft) W 277 ° 0 min 0,000 mm 0,0 UV-I 0 W/m² -0,1 °C -1,4 °C 11,3 km/h (2 Bft)
16.01.2018 19:47 1,1 °C 92 % 1000,4 hPa 0,2 mm 4,7 km/h (1 Bft) S-SW 210 ° 0 min 0,000 mm 0,0 UV-I 0 W/m² -0,1 °C -0,2 °C 11,3 km/h (2 Bft)
16.01.2018 19:48 1,1 °C 92 % 1000,4 hPa 0,0 mm 4,8 km/h (1 Bft) W-SW 248 ° 0 min 0,000 mm 0,0 UV-I 0 W/m² -0,1 °C -0,2 °C 6,4 km/h (2 Bft)
16.01.2018 19:49 1,1 °C 92 % 1000,3 hPa 0,0 mm 6,1 km/h (2 Bft) W-NW 301 ° 0 min 0,000 mm 0,0 UV-I 0 W/m² -0,1 °C -0,8 °C 9,7 km/h (2 Bft)
16.01.2018 19:50 1,0 °C 92 % 1000,4 hPa 0,0 mm 5,6 km/h (1 Bft) W-SW 248 ° 0 min 0,000 mm 0,0 UV-I 0 W/m² -0,2 °C -0,7 °C 8,0 km/h (2 Bft)
16.01.2018 19:51 1,0 °C 92 % 1000,5 hPa 0,0 mm 7,5 km/h (2 Bft) W-SW 248 ° 0 min 0,000 mm 0,0 UV-I 0 W/m² -0,2 °C -1,4 °C 14,5 km/h (3 Bft)
16.01.2018 19:52 1,1 °C 92 % 1000,6 hPa 0,0 mm 6,6 km/h (2 Bft) W-NW 287 ° 0 min 0,000 mm 0,0 UV-I 0 W/m² -0,1 °C -1,0 °C 11,3 km/h (2 Bft)
16.01.2018 19:53 1,0 °C 92 % 1000,6 hPa 0,0 mm 5,0 km/h (1 Bft) W-SW 247 ° 0 min 0,000 mm 0,0 UV-I 0 W/m² -0,2 °C -0,5 °C 9,7 km/h (2 Bft)
16.01.2018 19:54 1,0 °C 92 % 1000,5 hPa 0,0 mm 4,3 km/h (1 Bft) W-SW 251 ° 0 min 0,000 mm 0,0 UV-I 0 W/m² -0,2 °C 1,0 °C 8,0 km/h (2 Bft)
16.01.2018 19:55 1,1 °C 92 % 1000,5 hPa 0,2 mm 8,5 km/h (2 Bft) W 259 ° 0 min 0,000 mm 0,0 UV-I 0 W/m² -0,1 °C -1,6 °C 12,9 km/h (3 Bft)
16.01.2018 19:56 1,0 °C 92 % 1000,5 hPa 0,0 mm 5,0 km/h (1 Bft) SW 229 ° 0 min 0,000 mm 0,0 UV-I 0 W/m² -0,2 °C -0,5 °C 6,4 km/h (2 Bft)
16.01.2018 19:57 1,1 °C 92 % 1000,5 hPa 0,0 mm 7,2 km/h (2 Bft) W-SW 244 ° 0 min 0,000 mm 0,0 UV-I 0 W/m² -0,1 °C -1,2 °C 11,3 km/h (2 Bft)
16.01.2018 19:58 1,1 °C 92 % 1000,5 hPa 0,0 mm 9,1 km/h (2 Bft) W 266 ° 0 min 0,000 mm 0,0 UV-I 0 W/m² -0,1 °C -1,8 °C 12,9 km/h (3 Bft)
16.01.2018 19:59 1,1 °C 92 % 1000,5 hPa 0,0 mm 10,2 km/h (2 Bft) W-SW 252 ° 0 min 0,000 mm 0,0 UV-I 0 W/m² -0,1 °C -2,1 °C 16,1 km/h (3 Bft)
16.01.2018 20:00 1,1 °C 92 % 1000,5 hPa 0,0 mm 8,0 km/h (2 Bft) W-SW 247 ° 0 min 0,000 mm 0,0 UV-I 0 W/m² -0,1 °C -1,4 °C 11,3 km/h (2 Bft)
16.01.2018 20:01 1,1 °C 92 % 1000,5 hPa 0,0 mm 7,0 km/h (2 Bft) W-SW 254 ° 0 min 0,000 mm 0,0 UV-I 0 W/m² -0,1 °C -1,1 °C 12,9 km/h (3 Bft)
16.01.2018 20:02 1,1 °C 92 % 1000,5 hPa 0,0 mm 3,4 km/h (1 Bft) W-NW 286 ° 0 min 0,000 mm 0,0 UV-I 0 W/m² -0,1 °C 1,1 °C 4,8 km/h (1 Bft)
16.01.2018 20:03 1,1 °C 92 % 1000,5 hPa 0,0 mm 7,0 km/h (2 Bft) W-SW 238 ° 0 min 0,000 mm 0,0 UV-I 0 W/m² -0,1 °C -1,1 °C 9,7 km/h (2 Bft)
16.01.2018 20:04 1,1 °C 92 % 1000,4 hPa 0,2 mm 8,5 km/h (2 Bft) W 281 ° 0 min 0,000 mm 0,0 UV-I 0 W/m² -0,1 °C -1,6 °C 12,9 km/h (3 Bft)
16.01.2018 20:05 1,1 °C 92 % 1000,3 hPa 0,0 mm 7,4 km/h (2 Bft) W-SW 238 ° 0 min 0,000 mm 0,0 UV-I 0 W/m² -0,1 °C -1,3 °C 11,3 km/h (2 Bft)
16.01.2018 20:06 1,1 °C 92 % 1000,2 hPa 0,0 mm 5,0 km/h (1 Bft) SW 233 ° 0 min 0,000 mm 0,0 UV-I 0 W/m² -0,1 °C -0,3 °C 6,4 km/h (2 Bft)
16.01.2018 20:07 1,1 °C 93 % 1000,2 hPa 0,0 mm 4,1 km/h (1 Bft) SW 221 ° 0 min 0,000 mm 0,0 UV-I 0 W/m² 0,1 °C 1,1 °C 9,7 km/h (2 Bft)
16.01.2018 20:08 1,2 °C 93 % 1000,2 hPa 0,0 mm 4,9 km/h (1 Bft) S-SW 205 ° 0 min 0,000 mm 0,0 UV-I 0 W/m² 0,2 °C -0,2 °C 11,3 km/h (2 Bft)
16.01.2018 20:09 1,2 °C 93 % 1000,2 hPa 0,0 mm 2,5 km/h (1 Bft) S 173 ° 0 min 0,000 mm 0,0 UV-I 0 W/m² 0,2 °C 1,2 °C 8,0 km/h (2 Bft)
16.01.2018 20:10 1,2 °C 93 % 1000,1 hPa 0,0 mm 3,9 km/h (1 Bft) SW 236 ° 0 min 0,000 mm 0,0 UV-I 0 W/m² 0,2 °C 1,2 °C 8,0 km/h (2 Bft)
16.01.2018 20:11 1,2 °C 93 % 1000,1 hPa 0,0 mm 5,8 km/h (2 Bft) S-SW 205 ° 0 min 0,000 mm 0,0 UV-I 0 W/m² 0,2 °C -0,6 °C 9,7 km/h (2 Bft)
16.01.2018 20:12 1,2 °C 93 % 1000,1 hPa 0,0 mm 9,2 km/h (2 Bft) W 266 ° 0 min 0,000 mm 0,0 UV-I 0 W/m² 0,2 °C -1,7 °C 11,3 km/h (2 Bft)
16.01.2018 20:13 1,2 °C 93 % 1000,1 hPa 0,0 mm 9,1 km/h (2 Bft) S-SW 194 ° 0 min 0,000 mm 0,0 UV-I 0 W/m² 0,2 °C -1,6 °C 14,5 km/h (3 Bft)
16.01.2018 20:14 1,2 °C 93 % 1000,1 hPa 0,0 mm 2,6 km/h (1 Bft) W-SW 248 ° 0 min 0,000 mm 0,0 UV-I 0 W/m² 0,2 °C 1,2 °C 6,4 km/h (2 Bft)
16.01.2018 20:15 1,3 °C 93 % 1000,0 hPa 0,2 mm 4,0 km/h (1 Bft) S 189 ° 0 min 0,000 mm 0,0 UV-I 0 W/m² 0,3 °C 1,3 °C 9,7 km/h (2 Bft)
16.01.2018 20:16 1,3 °C 93 % 1000,0 hPa 0,0 mm 7,1 km/h (2 Bft) W-SW 248 ° 0 min 0,000 mm 0,0 UV-I 0 W/m² 0,3 °C -0,9 °C 14,5 km/h (3 Bft)
16.01.2018 20:17 1,3 °C 93 % 1000,2 hPa 0,0 mm 11,8 km/h (2 Bft) S-SW 204 ° 0 min 0,000 mm 0,0 UV-I 0 W/m² 0,3 °C -2,2 °C 19,3 km/h (3 Bft)
16.01.2018 20:18 1,3 °C 93 % 1000,1 hPa 0,0 mm 11,9 km/h (2 Bft) W 260 ° 0 min 0,000 mm 0,0 UV-I 0 W/m² 0,3 °C -2,2 °C 17,7 km/h (3 Bft)
16.01.2018 20:19 1,4 °C 93 % 1000,2 hPa 0,0 mm 7,8 km/h (2 Bft) W-SW 246 ° 0 min 0,000 mm 0,0 UV-I 0 W/m² 0,4 °C -1,0 °C 12,9 km/h (3 Bft)
16.01.2018 20:20 1,4 °C 93 % 1000,2 hPa 0,0 mm 8,8 km/h (2 Bft) W 272 ° 0 min 0,000 mm 0,0 UV-I 0 W/m² 0,4 °C -1,3 °C 16,1 km/h (3 Bft)
16.01.2018 20:21 1,4 °C 93 % 1000,2 hPa 0,0 mm 12,5 km/h (3 Bft) W 272 ° 0 min 0,000 mm 0,0 UV-I 0 W/m² 0,4 °C -2,2 °C 16,1 km/h (3 Bft)
16.01.2018 20:22 1,4 °C 93 % 1000,2 hPa 0,0 mm 12,7 km/h (3 Bft) W 261 ° 0 min 0,000 mm 0,0 UV-I 0 W/m² 0,4 °C -2,3 °C 17,7 km/h (3 Bft)
16.01.2018 20:23 1,5 °C 93 % 1000,3 hPa 0,0 mm 10,3 km/h (2 Bft) W 269 ° 0 min 0,000 mm 0,0 UV-I 0 W/m² 0,5 °C -1,6 °C 17,7 km/h (3 Bft)
16.01.2018 20:24 1,5 °C 93 % 1000,3 hPa 0,0 mm 17,3 km/h (3 Bft) W 277 ° 0 min 0,000 mm 0,0 UV-I 0 W/m² 0,5 °C -3,0 °C 30,6 km/h (5 Bft)
16.01.2018 20:25 1,5 °C 93 % 1000,3 hPa 0,0 mm 12,8 km/h (3 Bft) W-SW 247 ° 0 min 0,000 mm 0,0 UV-I 0 W/m² 0,5 °C -2,2 °C 22,5 km/h (4 Bft)
16.01.2018 20:26 1,6 °C 93 % 1000,4 hPa 0,0 mm 11,8 km/h (2 Bft) W 269 ° 0 min 0,000 mm 0,0 UV-I 0 W/m² 0,6 °C -1,8 °C 19,3 km/h (3 Bft)
16.01.2018 20:27 1,6 °C 93 % 1000,4 hPa 0,2 mm 6,2 km/h (2 Bft) W 271 ° 0 min 0,000 mm 0,0 UV-I 0 W/m² 0,6 °C -0,3 °C 12,9 km/h (3 Bft)
16.01.2018 20:28 1,6 °C 93 % 1000,4 hPa 0,0 mm 15,0 km/h (3 Bft) W-SW 249 ° 0 min 0,000 mm 0,0 UV-I 0 W/m² 0,6 °C -2,4 °C 24,1 km/h (4 Bft)
16.01.2018 20:29 1,6 °C 93 % 1000,4 hPa 0,0 mm 15,9 km/h (3 Bft) W-SW 246 ° 0 min 0,000 mm 0,0 UV-I 0 W/m² 0,6 °C -2,6 °C 25,7 km/h (4 Bft)
16.01.2018 20:30 1,7 °C 93 % 1000,4 hPa 0,0 mm 14,9 km/h (3 Bft) SW 236 ° 0 min 0,000 mm 0,0 UV-I 0 W/m² 0,7 °C -2,3 °C 27,4 km/h (4 Bft)
16.01.2018 20:31 1,7 °C 93 % 1000,4 hPa 0,0 mm 16,7 km/h (3 Bft) SW 234 ° 0 min 0,000 mm 0,0 UV-I 0 W/m² 0,7 °C -2,6 °C 22,5 km/h (4 Bft)
16.01.2018 20:32 1,7 °C 93 % 1000,4 hPa 0,0 mm 15,5 km/h (3 Bft) W-SW 248 ° 0 min 0,000 mm 0,0 UV-I 0 W/m² 0,7 °C -2,4 °C 22,5 km/h (4 Bft)
16.01.2018 20:33 1,8 °C 93 % 1000,4 hPa 0,0 mm 14,8 km/h (3 Bft) W 263 ° 0 min 0,000 mm 0,0 UV-I 0 W/m² 0,8 °C -2,2 °C 24,1 km/h (4 Bft)
16.01.2018 20:34 1,8 °C 93 % 1000,5 hPa 0,0 mm 14,4 km/h (3 Bft) W 265 ° 0 min 0,000 mm 0,0 UV-I 0 W/m² 0,8 °C -2,1 °C 22,5 km/h (4 Bft)
16.01.2018 20:35 1,8 °C 93 % 1000,4 hPa 0,0 mm 11,9 km/h (2 Bft) W-SW 246 ° 0 min 0,000 mm 0,0 UV-I 0 W/m² 0,8 °C -1,6 °C 22,5 km/h (4 Bft)
16.01.2018 20:36 1,8 °C 93 % 1000,4 hPa 0,0 mm 9,3 km/h (2 Bft) W 267 ° 0 min 0,000 mm 0,0 UV-I 0 W/m² 0,8 °C -1,0 °C 16,1 km/h (3 Bft)
16.01.2018 20:37 1,9 °C 93 % 1000,4 hPa 0,0 mm 11,1 km/h (2 Bft) SW 234 ° 0 min 0,000 mm 0,0 UV-I 0 W/m² 0,9 °C -1,3 °C 16,1 km/h (3 Bft)
16.01.2018 20:38 1,9 °C 93 % 1000,4 hPa 0,0 mm 8,0 km/h (2 Bft) W 265 ° 0 min 0,000 mm 0,0 UV-I 0 W/m² 0,9 °C -0,5 °C 12,9 km/h (3 Bft)
16.01.2018 20:39 1,9 °C 93 % 1000,4 hPa 0,2 mm 9,1 km/h (2 Bft) W-SW 253 ° 0 min 0,000 mm 0,0 UV-I 0 W/m² 0,9 °C -0,8 °C 14,5 km/h (3 Bft)
16.01.2018 20:40 1,9 °C 93 % 1000,4 hPa 0,0 mm 12,4 km/h (3 Bft) W 261 ° 0 min 0,000 mm 0,0 UV-I 0 W/m² 0,9 °C -1,6 °C 22,5 km/h (4 Bft)
16.01.2018 20:41 1,9 °C 93 % 1000,5 hPa 0,0 mm 11,0 km/h (2 Bft) W-SW 246 ° 0 min 0,000 mm 0,0 UV-I 0 W/m² 0,9 °C -1,3 °C 16,1 km/h (3 Bft)
16.01.2018 20:42 1,9 °C 93 % 1000,4 hPa 0,0 mm 15,5 km/h (3 Bft) SW 234 ° 0 min 0,000 mm 0,0 UV-I 0 W/m² 0,9 °C -2,2 °C 24,1 km/h (4 Bft)
16.01.2018 20:43 1,9 °C 93 % 1000,5 hPa 0,0 mm 18,0 km/h (3 Bft) W 269 ° 0 min 0,000 mm 0,0 UV-I 0 W/m² 0,9 °C -2,6 °C 24,1 km/h (4 Bft)
16.01.2018 20:44 2,0 °C 92 % 1000,4 hPa 0,0 mm 16,4 km/h (3 Bft) W-SW 251 ° 0 min 0,000 mm 0,0 UV-I 0 W/m² 0,8 °C -2,2 °C 22,5 km/h (4 Bft)
16.01.2018 20:45 2,0 °C 92 % 1000,4 hPa 0,0 mm 11,2 km/h (2 Bft) W 267 ° 0 min 0,000 mm 0,0 UV-I 0 W/m² 0,8 °C -1,2 °C 19,3 km/h (3 Bft)
16.01.2018 20:46 2,0 °C 92 % 1000,4 hPa 0,0 mm 10,5 km/h (2 Bft) SW 231 ° 0 min 0,000 mm 0,0 UV-I 0 W/m² 0,8 °C -1,0 °C 16,1 km/h (3 Bft)
16.01.2018 20:47 2,0 °C 92 % 1000,4 hPa 0,0 mm 15,4 km/h (3 Bft) SW 236 ° 0 min 0,000 mm 0,0 UV-I 0 W/m² 0,8 °C -2,0 °C 20,9 km/h (4 Bft)
16.01.2018 20:48 2,0 °C 92 % 1000,3 hPa 0,0 mm 15,6 km/h (3 Bft) W-NW 287 ° 0 min 0,000 mm 0,0 UV-I 0 W/m² 0,8 °C -2,1 °C 27,4 km/h (4 Bft)
16.01.2018 20:49 2,0 °C 92 % 1000,2 hPa 0,2 mm 10,5 km/h (2 Bft) W 264 ° 0 min 0,000 mm 0,0 UV-I 0 W/m² 0,8 °C -1,0 °C 17,7 km/h (3 Bft)
16.01.2018 20:50 2,0 °C 92 % 1000,2 hPa 0,0 mm 14,7 km/h (3 Bft) W 259 ° 0 min 0,000 mm 0,0 UV-I 0 W/m² 0,8 °C -1,9 °C 17,7 km/h (3 Bft)
16.01.2018 20:51 2,1 °C 92 % 1000,3 hPa 0,0 mm 8,9 km/h (2 Bft) SW 233 ° 0 min 0,000 mm 0,0 UV-I 0 W/m² 0,9 °C -0,5 °C 14,5 km/h (3 Bft)
16.01.2018 20:52 2,1 °C 92 % 1000,1 hPa 0,0 mm 6,9 km/h (2 Bft) W 261 ° 0 min 0,000 mm 0,0 UV-I 0 W/m² 0,9 °C 0,1 °C 12,9 km/h (3 Bft)
16.01.2018 20:53 2,1 °C 92 % 1000,1 hPa 0,0 mm 7,5 km/h (2 Bft) S-SW 213 ° 0 min 0,000 mm 0,0 UV-I 0 W/m² 0,9 °C -0,1 °C 12,9 km/h (3 Bft)
16.01.2018 20:54 2,1 °C 92 % 1000,1 hPa 0,0 mm 7,4 km/h (2 Bft) W 267 ° 0 min 0,000 mm 0,0 UV-I 0 W/m² 0,9 °C -0,1 °C 12,9 km/h (3 Bft)
16.01.2018 20:55 2,1 °C 92 % 1000,2 hPa 0,0 mm 10,1 km/h (2 Bft) S 191 ° 0 min 0,000 mm 0,0 UV-I 0 W/m² 0,9 °C -0,8 °C 16,1 km/h (3 Bft)
16.01.2018 20:56 2,1 °C 92 % 1000,1 hPa 0,0 mm 10,4 km/h (2 Bft) SW 225 ° 0 min 0,000 mm 0,0 UV-I 0 W/m² 0,9 °C -0,9 °C 16,1 km/h (3 Bft)
16.01.2018 20:57 2,1 °C 92 % 1000,0 hPa 0,0 mm 8,8 km/h (2 Bft) W-SW 241 ° 0 min 0,000 mm 0,0 UV-I 0 W/m² 0,9 °C -0,5 °C 17,7 km/h (3 Bft)
16.01.2018 20:58 2,1 °C 92 % 1000,0 hPa 0,0 mm 8,6 km/h (2 Bft) S 169 ° 0 min 0,000 mm 0,0 UV-I 0 W/m² 0,9 °C -0,4 °C 19,3 km/h (3 Bft)
16.01.2018 20:59 2,1 °C 92 % 999,9 hPa 0,0 mm 8,9 km/h (2 Bft) S-SW 200 ° 0 min 0,000 mm 0,0 UV-I 0 W/m² 0,9 °C -0,5 °C 19,3 km/h (3 Bft)
16.01.2018 21:00 2,1 °C 92 % 999,9 hPa 0,0 mm 4,7 km/h (1 Bft) S-SW 210 ° 0 min 0,000 mm 0,0 UV-I 0 W/m² 0,9 °C 0,9 °C 9,7 km/h (2 Bft)
16.01.2018 21:01 2,2 °C 92 % 999,8 hPa 0,2 mm 7,0 km/h (2 Bft) S-SW 211 ° 0 min 0,000 mm 0,0 UV-I 0 W/m² 1,0 °C 0,2 °C 12,9 km/h (3 Bft)
16.01.2018 21:02 2,2 °C 92 % 999,8 hPa 0,0 mm 4,5 km/h (1 Bft) SW 225 ° 0 min 0,000 mm 0,0 UV-I 0 W/m² 1,0 °C 2,2 °C 8,0 km/h (2 Bft)
16.01.2018 21:03 2,2 °C 92 % 999,8 hPa 0,0 mm 3,6 km/h (1 Bft) W-SW 243 ° 0 min 0,000 mm 0,0 UV-I 0 W/m² 1,0 °C 2,2 °C 6,4 km/h (2 Bft)
16.01.2018 21:04 2,2 °C 92 % 999,9 hPa 0,0 mm 6,7 km/h (2 Bft) S-SW 208 ° 0 min 0,000 mm 0,0 UV-I 0 W/m² 1,0 °C 0,3 °C 12,9 km/h (3 Bft)
16.01.2018 21:05 2,2 °C 92 % 999,8 hPa 0,0 mm 8,4 km/h (2 Bft) S-SW 205 ° 0 min 0,000 mm 0,0 UV-I 0 W/m² 1,0 °C -0,3 °C 14,5 km/h (3 Bft)
16.01.2018 21:06 2,2 °C 92 % 999,6 hPa 0,0 mm 6,2 km/h (2 Bft) S-SW 192 ° 0 min 0,000 mm 0,0 UV-I 0 W/m² 1,0 °C 0,4 °C 11,3 km/h (2 Bft)
16.01.2018 21:07 2,2 °C 92 % 999,6 hPa 0,0 mm 6,7 km/h (2 Bft) W 260 ° 0 min 0,000 mm 0,0 UV-I 0 W/m² 1,0 °C 0,3 °C 9,7 km/h (2 Bft)
16.01.2018 21:08 2,2 °C 92 % 999,6 hPa 0,0 mm 5,9 km/h (2 Bft) S-SW 206 ° 0 min 0,000 mm 0,0 UV-I 0 W/m² 1,0 °C 0,5 °C 12,9 km/h (3 Bft)
16.01.2018 21:09 2,2 °C 92 % 999,5 hPa 0,0 mm 4,8 km/h (1 Bft) W-SW 254 ° 0 min 0,000 mm 0,0 UV-I 0 W/m² 1,0 °C 1,0 °C 8,0 km/h (2 Bft)
16.01.2018 21:10 2,2 °C 92 % 999,6 hPa 0,2 mm 6,2 km/h (2 Bft) S-SW 213 ° 0 min 0,000 mm 0,0 UV-I 0 W/m² 1,0 °C 0,4 °C 12,9 km/h (3 Bft)
16.01.2018 21:11 2,2 °C 92 % 999,6 hPa 0,0 mm 8,9 km/h (2 Bft) W-SW 238 ° 0 min 0,000 mm 0,0 UV-I 0 W/m² 1,0 °C -0,4 °C 12,9 km/h (3 Bft)
16.01.2018 21:12 2,2 °C 92 % 999,5 hPa 0,0 mm 7,9 km/h (2 Bft) W-SW 249 ° 0 min 0,000 mm 0,0 UV-I 0 W/m² 1,0 °C -0,1 °C 12,9 km/h (3 Bft)
16.01.2018 21:13 2,2 °C 92 % 999,5 hPa 0,0 mm 3,6 km/h (1 Bft) SW 232 ° 0 min 0,000 mm 0,0 UV-I 0 W/m² 1,0 °C 2,2 °C 6,4 km/h (2 Bft)
16.01.2018 21:14 2,2 °C 92 % 999,4 hPa 0,0 mm 3,6 km/h (1 Bft) SW 220 ° 0 min 0,000 mm 0,0 UV-I 0 W/m² 1,0 °C 2,2 °C 6,4 km/h (2 Bft)
16.01.2018 21:15 2,2 °C 92 % 999,3 hPa 0,0 mm 6,2 km/h (2 Bft) S-SW 209 ° 0 min 0,000 mm 0,0 UV-I 0 W/m² 1,0 °C 0,4 °C 9,7 km/h (2 Bft)
16.01.2018 21:16 2,2 °C 92 % 999,4 hPa 0,0 mm 8,7 km/h (2 Bft) S-SW 202 ° 0 min 0,000 mm 0,0 UV-I 0 W/m² 1,0 °C -0,4 °C 16,1 km/h (3 Bft)
16.01.2018 21:17 2,3 °C 92 % 999,3 hPa 0,0 mm 3,1 km/h (1 Bft) S-SW 200 ° 0 min 0,000 mm 0,0 UV-I 0 W/m² 1,1 °C 2,3 °C 4,8 km/h (1 Bft)
16.01.2018 21:18 2,3 °C 92 % 999,2 hPa 0,0 mm 4,9 km/h (1 Bft) SW 217 ° 0 min 0,000 mm 0,0 UV-I 0 W/m² 1,1 °C 1,1 °C 6,4 km/h (2 Bft)
16.01.2018 21:19 2,2 °C 92 % 999,1 hPa 0,0 mm 5,8 km/h (2 Bft) S-SW 208 ° 0 min 0,000 mm 0,0 UV-I 0 W/m² 1,0 °C 0,6 °C 8,0 km/h (2 Bft)
16.01.2018 21:20 2,3 °C 92 % 999,1 hPa 0,0 mm 4,2 km/h (1 Bft) S-SW 209 ° 0 min 0,000 mm 0,0 UV-I 0 W/m² 1,1 °C 2,3 °C 6,4 km/h (2 Bft)
16.01.2018 21:21 2,2 °C 92 % 999,1 hPa 0,0 mm 3,6 km/h (1 Bft) S 170 ° 0 min 0,000 mm 0,0 UV-I 0 W/m² 1,0 °C 2,2 °C 11,3 km/h (2 Bft)
16.01.2018 21:22 2,3 °C 92 % 999,0 hPa 0,0 mm 5,9 km/h (2 Bft) W-SW 254 ° 0 min 0,000 mm 0,0 UV-I 0 W/m² 1,1 °C 0,7 °C 11,3 km/h (2 Bft)
16.01.2018 21:23 2,3 °C 92 % 999,0 hPa 0,2 mm 2,5 km/h (1 Bft) SW 219 ° 0 min 0,000 mm 0,0 UV-I 0 W/m² 1,1 °C 2,3 °C 4,8 km/h (1 Bft)
16.01.2018 21:24 2,3 °C 92 % 999,0 hPa 0,0 mm 2,0 km/h (1 Bft) SW 225 ° 0 min 0,000 mm 0,0 UV-I 0 W/m² 1,1 °C 2,3 °C 4,8 km/h (1 Bft)
16.01.2018 21:25 2,3 °C 91 % 999,0 hPa 0,0 mm 4,0 km/h (1 Bft) W-SW 255 ° 0 min 0,000 mm 0,0 UV-I 0 W/m² 1,0 °C 2,3 °C 6,4 km/h (2 Bft)
16.01.2018 21:26 2,3 °C 91 % 999,0 hPa 0,0 mm 5,3 km/h (1 Bft) SW 219 ° 0 min 0,000 mm 0,0 UV-I 0 W/m² 1,0 °C 0,9 °C 8,0 km/h (2 Bft)
16.01.2018 21:27 2,3 °C 91 % 998,9 hPa 0,0 mm 4,6 km/h (1 Bft) W-SW 251 ° 0 min 0,000 mm 0,0 UV-I 0 W/m² 1,0 °C 1,2 °C 6,4 km/h (2 Bft)
16.01.2018 21:28 2,3 °C 91 % 999,0 hPa 0,0 mm 4,6 km/h (1 Bft) W-SW 245 ° 0 min 0,000 mm 0,0 UV-I 0 W/m² 1,0 °C 1,2 °C 6,4 km/h (2 Bft)
16.01.2018 21:29 2,2 °C 91 % 999,0 hPa 0,0 mm 5,5 km/h (1 Bft) S-SW 205 ° 0 min 0,000 mm 0,0 UV-I 0 W/m² 0,9 °C 0,7 °C 9,7 km/h (2 Bft)
16.01.2018 21:30 2,3 °C 91 % 999,0 hPa 0,0 mm 5,3 km/h (1 Bft) SW 218 ° 0 min 0,000 mm 0,0 UV-I 0 W/m² 1,0 °C 0,9 °C 8,0 km/h (2 Bft)
16.01.2018 21:31 2,3 °C 91 % 999,0 hPa 0,0 mm 9,7 km/h (2 Bft) W 265 ° 0 min 0,000 mm 0,0 UV-I 0 W/m² 1,0 °C -0,5 °C 16,1 km/h (3 Bft)
16.01.2018 21:32 2,3 °C 91 % 999,0 hPa 0,2 mm 8,0 km/h (2 Bft) S 169 ° 0 min 0,000 mm 0,0 UV-I 0 W/m² 1,0 °C -0,0 °C 12,9 km/h (3 Bft)
16.01.2018 21:33 2,3 °C 91 % 999,0 hPa 0,0 mm 9,5 km/h (2 Bft) SW 231 ° 0 min 0,000 mm 0,0 UV-I 0 W/m² 1,0 °C -0,4 °C 16,1 km/h (3 Bft)
16.01.2018 21:34 2,3 °C 91 % 999,0 hPa 0,0 mm 3,3 km/h (1 Bft) W-SW 240 ° 0 min 0,000 mm 0,0 UV-I 0 W/m² 1,0 °C 2,3 °C 8,0 km/h (2 Bft)
16.01.2018 21:35 2,3 °C 91 % 999,0 hPa 0,0 mm 3,0 km/h (1 Bft) W 281 ° 0 min 0,000 mm 0,0 UV-I 0 W/m² 1,0 °C 2,3 °C 6,4 km/h (2 Bft)
16.01.2018 21:36 2,3 °C 91 % 998,9 hPa 0,0 mm 5,6 km/h (1 Bft) SW 236 ° 0 min 0,000 mm 0,0 UV-I 0 W/m² 1,0 °C 0,8 °C 9,7 km/h (2 Bft)
16.01.2018 21:37 2,3 °C 91 % 999,0 hPa 0,0 mm 8,0 km/h (2 Bft) SW 234 ° 0 min 0,000 mm 0,0 UV-I 0 W/m² 1,0 °C -0,0 °C 14,5 km/h (3 Bft)
16.01.2018 21:38 2,3 °C 91 % 999,0 hPa 0,0 mm 8,7 km/h (2 Bft) S-SO 160 ° 0 min 0,000 mm 0,0 UV-I 0 W/m² 1,0 °C -0,2 °C 16,1 km/h (3 Bft)
16.01.2018 21:39 2,3 °C 91 % 998,8 hPa 0,2 mm 11,4 km/h (2 Bft) S-SW 200 ° 0 min 0,000 mm 0,0 UV-I 0 W/m² 1,0 °C -0,9 °C 17,7 km/h (3 Bft)
16.01.2018 21:40 2,3 °C 91 % 998,8 hPa 0,0 mm 2,4 km/h (1 Bft) S-SW 200 ° 0 min 0,000 mm 0,0 UV-I 0 W/m² 1,0 °C 2,3 °C 4,8 km/h (1 Bft)
16.01.2018 21:41 2,3 °C 91 % 998,9 hPa 0,0 mm 3,8 km/h (1 Bft) W 259 ° 0 min 0,000 mm 0,0 UV-I 0 W/m² 1,0 °C 2,3 °C 6,4 km/h (2 Bft)
16.01.2018 21:42 2,3 °C 91 % 998,9 hPa 0,0 mm 6,0 km/h (2 Bft) SW 224 ° 0 min 0,000 mm 0,0 UV-I 0 W/m² 1,0 °C 0,6 °C 9,7 km/h (2 Bft)
16.01.2018 21:43 2,3 °C 91 % 998,8 hPa 0,0 mm 4,6 km/h (1 Bft) S-SW 207 ° 0 min 0,000 mm 0,0 UV-I 0 W/m² 1,0 °C 1,2 °C 8,0 km/h (2 Bft)
16.01.2018 21:44 2,3 °C 91 % 998,8 hPa 0,0 mm 1,7 km/h (1 Bft) S-SW 207 ° 0 min 0,000 mm 0,0 UV-I 0 W/m² 1,0 °C 2,3 °C 3,2 km/h (1 Bft)
16.01.2018 21:45 2,3 °C 91 % 998,8 hPa 0,2 mm 0,7 km/h (0 Bft) S-SW 209 ° 0 min 0,000 mm 0,0 UV-I 0 W/m² 1,0 °C 2,3 °C 3,2 km/h (1 Bft)
16.01.2018 21:46 2,3 °C 91 % 998,8 hPa 0,0 mm 2,5 km/h (1 Bft) S-SW 212 ° 0 min 0,000 mm 0,0 UV-I 0 W/m² 1,0 °C 2,3 °C 6,4 km/h (2 Bft)
16.01.2018 21:47 2,3 °C 91 % 998,7 hPa 0,0 mm 1,9 km/h (1 Bft) SW 215 ° 0 min 0,000 mm 0,0 UV-I 0 W/m² 1,0 °C 2,3 °C 3,2 km/h (1 Bft)
16.01.2018 21:48 2,3 °C 91 % 998,7 hPa 0,0 mm 0,3 km/h (0 Bft) SW 215 ° 0 min 0,000 mm 0,0 UV-I 0 W/m² 1,0 °C 2,3 °C 1,6 km/h (1 Bft)
16.01.2018 21:49 2,3 °C 91 % 998,7 hPa 0,0 mm 2,2 km/h (1 Bft) SW 220 ° 0 min 0,000 mm 0,0 UV-I 0 W/m² 1,0 °C 2,3 °C 3,2 km/h (1 Bft)
16.01.2018 21:50 2,3 °C 91 % 998,7 hPa 0,0 mm 3,7 km/h (1 Bft) W-SW 256 ° 0 min 0,000 mm 0,0 UV-I 0 W/m² 1,0 °C 2,3 °C 6,4 km/h (2 Bft)
16.01.2018 21:51 2,3 °C 91 % 998,7 hPa 0,0 mm 5,4 km/h (1 Bft) S-SW 209 ° 0 min 0,000 mm 0,0 UV-I 0 W/m² 1,0 °C 0,9 °C 9,7 km/h (2 Bft)
16.01.2018 21:52 2,3 °C 91 % 998,7 hPa 0,0 mm 6,3 km/h (2 Bft) W 279 ° 0 min 0,000 mm 0,0 UV-I 0 W/m² 1,0 °C 0,5 °C 9,7 km/h (2 Bft)
16.01.2018 21:53 2,2 °C 91 % 998,7 hPa 0,0 mm 3,0 km/h (1 Bft) W-SW 255 ° 0 min 0,000 mm 0,0 UV-I 0 W/m² 0,9 °C 2,2 °C 6,4 km/h (2 Bft)
16.01.2018 21:54 2,3 °C 91 % 998,7 hPa 0,0 mm 3,8 km/h (1 Bft) W 274 ° 0 min 0,000 mm 0,0 UV-I 0 W/m² 1,0 °C 2,3 °C 6,4 km/h (2 Bft)
16.01.2018 21:55 2,3 °C 91 % 998,7 hPa 0,2 mm 3,8 km/h (1 Bft) W 274 ° 0 min 0,000 mm 0,0 UV-I 0 W/m² 1,0 °C 2,3 °C 4,8 km/h (1 Bft)
16.01.2018 21:56 2,3 °C 91 % 998,8 hPa 0,0 mm 5,4 km/h (1 Bft) W 259 ° 0 min 0,000 mm 0,0 UV-I 0 W/m² 1,0 °C 0,9 °C 11,3 km/h (2 Bft)
16.01.2018 21:57 2,2 °C 91 % 998,7 hPa 0,0 mm 7,4 km/h (2 Bft) SW 229 ° 0 min 0,000 mm 0,0 UV-I 0 W/m² 0,9 °C 0,0 °C 12,9 km/h (3 Bft)
16.01.2018 21:58 2,2 °C 91 % 998,8 hPa 0,0 mm 11,3 km/h (2 Bft) W-SW 239 ° 0 min 0,000 mm 0,0 UV-I 0 W/m² 0,9 °C -1,0 °C 20,9 km/h (4 Bft)
16.01.2018 21:59 2,2 °C 91 % 998,9 hPa 0,0 mm 10,1 km/h (2 Bft) W 267 ° 0 min 0,000 mm 0,0 UV-I 0 W/m² 0,9 °C -0,7 °C 20,9 km/h (4 Bft)
16.01.2018 22:00 2,2 °C 91 % 998,9 hPa 0,0 mm 12,7 km/h (3 Bft) SW 218 ° 0 min 0,000 mm 0,0 UV-I 0 W/m² 0,9 °C -1,3 °C 22,5 km/h (4 Bft)
16.01.2018 22:01 2,2 °C 91 % 998,7 hPa 0,0 mm 6,1 km/h (2 Bft) W-SW 245 ° 0 min 0,000 mm 0,0 UV-I 0 W/m² 0,9 °C 0,5 °C 9,7 km/h (2 Bft)
16.01.2018 22:02 2,3 °C 91 % 998,9 hPa 0,0 mm 13,4 km/h (3 Bft) W 271 ° 0 min 0,000 mm 0,0 UV-I 0 W/m² 1,0 °C -1,3 °C 19,3 km/h (3 Bft)
16.01.2018 22:03 2,3 °C 91 % 999,0 hPa 0,0 mm 11,3 km/h (2 Bft) W-SW 246 ° 0 min 0,000 mm 0,0 UV-I 0 W/m² 1,0 °C -0,9 °C 14,5 km/h (3 Bft)
16.01.2018 22:04 2,3 °C 91 % 999,0 hPa 0,2 mm 13,1 km/h (3 Bft) W 272 ° 0 min 0,000 mm 0,0 UV-I 0 W/m² 1,0 °C -1,2 °C 19,3 km/h (3 Bft)
16.01.2018 22:05 2,3 °C 91 % 999,1 hPa 0,0 mm 14,3 km/h (3 Bft) W 261 ° 0 min 0,000 mm 0,0 UV-I 0 W/m² 1,0 °C -1,5 °C 20,9 km/h (4 Bft)
16.01.2018 22:06 2,3 °C 91 % 999,2 hPa 0,0 mm 14,9 km/h (3 Bft) W 275 ° 0 min 0,000 mm 0,0 UV-I 0 W/m² 1,0 °C -1,6 °C 19,3 km/h (3 Bft)
16.01.2018 22:07 2,3 °C 91 % 999,2 hPa 0,0 mm 14,3 km/h (3 Bft) W 266 ° 0 min 0,000 mm 0,0 UV-I 0 W/m² 1,0 °C -1,5 °C 19,3 km/h (3 Bft)
16.01.2018 22:08 2,3 °C 91 % 999,3 hPa 0,0 mm 18,7 km/h (3 Bft) W 265 ° 0 min 0,000 mm 0,0 UV-I 0 W/m² 1,0 °C -2,2 °C 27,4 km/h (4 Bft)
16.01.2018 22:09 2,3 °C 91 % 999,3 hPa 0,0 mm 15,6 km/h (3 Bft) W-SW 245 ° 0 min 0,000 mm 0,0 UV-I 0 W/m² 1,0 °C -1,7 °C 24,1 km/h (4 Bft)
16.01.2018 22:10 2,3 °C 91 % 999,4 hPa 0,0 mm 18,0 km/h (3 Bft) W 267 ° 0 min 0,000 mm 0,0 UV-I 0 W/m² 1,0 °C -2,1 °C 24,1 km/h (4 Bft)
16.01.2018 22:11 2,3 °C 91 % 999,3 hPa 0,2 mm 16,3 km/h (3 Bft) W-SW 242 ° 0 min 0,000 mm 0,0 UV-I 0 W/m² 1,0 °C -1,8 °C 22,5 km/h (4 Bft)
16.01.2018 22:12 2,3 °C 91 % 999,3 hPa 0,0 mm 19,5 km/h (3 Bft) W-NW 286 ° 0 min 0,000 mm 0,0 UV-I 0 W/m² 1,0 °C -2,3 °C 30,6 km/h (5 Bft)
16.01.2018 22:13 2,3 °C 91 % 999,5 hPa 0,0 mm 15,8 km/h (3 Bft) W 261 ° 0 min 0,000 mm 0,0 UV-I 0 W/m² 1,0 °C -1,7 °C 22,5 km/h (4 Bft)
16.01.2018 22:14 2,3 °C 91 % 999,5 hPa 0,0 mm 14,1 km/h (3 Bft) W 262 ° 0 min 0,000 mm 0,0 UV-I 0 W/m² 1,0 °C -1,4 °C 20,9 km/h (4 Bft)
16.01.2018 22:15 2,4 °C 91 % 999,7 hPa 0,0 mm 12,9 km/h (3 Bft) W 267 ° 0 min 0,000 mm 0,0 UV-I 0 W/m² 1,1 °C -1,1 °C 22,5 km/h (4 Bft)
16.01.2018 22:16 2,3 °C 91 % 999,6 hPa 0,0 mm 13,6 km/h (3 Bft) W 274 ° 0 min 0,000 mm 0,0 UV-I 0 W/m² 1,0 °C -1,3 °C 20,9 km/h (4 Bft)
16.01.2018 22:17 2,4 °C 91 % 999,5 hPa 0,2 mm 13,8 km/h (3 Bft) W 267 ° 0 min 0,000 mm 0,0 UV-I 0 W/m² 1,1 °C -1,2 °C 24,1 km/h (4 Bft)
16.01.2018 22:18 2,4 °C 91 % 999,7 hPa 0,0 mm 18,2 km/h (3 Bft) W 263 ° 0 min 0,000 mm 0,0 UV-I 0 W/m² 1,1 °C -2,0 °C 27,4 km/h (4 Bft)
16.01.2018 22:19 2,4 °C 91 % 999,4 hPa 0,0 mm 16,8 km/h (3 Bft) W-SW 250 ° 0 min 0,000 mm 0,0 UV-I 0 W/m² 1,1 °C -1,8 °C 24,1 km/h (4 Bft)
16.01.2018 22:20 2,4 °C 91 % 999,5 hPa 0,0 mm 19,7 km/h (3 Bft) W-SW 251 ° 0 min 0,000 mm 0,0 UV-I 0 W/m² 1,1 °C -2,2 °C 30,6 km/h (5 Bft)
16.01.2018 22:21 2,4 °C 91 % 999,4 hPa 0,0 mm 14,2 km/h (3 Bft) W 268 ° 0 min 0,000 mm 0,0 UV-I 0 W/m² 1,1 °C -1,3 °C 20,9 km/h (4 Bft)
16.01.2018 22:22 2,4 °C 91 % 999,4 hPa 0,0 mm 17,2 km/h (3 Bft) W-SW 246 ° 0 min 0,000 mm 0,0 UV-I 0 W/m² 1,1 °C -1,8 °C 22,5 km/h (4 Bft)
16.01.2018 22:23 2,4 °C 91 % 999,5 hPa 0,2 mm 14,1 km/h (3 Bft) S-SW 198 ° 0 min 0,000 mm 0,0 UV-I 0 W/m² 1,1 °C -1,3 °C 22,5 km/h (4 Bft)
16.01.2018 22:24 2,4 °C 91 % 999,5 hPa 0,0 mm 21,1 km/h (4 Bft) W-NW 284 ° 0 min 0,000 mm 0,0 UV-I 0 W/m² 1,1 °C -2,4 °C 30,6 km/h (5 Bft)
16.01.2018 22:25 2,4 °C 91 % 999,5 hPa 0,0 mm 14,1 km/h (3 Bft) W 272 ° 0 min 0,000 mm 0,0 UV-I 0 W/m² 1,1 °C -1,3 °C 20,9 km/h (4 Bft)
16.01.2018 22:26 2,4 °C 91 % 999,7 hPa 0,0 mm 10,9 km/h (2 Bft) W 259 ° 0 min 0,000 mm 0,0 UV-I 0 W/m² 1,1 °C -0,7 °C 16,1 km/h (3 Bft)
16.01.2018 22:27 2,4 °C 91 % 999,7 hPa 0,0 mm 14,8 km/h (3 Bft) NW 311 ° 0 min 0,000 mm 0,0 UV-I 0 W/m² 1,1 °C -1,4 °C 25,7 km/h (4 Bft)
16.01.2018 22:28 2,4 °C 91 % 999,6 hPa 0,0 mm 16,0 km/h (3 Bft) W 263 ° 0 min 0,000 mm 0,0 UV-I 0 W/m² 1,1 °C -1,6 °C 22,5 km/h (4 Bft)
16.01.2018 22:29 2,4 °C 91 % 999,7 hPa 0,0 mm 6,4 km/h (2 Bft) W 280 ° 0 min 0,000 mm 0,0 UV-I 0 W/m² 1,1 °C 0,6 °C 11,3 km/h (2 Bft)
16.01.2018 22:30 2,4 °C 91 % 999,7 hPa 0,0 mm 11,0 km/h (2 Bft) W-NW 297 ° 0 min 0,000 mm 0,0 UV-I 0 W/m² 1,1 °C -0,7 °C 16,1 km/h (3 Bft)
16.01.2018 22:31 2,4 °C 91 % 999,6 hPa 0,2 mm 12,9 km/h (3 Bft) W 278 ° 0 min 0,000 mm 0,0 UV-I 0 W/m² 1,1 °C -1,1 °C 20,9 km/h (4 Bft)
16.01.2018 22:33 2,4 °C 91 % 999,8 hPa 0,0 mm 14,6 km/h (3 Bft) N 355 ° 0 min 0,000 mm 0,0 UV-I 0 W/m² 1,1 °C -1,4 °C 30,6 km/h (5 Bft)
16.01.2018 22:34 2,4 °C 91 % 999,9 hPa 0,0 mm 15,1 km/h (3 Bft) W 281 ° 0 min 0,000 mm 0,0 UV-I 0 W/m² 1,1 °C -1,5 °C 19,3 km/h (3 Bft)
16.01.2018 22:35 2,4 °C 91 % 999,9 hPa 0,0 mm 13,7 km/h (3 Bft) W-NW 303 ° 0 min 0,000 mm 0,0 UV-I 0 W/m² 1,1 °C -1,2 °C 27,4 km/h (4 Bft)
16.01.2018 22:36 2,4 °C 91 % 999,9 hPa 0,0 mm 12,9 km/h (3 Bft) W-NW 292 ° 0 min 0,000 mm 0,0 UV-I 0 W/m² 1,1 °C -1,1 °C 25,7 km/h (4 Bft)
16.01.2018 22:38 2,4 °C 91 % 999,9 hPa 0,0 mm 19,3 km/h (3 Bft) W-NW 300 ° 0 min 0,000 mm 0,0 UV-I 0 W/m² 1,1 °C -2,1 °C 20,9 km/h (4 Bft)
16.01.2018 22:39 2,4 °C 91 % 999,8 hPa 0,0 mm 14,5 km/h (3 Bft) W 277 ° 0 min 0,000 mm 0,0 UV-I 0 W/m² 1,1 °C -1,4 °C 25,7 km/h (4 Bft)
16.01.2018 22:40 2,4 °C 91 % 999,8 hPa 0,0 mm 17,9 km/h (3 Bft) W 277 ° 0 min 0,000 mm 0,0 UV-I 0 W/m² 1,1 °C -1,9 °C 25,7 km/h (4 Bft)
16.01.2018 22:41 2,4 °C 91 % 999,8 hPa 0,0 mm 20,6 km/h (4 Bft) W-SW 257 ° 0 min 0,000 mm 0,0 UV-I 0 W/m² 1,1 °C -2,3 °C 32,2 km/h (5 Bft)
16.01.2018 22:42 2,4 °C 91 % 999,6 hPa 0,0 mm 21,9 km/h (4 Bft) W 262 ° 0 min 0,000 mm 0,0 UV-I 0 W/m² 1,1 °C -2,5 °C 40,2 km/h (6 Bft)
16.01.2018 22:43 2,5 °C 91 % 999,8 hPa 0,0 mm 26,8 km/h (4 Bft) W 277 ° 0 min 0,000 mm 0,0 UV-I 0 W/m² 1,2 °C -2,9 °C 46,7 km/h (6 Bft)
16.01.2018 22:44 2,5 °C 90 % 999,7 hPa 0,0 mm 18,6 km/h (3 Bft) W 269 ° 0 min 0,000 mm 0,0 UV-I 0 W/m² 1,0 °C -1,9 °C 27,4 km/h (4 Bft)
16.01.2018 22:45 2,5 °C 90 % 999,7 hPa 0,0 mm 15,6 km/h (3 Bft) W-SW 253 ° 0 min 0,000 mm 0,0 UV-I 0 W/m² 1,0 °C -1,4 °C 22,5 km/h (4 Bft)
16.01.2018 22:46 2,5 °C 90 % 999,6 hPa 0,2 mm 24,7 km/h (4 Bft) W 260 ° 0 min 0,000 mm 0,0 UV-I 0 W/m² 1,0 °C -2,7 °C 35,4 km/h (5 Bft)
16.01.2018 22:47 2,5 °C 90 % 999,5 hPa 0,0 mm 21,6 km/h (4 Bft) W 273 ° 0 min 0,000 mm 0,0 UV-I 0 W/m² 1,0 °C -2,3 °C 30,6 km/h (5 Bft)
16.01.2018 22:48 2,5 °C 90 % 999,5 hPa 0,0 mm 19,3 km/h (3 Bft) W 267 ° 0 min 0,000 mm 0,0 UV-I 0 W/m² 1,0 °C -2,0 °C 27,4 km/h (4 Bft)
16.01.2018 22:49 2,6 °C 90 % 999,5 hPa 0,0 mm 14,6 km/h (3 Bft) W-NW 288 ° 0 min 0,000 mm 0,0 UV-I 0 W/m² 1,1 °C -1,1 °C 22,5 km/h (4 Bft)
16.01.2018 22:50 2,6 °C 90 % 999,4 hPa 0,0 mm 15,6 km/h (3 Bft) W 265 ° 0 min 0,000 mm 0,0 UV-I 0 W/m² 1,1 °C -1,3 °C 20,9 km/h (4 Bft)
16.01.2018 22:51 2,6 °C 90 % 999,4 hPa 0,0 mm 17,2 km/h (3 Bft) W 267 ° 0 min 0,000 mm 0,0 UV-I 0 W/m² 1,1 °C -1,6 °C 27,4 km/h (4 Bft)
16.01.2018 22:52 2,6 °C 90 % 999,3 hPa 0,0 mm 19,9 km/h (4 Bft) W-NW 288 ° 0 min 0,000 mm 0,0 UV-I 0 W/m² 1,1 °C -1,9 °C 29,0 km/h (5 Bft)
16.01.2018 22:53 2,6 °C 89 % 999,3 hPa 0,0 mm 22,9 km/h (4 Bft) W-NW 297 ° 0 min 0,000 mm 0,0 UV-I 0 W/m² 1,0 °C -2,3 °C 30,6 km/h (5 Bft)
16.01.2018 22:54 2,6 °C 89 % 999,3 hPa 0,0 mm 17,4 km/h (3 Bft) W 259 ° 0 min 0,000 mm 0,0 UV-I 0 W/m² 1,0 °C -1,6 °C 30,6 km/h (5 Bft)
16.01.2018 22:55 2,6 °C 89 % 999,3 hPa 0,0 mm 19,2 km/h (3 Bft) W 263 ° 0 min 0,000 mm 0,0 UV-I 0 W/m² 1,0 °C -1,9 °C 30,6 km/h (5 Bft)
16.01.2018 22:56 2,6 °C 89 % 999,3 hPa 0,0 mm 16,2 km/h (3 Bft) W 269 ° 0 min 0,000 mm 0,0 UV-I 0 W/m² 1,0 °C -1,4 °C 32,2 km/h (5 Bft)
16.01.2018 22:57 2,6 °C 89 % 999,4 hPa 0,0 mm 16,1 km/h (3 Bft) W-NW 301 ° 0 min 0,000 mm 0,0 UV-I 0 W/m² 1,0 °C -1,4 °C 25,7 km/h (4 Bft)
16.01.2018 22:58 2,6 °C 89 % 999,4 hPa 0,0 mm 14,9 km/h (3 Bft) W 265 ° 0 min 0,000 mm 0,0 UV-I 0 W/m² 1,0 °C -1,2 °C 24,1 km/h (4 Bft)
16.01.2018 22:59 2,5 °C 89 % 999,5 hPa 0,0 mm 19,4 km/h (3 Bft) W 277 ° 0 min 0,000 mm 0,0 UV-I 0 W/m² 0,9 °C -2,0 °C 32,2 km/h (5 Bft)
16.01.2018 23:00 2,5 °C 89 % 999,7 hPa 0,0 mm 17,8 km/h (3 Bft) W-NW 284 ° 0 min 0,000 mm 0,0 UV-I 0 W/m² 0,9 °C -1,8 °C 22,5 km/h (4 Bft)
16.01.2018 23:01 2,5 °C 89 % 999,9 hPa 0,0 mm 16,8 km/h (3 Bft) W 278 ° 0 min 0,025 mm 0,0 UV-I 0 W/m² 0,9 °C -1,6 °C 24,1 km/h (4 Bft)
16.01.2018 23:02 2,5 °C 89 % 999,7 hPa 0,0 mm 11,1 km/h (2 Bft) W-SW 242 ° 0 min 0,000 mm 0,0 UV-I 0 W/m² 0,9 °C -0,6 °C 19,3 km/h (3 Bft)
16.01.2018 23:03 2,4 °C 89 % 999,8 hPa 0,0 mm 15,6 km/h (3 Bft) W 279 ° 0 min 0,000 mm 0,0 UV-I 0 W/m² 0,8 °C -1,6 °C 24,1 km/h (4 Bft)
16.01.2018 23:04 2,5 °C 90 % 999,9 hPa 0,0 mm 14,3 km/h (3 Bft) W 263 ° 0 min 0,000 mm 0,0 UV-I 0 W/m² 1,0 °C -1,2 °C 17,7 km/h (3 Bft)
16.01.2018 23:05 2,4 °C 90 % 999,9 hPa 0,0 mm 20,0 km/h (4 Bft) W 281 ° 0 min 0,000 mm 0,0 UV-I 0 W/m² 0,9 °C -2,2 °C 27,4 km/h (4 Bft)
16.01.2018 23:06 2,4 °C 90 % 999,9 hPa 0,2 mm 18,5 km/h (3 Bft) W-NW 295 ° 0 min 0,000 mm 0,0 UV-I 0 W/m² 0,9 °C -2,0 °C 24,1 km/h (4 Bft)
16.01.2018 23:07 2,4 °C 90 % 999,9 hPa 0,0 mm 13,8 km/h (3 Bft) W 274 ° 0 min 0,000 mm 0,0 UV-I 0 W/m² 0,9 °C -1,2 °C 17,7 km/h (3 Bft)
16.01.2018 23:08 2,4 °C 89 % 999,9 hPa 0,0 mm 13,3 km/h (3 Bft) W 274 ° 0 min 0,000 mm 0,0 UV-I 0 W/m² 0,8 °C -1,2 °C 19,3 km/h (3 Bft)
16.01.2018 23:09 2,3 °C 90 % 1000,0 hPa 0,0 mm 17,0 km/h (3 Bft) W 274 ° 0 min 0,000 mm 0,0 UV-I 0 W/m² 0,8 °C -1,9 °C 25,7 km/h (4 Bft)
16.01.2018 23:10 2,3 °C 90 % 1000,0 hPa 0,0 mm 13,9 km/h (3 Bft) NW 313 ° 0 min 0,000 mm 0,0 UV-I 0 W/m² 0,8 °C -1,4 °C 20,9 km/h (4 Bft)
16.01.2018 23:11 2,3 °C 90 % 1000,0 hPa 0,0 mm 16,2 km/h (3 Bft) W 275 ° 0 min 0,000 mm 0,0 UV-I 0 W/m² 0,8 °C -1,8 °C 24,1 km/h (4 Bft)
16.01.2018 23:12 2,2 °C 90 % 1000,0 hPa 0,0 mm 12,5 km/h (3 Bft) W-NW 292 ° 0 min 0,000 mm 0,0 UV-I 0 W/m² 0,7 °C -1,2 °C 17,7 km/h (3 Bft)
16.01.2018 23:13 2,2 °C 90 % 1000,1 hPa 0,0 mm 11,7 km/h (2 Bft) W 271 ° 0 min 0,000 mm 0,0 UV-I 0 W/m² 0,7 °C -1,1 °C 16,1 km/h (3 Bft)
16.01.2018 23:14 2,1 °C 90 % 1000,1 hPa 0,0 mm 9,1 km/h (2 Bft) W-SW 244 ° 0 min 0,000 mm 0,0 UV-I 0 W/m² 0,6 °C -0,6 °C 12,9 km/h (3 Bft)
16.01.2018 23:15 2,0 °C 90 % 1000,1 hPa 0,2 mm 17,3 km/h (3 Bft) W-SW 258 ° 0 min 0,000 mm 0,0 UV-I 0 W/m² 0,5 °C -2,3 °C 20,9 km/h (4 Bft)
16.01.2018 23:16 1,9 °C 90 % 1000,1 hPa 0,0 mm 8,1 km/h (2 Bft) W-SW 248 ° 0 min 0,000 mm 0,0 UV-I 0 W/m² 0,4 °C -0,5 °C 12,9 km/h (3 Bft)
16.01.2018 23:17 1,9 °C 90 % 1000,1 hPa 0,0 mm 12,1 km/h (2 Bft) W-NW 290 ° 0 min 0,000 mm 0,0 UV-I 0 W/m² 0,4 °C -1,5 °C 22,5 km/h (4 Bft)
16.01.2018 23:18 1,8 °C 90 % 1000,2 hPa 0,0 mm 15,7 km/h (3 Bft) W 265 ° 0 min 0,000 mm 0,0 UV-I 0 W/m² 0,3 °C -2,3 °C 19,3 km/h (3 Bft)
16.01.2018 23:19 1,8 °C 90 % 1000,1 hPa 0,0 mm 15,3 km/h (3 Bft) W 261 ° 0 min 0,000 mm 0,0 UV-I 0 W/m² 0,3 °C -2,2 °C 19,3 km/h (3 Bft)
16.01.2018 23:20 1,7 °C 90 % 1000,2 hPa 0,0 mm 14,8 km/h (3 Bft) SW 236 ° 0 min 0,000 mm 0,0 UV-I 0 W/m² 0,2 °C -2,3 °C 20,9 km/h (4 Bft)
16.01.2018 23:21 1,7 °C 90 % 1000,2 hPa 0,2 mm 10,7 km/h (2 Bft) W-NW 284 ° 0 min 0,000 mm 0,0 UV-I 0 W/m² 0,2 °C -1,5 °C 17,7 km/h (3 Bft)
16.01.2018 23:22 1,6 °C 90 % 1000,1 hPa 0,0 mm 9,7 km/h (2 Bft) SW 223 ° 0 min 0,000 mm 0,0 UV-I 0 W/m² 0,1 °C -1,3 °C 17,7 km/h (3 Bft)
16.01.2018 23:23 1,6 °C 90 % 1000,1 hPa 0,0 mm 8,7 km/h (2 Bft) W-SW 250 ° 0 min 0,000 mm 0,0 UV-I 0 W/m² 0,1 °C -1,1 °C 14,5 km/h (3 Bft)
16.01.2018 23:24 1,5 °C 90 % 1000,1 hPa 0,0 mm 8,7 km/h (2 Bft) W-SW 257 ° 0 min 0,000 mm 0,0 UV-I 0 W/m² 0,0 °C -1,2 °C 16,1 km/h (3 Bft)
16.01.2018 23:25 1,5 °C 90 % 1000,0 hPa 0,0 mm 15,4 km/h (3 Bft) W 274 ° 0 min 0,000 mm 0,0 UV-I 0 W/m² 0,0 °C -2,6 °C 19,3 km/h (3 Bft)
16.01.2018 23:26 1,4 °C 90 % 1000,1 hPa 0,0 mm 11,9 km/h (2 Bft) W 281 ° 0 min 0,000 mm 0,0 UV-I 0 W/m² -0,1 °C -2,1 °C 16,1 km/h (3 Bft)
16.01.2018 23:27 1,4 °C 90 % 1000,1 hPa 0,0 mm 13,4 km/h (3 Bft) W-SW 252 ° 0 min 0,000 mm 0,0 UV-I 0 W/m² -0,1 °C -2,4 °C 19,3 km/h (3 Bft)
16.01.2018 23:28 1,4 °C 90 % 1000,0 hPa 0,0 mm 9,9 km/h (2 Bft) W 262 ° 0 min 0,000 mm 0,0 UV-I 0 W/m² -0,1 °C -1,6 °C 20,9 km/h (4 Bft)
16.01.2018 23:29 1,3 °C 91 % 1000,0 hPa 0,0 mm 17,6 km/h (3 Bft) W-SW 253 ° 0 min 0,000 mm 0,0 UV-I 0 W/m² -0,0 °C -3,2 °C 22,5 km/h (4 Bft)
16.01.2018 23:30 1,3 °C 91 % 1000,0 hPa 0,2 mm 9,1 km/h (2 Bft) SW 233 ° 0 min 0,000 mm 0,0 UV-I 0 W/m² -0,0 °C -1,5 °C 12,9 km/h (3 Bft)
16.01.2018 23:31 1,3 °C 91 % 999,9 hPa 0,0 mm 9,6 km/h (2 Bft) W-SW 257 ° 0 min 0,000 mm 0,0 UV-I 0 W/m² -0,0 °C -1,7 °C 17,7 km/h (3 Bft)
16.01.2018 23:32 1,3 °C 91 % 1000,0 hPa 0,0 mm 13,5 km/h (3 Bft) W 264 ° 0 min 0,000 mm 0,0 UV-I 0 W/m² -0,0 °C -2,5 °C 20,9 km/h (4 Bft)
16.01.2018 23:33 1,3 °C 91 % 1000,0 hPa 0,0 mm 10,9 km/h (2 Bft) W 263 ° 0 min 0,000 mm 0,0 UV-I 0 W/m² -0,0 °C -2,0 °C 17,7 km/h (3 Bft)
16.01.2018 23:34 1,2 °C 91 % 1000,0 hPa 0,0 mm 10,9 km/h (2 Bft) SW 234 ° 0 min 0,000 mm 0,0 UV-I 0 W/m² -0,1 °C -2,1 °C 16,1 km/h (3 Bft)
16.01.2018 23:35 1,2 °C 91 % 1000,0 hPa 0,0 mm 7,4 km/h (2 Bft) W-SW 252 ° 0 min 0,000 mm 0,0 UV-I 0 W/m² -0,1 °C -1,1 °C 12,9 km/h (3 Bft)
16.01.2018 23:36 1,2 °C 91 % 1000,0 hPa 0,0 mm 8,4 km/h (2 Bft) W 274 ° 0 min 0,000 mm 0,0 UV-I 0 W/m² -0,1 °C -1,4 °C 12,9 km/h (3 Bft)
16.01.2018 23:37 1,2 °C 91 % 1000,0 hPa 0,2 mm 11,8 km/h (2 Bft) W 270 ° 0 min 0,000 mm 0,0 UV-I 0 W/m² -0,1 °C -2,3 °C 22,5 km/h (4 Bft)
16.01.2018 23:38 1,2 °C 91 % 999,9 hPa 0,0 mm 15,1 km/h (3 Bft) W-SW 257 ° 0 min 0,000 mm 0,0 UV-I 0 W/m² -0,1 °C -3,0 °C 20,9 km/h (4 Bft)
16.01.2018 23:39 1,2 °C 91 % 999,8 hPa 0,0 mm 10,4 km/h (2 Bft) W 259 ° 0 min 0,000 mm 0,0 UV-I 0 W/m² -0,1 °C -2,0 °C 16,1 km/h (3 Bft)
16.01.2018 23:40 1,1 °C 91 % 999,8 hPa 0,0 mm 6,6 km/h (2 Bft) SW 229 ° 0 min 0,000 mm 0,0 UV-I 0 W/m² -0,2 °C -1,0 °C 11,3 km/h (2 Bft)
16.01.2018 23:41 1,1 °C 91 % 999,8 hPa 0,0 mm 8,4 km/h (2 Bft) W-SW 255 ° 0 min 0,000 mm 0,0 UV-I 0 W/m² -0,2 °C -1,6 °C 17,7 km/h (3 Bft)
16.01.2018 23:42 1,1 °C 91 % 999,9 hPa 0,0 mm 9,7 km/h (2 Bft) W-SW 248 ° 0 min 0,000 mm 0,0 UV-I 0 W/m² -0,2 °C -1,9 °C 19,3 km/h (3 Bft)
16.01.2018 23:43 1,1 °C 91 % 1000,0 hPa 0,0 mm 10,1 km/h (2 Bft) W-SW 248 ° 0 min 0,000 mm 0,0 UV-I 0 W/m² -0,2 °C -2,0 °C 16,1 km/h (3 Bft)
16.01.2018 23:44 1,1 °C 91 % 999,9 hPa 0,0 mm 9,9 km/h (2 Bft) W 275 ° 0 min 0,000 mm 0,0 UV-I 0 W/m² -0,2 °C -2,0 °C 17,7 km/h (3 Bft)
16.01.2018 23:45 1,1 °C 92 % 999,8 hPa 0,0 mm 6,4 km/h (2 Bft) W-SW 250 ° 0 min 0,000 mm 0,0 UV-I 0 W/m² -0,1 °C -0,9 °C 11,3 km/h (2 Bft)
16.01.2018 23:46 1,1 °C 92 % 999,8 hPa 0,0 mm 11,8 km/h (2 Bft) W-SW 237 ° 0 min 0,000 mm 0,0 UV-I 0 W/m² -0,1 °C -2,4 °C 16,1 km/h (3 Bft)
16.01.2018 23:47 1,1 °C 92 % 999,8 hPa 0,2 mm 6,8 km/h (2 Bft) W 259 ° 0 min 0,000 mm 0,0 UV-I 0 W/m² -0,1 °C -1,1 °C 14,5 km/h (3 Bft)
16.01.2018 23:48 1,1 °C 92 % 999,7 hPa 0,0 mm 7,9 km/h (2 Bft) W 267 ° 0 min 0,000 mm 0,0 UV-I 0 W/m² -0,1 °C -1,4 °C 12,9 km/h (3 Bft)
16.01.2018 23:49 1,0 °C 92 % 999,7 hPa 0,0 mm 6,2 km/h (2 Bft) W-SW 247 ° 0 min 0,000 mm 0,0 UV-I 0 W/m² -0,2 °C -1,0 °C 9,7 km/h (2 Bft)
16.01.2018 23:50 1,0 °C 92 % 999,7 hPa 0,0 mm 9,1 km/h (2 Bft) W-SW 257 ° 0 min 0,000 mm 0,0 UV-I 0 W/m² -0,2 °C -1,9 °C 22,5 km/h (4 Bft)
16.01.2018 23:51 1,0 °C 92 % 999,7 hPa 0,0 mm 14,1 km/h (3 Bft) SW 235 ° 0 min 0,000 mm 0,0 UV-I 0 W/m² -0,2 °C -3,0 °C 20,9 km/h (4 Bft)
16.01.2018 23:52 1,1 °C 92 % 999,7 hPa 0,0 mm 8,8 km/h (2 Bft) S-SW 192 ° 0 min 0,000 mm 0,0 UV-I 0 W/m² -0,1 °C -1,7 °C 14,5 km/h (3 Bft)
16.01.2018 23:53 1,0 °C 92 % 999,6 hPa 0,0 mm 9,9 km/h (2 Bft) W-SW 243 ° 0 min 0,000 mm 0,0 UV-I 0 W/m² -0,2 °C -2,1 °C 14,5 km/h (3 Bft)
16.01.2018 23:54 1,0 °C 92 % 999,7 hPa 0,0 mm 5,1 km/h (1 Bft) W 260 ° 0 min 0,000 mm 0,0 UV-I 0 W/m² -0,2 °C -0,5 °C 11,3 km/h (2 Bft)
16.01.2018 23:55 1,1 °C 92 % 999,7 hPa 0,2 mm 4,4 km/h (1 Bft) S-SW 195 ° 0 min 0,000 mm 0,0 UV-I 0 W/m² -0,1 °C 1,1 °C 11,3 km/h (2 Bft)
16.01.2018 23:56 1,1 °C 92 % 999,7 hPa 0,0 mm 8,2 km/h (2 Bft) SW 220 ° 0 min 0,000 mm 0,0 UV-I 0 W/m² -0,1 °C -1,5 °C 14,5 km/h (3 Bft)
16.01.2018 23:57 1,1 °C 92 % 999,7 hPa 0,0 mm 6,3 km/h (2 Bft) W-NW 294 ° 0 min 0,000 mm 0,0 UV-I 0 W/m² -0,1 °C -0,9 °C 11,3 km/h (2 Bft)
16.01.2018 23:58 1,1 °C 92 % 999,6 hPa 0,0 mm 10,4 km/h (2 Bft) W-SW 246 ° 0 min 0,000 mm 0,0 UV-I 0 W/m² -0,1 °C -2,1 °C 16,1 km/h (3 Bft)
16.01.2018 23:59 1,1 °C 92 % 999,6 hPa 0,0 mm 10,5 km/h (2 Bft) W-SW 257 ° 0 min 0,000 mm 0,0 UV-I 0 W/m² -0,1 °C -2,1 °C 16,1 km/h (3 Bft)
_ Min-Zeit 17:23 09:10 15:15 - 05:17 - - - - - - 00:15 19:24 05:17
Minimum _ 0,7 °C 67 % 997,6 hPa - 0,0 km/h (0 Bft) - - - - - - -3,7 °C -4,4 °C 0,0 km/h (0 Bft)
_ Max-Zeit 09:14 20:43 00:19 23:55 09:17 - - 23:59 13:01 12:47 12:47 13:22 08:01 09:17
Maximum _ 6,8 °C 93 % 1007,3 hPa 0,2 mm 37,7 km/h
W-NW (5 Bft)
- - 0 min 0,076 mm 1,0 UV-I 178 W/m² 3,0 °C 5,8 °C 56,3 km/h
W (7 Bft)
Durchschnitt _ 3,2 °C 84 % 1001,5 hPa #14,8 mm 10,1 km/h (2 Bft) W - #0 min. #0,533 mm 0,7 UV-I 15 W/m² 0,7 °C 1,0 °C 15,9 km/h (3 Bft)